[[{"header":{"parameterUnit":"m.s-1","parameterCategory":1,"la1":31.0,"la2":29.5877,"lo1":-88.7671,"lo2":-86.6584,"dx":0.0162,"dy":0.0185,"nx":115,"ny":88,"refTime":"2022-12-12T06:00:00:Z","depth":0,"parameterNumber":2,"parameterNumberName":"U-component_of_WINDS"},"data":[0.0,0.0,0.0,0.0,0.0,0.0,0.0,0.0,0.0,0.0,0.0,0.0,0.0,0.0,0.0,0.0,0.0,0.0,0.0,0.0,0.0,0.0,0.0,0.0,0.0,0.0,0.0,0.0,0.0,0.0,0.0,0.0,0.0,0.0,0.0,0.0,0.0,0.0,0.0,0.0,0.0,0.0,0.0,0.0,0.0,0.0,0.0,0.0,0.0,0.0,0.0,0.0,0.0,0.0,0.0,0.0,0.0,0.0,0.0,0.0,0.0,0.0,0.0,0.0,0.0,0.0,0.0,0.0,0.0,0.0,0.0,0.0,0.0,0.0,0.0,0.0,0.0,0.0,0.0,0.0,0.0,0.0,0.0,0.0,0.0,0.0,0.0,0.0,0.0,0.0,0.0,0.0,0.0,0.0,0.0,0.0,0.0,0.0,0.0,0.0,0.0,0.0,0.0,0.0,0.0,0.0,0.0,0.0,0.0,0.0,0.0,0.0,0.0,0.0,0.0,0.0,0.0,0.0,0.0,0.0,0.0,0.0,0.0,0.0,0.0,0.0,0.0,0.0,0.0,0.0,0.0,0.0,0.0,0.0,0.0,0.0,0.0,0.0,0.0,0.0,0.0,0.0,0.0,0.0,0.0,0.0,0.0,0.0,0.0,0.0,0.0,0.0,0.0,0.0,0.0,0.0,0.0,0.0,0.0,0.0,0.0,0.0,0.0,0.0,0.0,0.0,0.0,0.0,0.0,0.0,0.0,0.0,0.0,0.0,0.0,0.0,0.0,0.0,0.0,0.0,0.0,0.0,0.0,0.0,0.0,0.0,0.0,0.0,0.0,0.0,0.0,0.0,0.0,0.0,0.0,0.0,0.0,0.0,0.0,0.0,0.0,0.0,0.0,0.0,0.0,0.0,0.0,0.0,0.0,0.0,0.0,0.0,0.0,0.0,0.0,0.0,0.0,0.0,0.0,0.0,0.0,0.0,0.0,0.0,0.0,0.0,0.0,0.0,0.0,0.0,0.0,0.0,0.0,0.0,0.0,0.0,0.0,0.0,0.0,0.0,0.0,0.0,0.0,0.0,0.0,0.0,0.0,0.0,0.0,0.0,0.0,0.0,0.0,0.0,0.0,0.0,0.0,0.0,0.0,0.0,0.0,0.0,0.0,0.0,0.0,0.0,0.0,0.0,0.0,0.0,0.0,0.0,0.0,0.0,0.0,0.0,0.0,0.0,0.0,0.0,0.0,0.0,0.0,0.0,0.0,0.0,0.0,0.0,0.0,0.0,0.0,0.0,0.0,0.0,0.0,0.0,0.0,0.0,0.0,0.0,0.0,0.0,0.0,0.0,0.0,0.0,0.0,0.0,0.0,0.0,0.0,0.0,0.0,0.0,0.0,0.0,0.0,0.0,0.0,0.0,0.0,0.0,0.0,0.0,0.0,0.0,0.0,0.0,0.0,0.0,0.0,0.0,0.0,0.0,0.0,0.0,0.0,0.0,0.0,0.0,0.0,0.0,0.0,0.0,0.0,0.0,0.0,0.0,0.0,0.0,0.0,0.0,0.0,0.0,0.0,0.0,0.0,0.0,0.0,0.0,0.0,0.0,0.0,0.0,0.0,0.0,0.0,0.0,0.0,0.0,0.0,0.0,0.0,0.0,0.0,0.0,0.0,0.0,0.0,0.0,0.0,0.0,0.0,0.0,0.0,0.0,0.0,0.0,0.0,0.0,0.0,0.0,0.0,0.0,0.0,0.0,0.0,0.0,0.0,0.0,0.0,0.0,0.0,0.0,0.0,0.0,0.0,0.0,0.0,0.0,0.0,0.0,0.0,0.0,0.0,0.0,0.0,0.0,0.0,0.0,0.0,0.0,0.0,0.0,0.0,0.0,0.0,0.0,0.0,0.0,0.0,0.0,0.0,0.0,0.0,0.0,0.0,0.0,0.0,0.0,0.0,0.0,0.0,0.0,0.0,0.0,0.0,0.0,0.0,0.0,0.0,0.0,0.0,0.0,0.0,0.0,0.0,0.0,0.0,0.0,0.0,0.0,0.0,0.0,0.0,0.0,0.0,0.0,0.0,0.0,0.0,0.0,0.0,0.0,0.0,0.0,0.0,0.0,0.0,0.0,0.0,0.0,0.0,0.0,0.0,0.0,0.0,0.0,0.0,0.0,0.0,0.0,0.0,0.0,0.0,0.0,0.0,0.0,0.0,0.0,0.0,0.0,0.0,0.0,0.0,0.0,0.0,0.0,0.0,0.0,0.0,0.0,0.0,0.0,0.0,0.0,0.0,0.0,0.0,0.0,0.0,0.0,0.0,0.0,0.0,0.0,0.0,0.0,0.0,0.0,0.0,0.0,0.0,0.0,0.0,0.0,0.0,0.0,0.0,0.0,0.0,0.0,0.0,0.0,0.0,0.0,0.0,0.0,0.0,0.0,0.0,0.0,0.0,0.0,0.0,0.0,0.0,0.0,0.0,0.0,0.0,0.0,0.0,0.0,0.0,0.0,0.0,0.0,0.0,0.0,0.0,0.0,0.0,0.0,0.0,0.0,0.0,0.0,0.0,0.0,0.0,0.0,0.0,0.0,0.0,0.0,0.0,0.0,0.0,0.0,0.0,0.0,0.0,0.0,0.0,0.0,0.0,0.0,0.0,0.0,0.0,0.0,0.0,0.0,0.0,0.0,0.0,0.0,0.0,0.0,0.0,0.0,0.0,0.0,0.0,0.0,0.0,0.0,0.0,0.0,0.0,0.0,0.0,0.0,0.0,0.0,0.0,0.0,0.0,0.0,0.0,0.0,0.0,0.0,0.0,0.0,0.0,0.0,0.0,0.0,0.0,0.0,0.0,0.0,0.0,0.0,0.0,0.0,0.0,0.0,0.0,0.0,0.0,0.0,0.0,0.0,0.0,0.0,0.0,0.0,0.0,0.0,0.0,0.0,0.0,0.0,0.0,0.0,0.0,0.0,0.0,0.0,0.0,0.0,0.0,0.0,0.0,0.0,0.0,0.0,0.0,0.0,0.0,0.0,0.0,0.0,0.0,0.0,0.0,0.0,0.0,0.0,0.0,0.0,0.0,0.0,0.0,0.0,0.0,0.0,0.0,0.0,0.0,0.0,0.0,0.0,0.0,0.0,0.0,0.0,0.0,0.0,0.0,0.0,0.0,0.0,0.0,0.0,0.0,0.0,0.0,0.0,0.0,0.0,0.0,0.0,0.0,0.0,0.0,0.0,0.0,0.0,0.0,0.0,0.0,0.0,0.0,0.0,0.0,0.0,0.0,0.0,0.0,0.0,0.0,0.0,0.0,0.0,0.0,0.0,0.0,0.0,0.0,0.0,0.0,0.0,0.0,0.0,0.0,0.0,0.0,0.0,0.0,0.0,0.0,0.0,0.0,0.0,0.0,0.0,0.0,0.0,0.0,0.0,0.0,0.0,0.0,0.0,0.0,0.0,0.0,0.0,0.0,0.0,0.0,0.0,0.0,0.0,0.0,0.0,0.0,0.0,0.0,0.0,0.0,0.0,0.0,0.0,0.0,0.0,0.0,0.0,0.0,0.0,0.0,0.0,0.0,0.0,0.0,0.0,0.0,0.0,0.0,0.0,0.0,0.0,0.0,0.0,0.0,0.0,0.0,0.0,0.0,0.0,0.0,0.0,0.0,0.0,0.0,0.0,0.0,0.0,0.0,0.0,0.0,0.0,0.0,0.0,0.0,0.0,0.0,0.0,0.0,0.0,0.0,0.0,0.0,0.0,0.0,0.0,0.0,0.0,0.0,0.0,0.0,0.0,0.0,0.0,0.0,0.0,0.0,0.0,0.0,0.0,0.0,0.0,0.0,0.0,0.0,0.0,0.0,0.0,0.0,0.0,0.0,0.0,0.0,0.0,0.0,0.0,0.0,0.0,0.0,0.0,0.0,0.0,0.0,0.0,0.0,0.0,0.0,0.0,0.0,0.0,0.0,0.0,0.0,0.0,0.0,0.0,0.0,0.0,0.0,0.0,0.0,0.0,0.0,0.0,0.0,0.0,0.0,0.0,0.0,0.0,0.0,0.0,0.0,0.0,0.0,0.0,0.0,0.0,0.0,0.0,0.0,0.0,0.0,0.0,0.0,0.0,0.0,0.0,0.0,0.0,0.0,0.0,0.0,0.0,0.0,0.0,0.0,0.0,0.0,0.0,0.0,0.0,0.0,0.0,0.0,0.0,0.0,0.0,0.0,0.0,0.0,0.0,0.0,0.0,0.0,0.0,0.0,0.0,-2.607,0.0,0.0,0.0,-3.0115,0.0,0.0,0.0,0.0,0.0,0.0,0.0,0.0,0.0,0.0,0.0,0.0,0.0,0.0,0.0,0.0,0.0,0.0,0.0,0.0,0.0,0.0,0.0,0.0,0.0,0.0,0.0,0.0,0.0,0.0,0.0,0.0,0.0,0.0,0.0,0.0,0.0,0.0,0.0,0.0,0.0,0.0,0.0,0.0,0.0,0.0,0.0,0.0,0.0,0.0,0.0,0.0,0.0,0.0,0.0,0.0,0.0,0.0,0.0,0.0,0.0,0.0,0.0,0.0,0.0,0.0,0.0,0.0,0.0,0.0,0.0,0.0,0.0,0.0,0.0,0.0,0.0,0.0,0.0,0.0,0.0,0.0,0.0,0.0,0.0,0.0,0.0,0.0,0.0,0.0,0.0,0.0,0.0,0.0,0.0,0.0,0.0,0.0,0.0,0.0,0.0,0.0,0.0,0.0,0.0,0.0,0.0,0.0,0.0,0.0,-2.612,-2.767,-2.9266,-3.0196,-3.0294,0.0,0.0,0.0,0.0,0.0,0.0,0.0,0.0,0.0,0.0,0.0,0.0,0.0,0.0,0.0,0.0,0.0,0.0,0.0,0.0,0.0,0.0,0.0,0.0,0.0,0.0,0.0,0.0,0.0,0.0,0.0,0.0,0.0,0.0,0.0,0.0,0.0,0.0,0.0,0.0,0.0,0.0,0.0,0.0,0.0,0.0,0.0,0.0,0.0,0.0,0.0,0.0,0.0,0.0,0.0,0.0,0.0,0.0,0.0,0.0,0.0,0.0,0.0,0.0,0.0,0.0,0.0,0.0,0.0,0.0,0.0,0.0,0.0,0.0,0.0,0.0,0.0,0.0,0.0,0.0,0.0,0.0,0.0,0.0,0.0,0.0,0.0,0.0,0.0,0.0,0.0,0.0,0.0,0.0,0.0,0.0,0.0,0.0,0.0,0.0,0.0,0.0,0.0,0.0,0.0,0.0,0.0,0.0,0.0,0.0,0.0,0.0,-3.061,-3.1668,-3.109,0.0,0.0,0.0,0.0,0.0,0.0,0.0,0.0,0.0,0.0,0.0,0.0,0.0,0.0,0.0,0.0,0.0,0.0,0.0,0.0,0.0,0.0,0.0,0.0,0.0,0.0,0.0,0.0,0.0,0.0,0.0,0.0,0.0,0.0,0.0,0.0,0.0,0.0,0.0,0.0,0.0,0.0,0.0,0.0,0.0,0.0,0.0,0.0,0.0,0.0,0.0,0.0,0.0,0.0,0.0,0.0,0.0,0.0,0.0,0.0,0.0,0.0,0.0,0.0,0.0,0.0,0.0,0.0,0.0,0.0,0.0,0.0,0.0,0.0,0.0,0.0,0.0,0.0,0.0,0.0,0.0,0.0,0.0,0.0,0.0,0.0,0.0,0.0,0.0,0.0,0.0,0.0,0.0,0.0,0.0,0.0,0.0,0.0,0.0,0.0,0.0,0.0,0.0,0.0,0.0,0.0,0.0,0.0,0.0,0.0,-2.6249,-2.9171,-3.3022,0.0,-3.3362,0.0,0.0,0.0,0.0,0.0,0.0,0.0,0.0,0.0,0.0,0.0,0.0,0.0,0.0,0.0,0.0,0.0,0.0,0.0,0.0,0.0,0.0,0.0,0.0,0.0,0.0,0.0,0.0,0.0,0.0,0.0,0.0,0.0,0.0,0.0,0.0,0.0,0.0,0.0,0.0,0.0,0.0,0.0,0.0,0.0,0.0,0.0,0.0,0.0,0.0,0.0,0.0,0.0,0.0,0.0,0.0,0.0,0.0,0.0,0.0,0.0,0.0,0.0,0.0,0.0,0.0,0.0,0.0,0.0,0.0,0.0,0.0,0.0,0.0,0.0,0.0,0.0,0.0,0.0,0.0,0.0,0.0,0.0,0.0,0.0,0.0,0.0,0.0,0.0,0.0,0.0,0.0,0.0,0.0,0.0,0.0,0.0,0.0,0.0,0.0,0.0,0.0,0.0,0.0,0.0,0.0,0.0,0.0,0.0,0.0,-2.8058,-3.0841,-3.3521,-3.4256,0.0,0.0,0.0,0.0,0.0,0.0,0.0,0.0,0.0,0.0,0.0,0.0,0.0,0.0,0.0,0.0,0.0,0.0,0.0,0.0,0.0,0.0,0.0,0.0,0.0,0.0,0.0,0.0,0.0,0.0,0.0,0.0,0.0,0.0,0.0,0.0,0.0,0.0,0.0,0.0,0.0,0.0,0.0,0.0,0.0,0.0,0.0,0.0,0.0,0.0,0.0,0.0,0.0,0.0,0.0,0.0,0.0,0.0,0.0,0.0,0.0,0.0,0.0,0.0,0.0,0.0,0.0,0.0,0.0,0.0,0.0,0.0,0.0,0.0,0.0,0.0,0.0,0.0,0.0,0.0,0.0,0.0,0.0,0.0,0.0,0.0,0.0,0.0,0.0,0.0,0.0,0.0,0.0,0.0,0.0,0.0,0.0,0.0,0.0,0.0,0.0,0.0,0.0,0.0,0.0,0.0,0.0,0.0,0.0,0.0,-2.7022,-2.9483,-3.3185,-3.4068,-3.3925,-3.2826,0.0,0.0,0.0,0.0,0.0,0.0,0.0,0.0,0.0,0.0,0.0,0.0,0.0,0.0,0.0,0.0,0.0,0.0,0.0,0.0,0.0,0.0,0.0,0.0,0.0,0.0,0.0,0.0,0.0,0.0,0.0,0.0,0.0,0.0,0.0,0.0,0.0,0.0,0.0,0.0,0.0,0.0,0.0,0.0,0.0,0.0,0.0,0.0,0.0,0.0,0.0,0.0,0.0,0.0,0.0,0.0,0.0,0.0,0.0,0.0,0.0,0.0,0.0,0.0,0.0,0.0,0.0,0.0,0.0,0.0,0.0,0.0,0.0,0.0,0.0,0.0,0.0,0.0,0.0,0.0,0.0,0.0,0.0,0.0,0.0,0.0,0.0,0.0,0.0,0.0,0.0,0.0,0.0,0.0,0.0,0.0,0.0,0.0,0.0,0.0,0.0,0.0,0.0,0.0,0.0,0.0,0.0,0.0,-2.8449,-2.7383,-3.0002,-3.6735,-3.5299,-3.3966,0.0,0.0,0.0,0.0,0.0,0.0,0.0,0.0,0.0,0.0,0.0,0.0,0.0,0.0,0.0,0.0,0.0,0.0,0.0,0.0,0.0,0.0,0.0,0.0,0.0,0.0,0.0,0.0,0.0,0.0,0.0,0.0,0.0,0.0,0.0,0.0,0.0,0.0,0.0,0.0,0.0,0.0,0.0,0.0,0.0,0.0,0.0,0.0,0.0,0.0,0.0,0.0,0.0,0.0,0.0,0.0,0.0,0.0,0.0,0.0,0.0,0.0,0.0,0.0,0.0,0.0,0.0,0.0,0.0,0.0,0.0,0.0,0.0,0.0,0.0,0.0,0.0,0.0,0.0,0.0,0.0,0.0,0.0,0.0,0.0,0.0,0.0,0.0,0.0,0.0,0.0,0.0,0.0,0.0,0.0,0.0,0.0,0.0,0.0,0.0,0.0,0.0,0.0,0.0,0.0,0.0,0.0,0.0,0.0,-2.6766,-2.8872,-3.2282,-3.7025,-3.5419,-3.4515,0.0,0.0,0.0,0.0,0.0,0.0,0.0,0.0,0.0,0.0,0.0,0.0,0.0,0.0,0.0,0.0,0.0,0.0,0.0,0.0,0.0,0.0,0.0,0.0,0.0,0.0,0.0,0.0,0.0,0.0,0.0,0.0,0.0,0.0,0.0,0.0,0.0,0.0,0.0,0.0,0.0,0.0,0.0,0.0,0.0,0.0,0.0,0.0,0.0,0.0,0.0,0.0,0.0,0.0,0.0,0.0,0.0,0.0,0.0,0.0,0.0,0.0,0.0,0.0,0.0,0.0,0.0,0.0,0.0,0.0,0.0,0.0,0.0,0.0,0.0,0.0,0.0,0.0,0.0,0.0,0.0,0.0,0.0,0.0,0.0,0.0,0.0,0.0,0.0,0.0,0.0,0.0,0.0,0.0,0.0,0.0,0.0,0.0,0.0,0.0,0.0,0.0,0.0,0.0,0.0,0.0,0.0,0.0,0.0,-2.6021,-3.0839,-3.4148,-3.5355,-3.528,-3.4949,0.0,0.0,0.0,0.0,0.0,0.0,0.0,0.0,0.0,0.0,0.0,0.0,0.0,0.0,0.0,0.0,0.0,0.0,0.0,0.0,0.0,0.0,0.0,0.0,0.0,0.0,0.0,0.0,0.0,0.0,0.0,0.0,0.0,0.0,0.0,0.0,0.0,0.0,0.0,0.0,0.0,0.0,0.0,0.0,0.0,0.0,0.0,0.0,0.0,0.0,0.0,0.0,0.0,0.0,0.0,0.0,0.0,0.0,0.0,0.0,0.0,0.0,0.0,0.0,0.0,0.0,0.0,0.0,0.0,0.0,0.0,0.0,0.0,0.0,0.0,0.0,0.0,0.0,0.0,0.0,0.0,0.0,0.0,0.0,0.0,0.0,0.0,0.0,0.0,0.0,0.0,0.0,0.0,0.0,0.0,0.0,0.0,0.0,0.0,0.0,0.0,0.0,0.0,0.0,0.0,0.0,0.0,0.0,-2.6022,-2.6768,-3.3258,-3.5129,-3.1889,-3.4843,-3.5259,0.0,0.0,0.0,0.0,0.0,0.0,0.0,0.0,0.0,0.0,0.0,0.0,0.0,0.0,0.0,0.0,0.0,0.0,0.0,0.0,0.0,0.0,0.0,0.0,0.0,0.0,0.0,0.0,0.0,0.0,0.0,0.0,0.0,0.0,0.0,0.0,0.0,0.0,0.0,0.0,0.0,0.0,0.0,0.0,0.0,0.0,0.0,0.0,0.0,0.0,0.0,0.0,0.0,0.0,0.0,0.0,0.0,0.0,0.0,0.0,0.0,0.0,0.0,0.0,0.0,0.0,0.0,0.0,0.0,0.0,0.0,0.0,0.0,0.0,0.0,0.0,0.0,0.0,0.0,0.0,0.0,0.0,0.0,0.0,0.0,0.0,0.0,0.0,0.0,0.0,0.0,0.0,0.0,0.0,0.0,0.0,0.0,0.0,0.0,0.0,0.0,0.0,0.0,0.0,0.0,0.0,0.0,0.0,0.0,-3.039,-3.4258,-3.6688,-3.7354,-3.6852,-3.6763,0.0,0.0,0.0,0.0,0.0,0.0,0.0,0.0,0.0,0.0,0.0,0.0,0.0,0.0,0.0,0.0,0.0,0.0,0.0,0.0,0.0,0.0,0.0,0.0,0.0,0.0,0.0,0.0,0.0,0.0,0.0,0.0,0.0,0.0,0.0,0.0,0.0,0.0,0.0,0.0,0.0,0.0,0.0,0.0,0.0,0.0,0.0,0.0,0.0,0.0,0.0,0.0,0.0,0.0,0.0,0.0,0.0,0.0,0.0,0.0,0.0,0.0,0.0,0.0,0.0,0.0,0.0,0.0,0.0,0.0,0.0,0.0,0.0,0.0,0.0,0.0,0.0,0.0,0.0,0.0,0.0,0.0,0.0,0.0,0.0,0.0,0.0,0.0,0.0,0.0,0.0,0.0,0.0,0.0,0.0,0.0,0.0,0.0,0.0,0.0,0.0,0.0,0.0,0.0,0.0,0.0,0.0,0.0,0.0,-3.5648,-3.8282,-4.0872,-4.3195,-4.0539,-3.8943,-3.8631,0.0,0.0,0.0,0.0,0.0,0.0,0.0,0.0,0.0,0.0,0.0,0.0,0.0,0.0,0.0,0.0,0.0,0.0,0.0,0.0,0.0,0.0,0.0,0.0,0.0,0.0,0.0,0.0,0.0,0.0,0.0,0.0,0.0,0.0,0.0,0.0,0.0,0.0,0.0,0.0,0.0,0.0,0.0,0.0,0.0,0.0,0.0,0.0,0.0,0.0,0.0,0.0,0.0,0.0,0.0,0.0,0.0,0.0,0.0,0.0,0.0,0.0,0.0,0.0,0.0,0.0,0.0,0.0,0.0,0.0,0.0,0.0,0.0,0.0,0.0,0.0,0.0,0.0,0.0,0.0,0.0,0.0,0.0,0.0,0.0,0.0,0.0,0.0,0.0,0.0,0.0,0.0,0.0,0.0,0.0,0.0,0.0,0.0,0.0,0.0,0.0,0.0,0.0,0.0,0.0,0.0,0.0,0.0,-4.2058,-4.4824,-4.7059,-4.8635,-4.5374,-4.1762,0.0,0.0,0.0,0.0,0.0,0.0,0.0,0.0,0.0,0.0,0.0,0.0,0.0,0.0,0.0,0.0,0.0,0.0,0.0,0.0,0.0,0.0,0.0,0.0,0.0,0.0,0.0,0.0,0.0,0.0,0.0,0.0,0.0,0.0,0.0,0.0,0.0,0.0,0.0,0.0,0.0,0.0,0.0,0.0,0.0,0.0,0.0,0.0,0.0,0.0,0.0,0.0,0.0,0.0,0.0,0.0,0.0,0.0,0.0,0.0,0.0,0.0,0.0,0.0,0.0,0.0,0.0,0.0,0.0,0.0,0.0,0.0,0.0,0.0,0.0,0.0,0.0,0.0,0.0,0.0,0.0,0.0,0.0,0.0,0.0,0.0,0.0,0.0,0.0,0.0,0.0,0.0,0.0,0.0,0.0,0.0,0.0,0.0,0.0,0.0,0.0,0.0,0.0,0.0,0.0,0.0,0.0,0.0,0.0,-4.8415,-5.3156,-5.4122,-5.1081,-4.7464,-4.4822,0.0,0.0,0.0,0.0,0.0,0.0,0.0,0.0,0.0,0.0,0.0,0.0,0.0,0.0,0.0,0.0,0.0,0.0,0.0,0.0,0.0,0.0,0.0,0.0,0.0,0.0,0.0,0.0,0.0,0.0,0.0,0.0,0.0,0.0,0.0,0.0,0.0,0.0,0.0,0.0,0.0,0.0,0.0,0.0,0.0,0.0,0.0,0.0,0.0,0.0,0.0,0.0,0.0,0.0,0.0,0.0,0.0,0.0,0.0,0.0,0.0,0.0,0.0,0.0,0.0,0.0,0.0,0.0,0.0,0.0,0.0,0.0,0.0,0.0,0.0,0.0,0.0,0.0,0.0,0.0,0.0,0.0,0.0,0.0,0.0,0.0,0.0,0.0,0.0,0.0,0.0,0.0,0.0,0.0,0.0,0.0,0.0,0.0,0.0,0.0,0.0,0.0,0.0,0.0,0.0,0.0,0.0,0.0,-4.654,-5.1815,-5.8813,-6.0996,-5.7862,-5.2197,-4.7967,0.0,0.0,0.0,0.0,0.0,0.0,0.0,0.0,0.0,0.0,0.0,0.0,0.0,0.0,0.0,0.0,0.0,0.0,0.0,0.0,0.0,0.0,0.0,0.0,0.0,0.0,0.0,0.0,0.0,0.0,0.0,0.0,0.0,0.0,0.0,0.0,0.0,0.0,0.0,0.0,0.0,0.0,0.0,0.0,0.0,0.0,0.0,0.0,0.0,0.0,0.0,0.0,0.0,0.0,0.0,0.0,0.0,0.0,0.0,0.0,0.0,0.0,0.0,0.0,0.0,0.0,0.0,0.0,0.0,0.0,0.0,0.0,0.0,0.0,0.0,0.0,0.0,0.0,0.0,0.0,0.0,0.0,0.0,0.0,0.0,0.0,0.0,0.0,0.0,0.0,0.0,0.0,0.0,0.0,0.0,0.0,0.0,0.0,0.0,0.0,0.0,0.0,0.0,0.0,0.0,0.0,0.0,0.0,-5.0558,-5.412,-6.2702,-6.6939,-6.6011,-5.7872,-5.105,0.0,0.0,0.0,0.0,0.0,0.0,0.0,0.0,0.0,0.0,0.0,0.0,0.0,0.0,0.0,0.0,0.0,0.0,0.0,0.0,0.0,0.0,0.0,0.0,0.0,0.0,0.0,0.0,0.0,0.0,0.0,0.0,0.0,0.0,0.0,0.0,0.0,0.0,0.0,0.0,0.0,0.0,0.0,0.0,0.0,0.0,0.0,0.0,0.0,0.0,0.0,0.0,0.0,0.0,0.0,0.0,0.0,0.0,0.0,0.0,0.0,0.0,0.0,0.0,0.0,0.0,0.0,0.0,0.0,0.0,0.0,0.0,0.0,0.0,0.0,0.0,0.0,0.0,0.0,0.0,0.0,0.0,0.0,0.0,0.0,0.0,0.0,0.0,0.0,0.0,0.0,0.0,0.0,0.0,0.0,0.0,0.0,0.0,0.0,0.0,0.0,0.0,0.0,0.0,0.0,0.0,0.0,0.0,-5.4369,-5.9506,-6.5932,-6.8764,-6.7567,-5.9249,-5.3264,0.0,0.0,0.0,0.0,0.0,0.0,0.0,0.0,0.0,0.0,0.0,0.0,0.0,0.0,0.0,0.0,0.0,0.0,0.0,0.0,0.0,0.0,0.0,0.0,0.0,0.0,0.0,0.0,0.0,0.0,0.0,0.0,0.0,0.0,0.0,0.0,0.0,0.0,0.0,0.0,0.0,0.0,0.0,0.0,0.0,0.0,0.0,0.0,-6.13,0.0,0.0,0.0,0.0,0.0,0.0,0.0,0.0,0.0,0.0,0.0,0.0,0.0,0.0,0.0,0.0,0.0,0.0,0.0,0.0,0.0,0.0,0.0,0.0,0.0,0.0,0.0,0.0,0.0,0.0,0.0,0.0,0.0,0.0,0.0,0.0,0.0,0.0,0.0,0.0,0.0,0.0,0.0,0.0,0.0,0.0,0.0,0.0,0.0,0.0,0.0,0.0,0.0,0.0,0.0,0.0,0.0,0.0,0.0,-5.5394,-6.1488,-6.6767,-6.9183,-6.8286,-6.2839,-5.7244,0.0,0.0,0.0,0.0,0.0,0.0,0.0,0.0,0.0,0.0,0.0,0.0,0.0,0.0,0.0,0.0,0.0,0.0,0.0,0.0,0.0,0.0,0.0,0.0,0.0,0.0,0.0,0.0,0.0,0.0,0.0,0.0,0.0,0.0,0.0,0.0,0.0,0.0,0.0,0.0,0.0,0.0,0.0,0.0,0.0,0.0,0.0,0.0,0.0,0.0,0.0,0.0,0.0,0.0,0.0,0.0,0.0,0.0,0.0,0.0,0.0,0.0,0.0,0.0,0.0,0.0,0.0,0.0,0.0,0.0,0.0,0.0,0.0,0.0,0.0,0.0,0.0,0.0,0.0,0.0,0.0,0.0,0.0,0.0,0.0,0.0,0.0,0.0,0.0,0.0,0.0,0.0,0.0,0.0,0.0,0.0,0.0,0.0,0.0,0.0,0.0,0.0,0.0,0.0,0.0,0.0,0.0,-4.9225,-5.5936,-6.3281,-6.7575,-6.9662,-6.9423,-6.6879,-6.1493,-5.3144,0.0,0.0,0.0,0.0,0.0,0.0,0.0,0.0,0.0,0.0,0.0,0.0,0.0,0.0,0.0,0.0,0.0,0.0,0.0,0.0,0.0,0.0,0.0,0.0,0.0,0.0,0.0,0.0,0.0,0.0,0.0,0.0,0.0,0.0,0.0,0.0,0.0,0.0,-5.3207,-5.8094,0.0,0.0,0.0,0.0,0.0,0.0,0.0,0.0,-6.449,0.0,0.0,0.0,0.0,0.0,0.0,0.0,0.0,0.0,0.0,0.0,0.0,0.0,0.0,0.0,0.0,0.0,0.0,0.0,0.0,0.0,0.0,0.0,0.0,0.0,0.0,0.0,0.0,0.0,0.0,0.0,0.0,0.0,0.0,0.0,0.0,0.0,0.0,0.0,0.0,0.0,0.0,0.0,0.0,0.0,0.0,0.0,0.0,0.0,0.0,0.0,0.0,0.0,0.0,0.0,0.0,-5.078,-5.319,-5.9215,-6.9129,-7.1804,-7.2565,-7.1398,-6.8854,-6.3737,-5.5897,0.0,0.0,0.0,0.0,0.0,0.0,0.0,0.0,0.0,0.0,0.0,0.0,0.0,0.0,0.0,0.0,0.0,0.0,0.0,0.0,0.0,0.0,0.0,0.0,0.0,0.0,0.0,0.0,0.0,0.0,0.0,0.0,0.0,0.0,0.0,0.0,0.0,0.0,0.0,-6.5068,-6.5934,0.0,0.0,0.0,0.0,0.0,0.0,0.0,0.0,-6.5226,0.0,0.0,0.0,0.0,0.0,0.0,0.0,0.0,0.0,0.0,0.0,0.0,0.0,0.0,0.0,0.0,0.0,0.0,0.0,0.0,0.0,0.0,0.0,0.0,0.0,0.0,0.0,0.0,0.0,0.0,0.0,0.0,0.0,0.0,0.0,0.0,0.0,0.0,0.0,0.0,0.0,0.0,0.0,0.0,0.0,0.0,0.0,0.0,0.0,0.0,0.0,0.0,0.0,0.0,0.0,-5.1661,-5.7654,-6.4326,-7.1595,-7.3223,-7.3432,-7.2385,-6.9542,-6.4096,0.0,0.0,0.0,0.0,0.0,0.0,0.0,0.0,0.0,0.0,0.0,0.0,0.0,0.0,0.0,0.0,0.0,0.0,0.0,0.0,0.0,0.0,0.0,0.0,0.0,0.0,0.0,0.0,0.0,0.0,0.0,0.0,0.0,0.0,0.0,0.0,0.0,0.0,0.0,0.0,-6.6274,-6.8034,-6.9631,0.0,0.0,0.0,0.0,0.0,0.0,-6.8425,-6.6593,0.0,0.0,0.0,0.0,0.0,0.0,0.0,0.0,0.0,0.0,0.0,0.0,0.0,0.0,0.0,0.0,0.0,0.0,0.0,0.0,0.0,0.0,0.0,0.0,0.0,0.0,0.0,0.0,0.0,0.0,0.0,0.0,0.0,0.0,0.0,0.0,0.0,0.0,0.0,0.0,0.0,0.0,0.0,0.0,0.0,0.0,0.0,0.0,0.0,0.0,0.0,0.0,0.0,0.0,0.0,-5.1754,-6.1102,-6.8324,-7.3133,-7.3971,-7.3911,-7.3073,-6.9393,-6.3617,0.0,0.0,0.0,0.0,0.0,0.0,0.0,0.0,0.0,0.0,0.0,0.0,0.0,0.0,0.0,0.0,0.0,0.0,0.0,0.0,0.0,0.0,0.0,0.0,0.0,0.0,0.0,0.0,0.0,0.0,0.0,0.0,0.0,0.0,0.0,0.0,0.0,0.0,0.0,0.0,0.0,-6.9867,-7.1352,-6.9791,0.0,0.0,0.0,0.0,-7.144,-7.0201,0.0,0.0,0.0,0.0,0.0,0.0,0.0,0.0,0.0,0.0,0.0,0.0,0.0,0.0,0.0,0.0,0.0,0.0,0.0,0.0,0.0,0.0,0.0,0.0,0.0,0.0,0.0,0.0,0.0,0.0,0.0,0.0,0.0,0.0,0.0,0.0,0.0,0.0,0.0,0.0,0.0,0.0,0.0,0.0,0.0,0.0,0.0,0.0,0.0,0.0,0.0,0.0,0.0,0.0,0.0,0.0,-5.3058,-6.1371,-6.8584,-7.439,-7.5318,-7.5078,-7.3762,-6.8315,-6.245,0.0,0.0,0.0,0.0,0.0,0.0,0.0,0.0,0.0,0.0,0.0,0.0,0.0,0.0,0.0,0.0,0.0,0.0,0.0,0.0,0.0,0.0,0.0,0.0,0.0,0.0,0.0,0.0,0.0,0.0,0.0,0.0,0.0,0.0,0.0,0.0,0.0,0.0,0.0,0.0,0.0,-7.2548,-7.2437,-7.0649,-6.9764,0.0,0.0,-7.0755,-7.3886,-7.4564,0.0,0.0,0.0,0.0,0.0,0.0,0.0,0.0,0.0,0.0,0.0,0.0,0.0,0.0,0.0,0.0,0.0,0.0,0.0,0.0,0.0,0.0,0.0,0.0,0.0,0.0,0.0,0.0,0.0,0.0,0.0,0.0,0.0,0.0,0.0,0.0,0.0,0.0,0.0,0.0,0.0,0.0,0.0,0.0,0.0,0.0,0.0,0.0,0.0,0.0,0.0,0.0,0.0,0.0,0.0,-4.8974,-5.3542,-6.5639,-7.3087,-7.5377,-7.6096,-7.6006,-7.5048,-6.9273,-6.3019,0.0,0.0,0.0,0.0,0.0,0.0,0.0,0.0,0.0,0.0,0.0,0.0,0.0,0.0,0.0,0.0,0.0,0.0,0.0,0.0,0.0,0.0,0.0,0.0,0.0,0.0,0.0,0.0,0.0,0.0,0.0,0.0,0.0,0.0,0.0,0.0,0.0,0.0,0.0,0.0,0.0,0.0,-7.4821,-7.3147,0.0,0.0,0.0,-7.1913,-7.3485,0.0,0.0,0.0,0.0,0.0,0.0,0.0,0.0,0.0,0.0,0.0,0.0,0.0,0.0,0.0,0.0,0.0,0.0,0.0,0.0,0.0,0.0,0.0,0.0,0.0,0.0,0.0,0.0,0.0,0.0,0.0,0.0,0.0,0.0,0.0,0.0,0.0,0.0,0.0,0.0,0.0,0.0,0.0,0.0,0.0,0.0,0.0,0.0,0.0,0.0,0.0,0.0,0.0,0.0,0.0,0.0,0.0,-5.4027,-6.9618,-7.7442,-7.6694,-7.7083,-7.6933,-7.6066,-7.0979,0.0,0.0,0.0,0.0,0.0,0.0,0.0,0.0,0.0,0.0,0.0,0.0,0.0,0.0,0.0,0.0,0.0,0.0,0.0,0.0,0.0,0.0,0.0,0.0,0.0,0.0,0.0,-4.3876,0.0,0.0,0.0,0.0,0.0,0.0,0.0,0.0,0.0,0.0,0.0,0.0,0.0,0.0,-7.3138,-7.5946,-7.4999,-7.4975,0.0,0.0,-7.3003,-7.403,-7.6226,-7.6417,0.0,0.0,0.0,0.0,0.0,0.0,0.0,0.0,0.0,0.0,0.0,0.0,0.0,0.0,0.0,0.0,0.0,0.0,0.0,0.0,0.0,0.0,0.0,0.0,0.0,0.0,0.0,0.0,-0.5306,0.0,0.0,0.0,0.0,0.0,0.0,0.0,0.0,0.0,0.0,0.0,0.0,0.0,0.0,0.0,0.0,0.0,0.0,0.0,0.0,0.0,0.0,0.0,0.0,0.0,-5.4047,-5.5736,-7.1833,-7.9866,-7.8639,-7.8639,-7.8071,-7.6754,-7.3373,-6.6729,0.0,0.0,0.0,0.0,0.0,0.0,0.0,0.0,0.0,0.0,0.0,0.0,0.0,0.0,0.0,0.0,0.0,0.0,0.0,0.0,0.0,0.0,0.0,0.0,0.0,0.0,0.0,0.0,0.0,0.0,0.0,0.0,0.0,0.0,0.0,0.0,0.0,0.0,0.0,0.0,0.0,-7.2225,-7.4458,-7.5236,-7.6589,0.0,-7.6313,-7.4416,-7.7188,-7.8952,-7.8101,-7.2458,0.0,0.0,0.0,0.0,0.0,0.0,0.0,0.0,0.0,0.0,0.0,0.0,0.0,0.0,0.0,0.0,0.0,0.0,0.0,0.0,0.0,0.0,0.0,0.0,0.0,-0.1944,-0.3756,0.0,-0.5432,0.0,0.0,0.0,0.0,0.0,0.0,0.0,0.0,0.0,0.0,0.0,0.0,0.0,0.0,0.0,0.0,0.0,0.0,0.0,0.0,0.0,0.0,0.0,0.0,-5.4623,-5.5909,-7.1863,-7.9746,-7.8849,-7.8789,-7.834,-7.7442,-7.4629,-6.9303,0.0,0.0,0.0,0.0,0.0,0.0,0.0,0.0,0.0,0.0,0.0,0.0,0.0,0.0,0.0,0.0,0.0,0.0,0.0,0.0,0.0,0.0,0.0,0.0,0.0,0.0,0.0,0.0,-5.7509,-5.8795,-5.6055,0.0,0.0,0.0,0.0,0.0,0.0,0.0,0.0,0.0,0.0,-7.4999,-7.7671,-7.8686,0.0,0.0,-7.9329,-7.8099,-7.948,-7.9685,-7.8542,-7.532,-7.369,0.0,0.0,0.0,0.0,0.0,0.0,0.0,0.0,0.0,0.0,0.0,0.0,0.0,0.0,0.0,0.0,0.0,0.0,0.0,0.0,0.0,0.0,0.0,0.0,0.0,0.0,0.0,0.0,0.0,0.0,0.0,0.0,0.0,0.0,0.0,0.0,0.0,0.0,0.0,0.0,0.0,0.0,0.0,0.0,0.0,0.0,0.0,0.0,0.0,0.0,0.0,0.0,-5.5251,-5.645,-7.2601,-8.0554,-7.9686,-7.9866,-7.9567,-7.8699,-7.6844,-7.2684,-6.5981,0.0,0.0,0.0,0.0,0.0,0.0,0.0,0.0,0.0,0.0,0.0,0.0,0.0,0.0,0.0,0.0,0.0,0.0,0.0,0.0,0.0,0.0,0.0,0.0,0.0,0.0,0.0,-6.0385,-6.1061,-5.7915,0.0,0.0,0.0,0.0,0.0,0.0,0.0,0.0,0.0,0.0,-7.757,-7.987,-8.0445,-8.075,-8.1054,-7.9431,-7.8337,-7.8784,-7.9017,-7.8485,-7.6553,0.0,0.0,0.0,0.0,0.0,0.0,0.0,0.0,0.0,0.0,0.0,0.0,0.0,0.0,0.0,0.0,0.0,0.0,0.0,0.0,0.0,0.0,0.0,0.0,0.0,0.0,0.0,-0.5386,0.0,0.0,-0.5707,0.0,0.0,0.0,0.0,0.0,0.0,0.0,0.0,0.0,0.0,0.0,0.0,0.0,0.0,0.0,0.0,0.0,0.0,0.0,0.0,0.0,0.0,-5.5908,-5.722,-7.4351,-8.2796,-8.1751,-8.232,-8.1961,-8.0734,-8.0257,-7.6792,-6.9961,0.0,0.0,0.0,0.0,0.0,0.0,0.0,0.0,0.0,0.0,0.0,0.0,0.0,0.0,0.0,0.0,0.0,0.0,0.0,0.0,0.0,0.0,0.0,0.0,0.0,0.0,-5.0202,-5.3957,-5.707,0.0,0.0,0.0,0.0,0.0,0.0,0.0,0.0,0.0,-7.0466,-7.5709,-7.9295,-8.0073,-7.9634,-7.9126,-7.845,-7.5811,-7.4052,-7.5026,-7.7034,-7.7663,0.0,0.0,0.0,0.0,0.0,0.0,0.0,0.0,0.0,0.0,0.0,0.0,0.0,0.0,0.0,0.0,0.0,0.0,0.0,0.0,0.0,0.0,0.0,0.0,0.0,0.0,0.0,-0.6445,-0.6676,0.0,0.0,0.0,0.0,0.0,0.0,0.0,0.0,0.0,0.0,0.0,-3.2747,-3.4776,0.0,0.0,0.0,0.0,0.0,0.0,0.0,0.0,0.0,0.0,0.0,0.0,-5.4688,-5.7058,-7.1428,-7.9467,-8.0143,-7.987,-8.0023,-8.0823,-8.0853,-7.7652,-7.0829,0.0,0.0,0.0,-4.7848,0.0,0.0,0.0,0.0,0.0,0.0,0.0,0.0,0.0,0.0,0.0,0.0,0.0,0.0,0.0,0.0,0.0,0.0,0.0,0.0,0.0,-5.6224,0.0,0.0,0.0,0.0,0.0,0.0,0.0,0.0,0.0,0.0,-6.5967,-7.0534,-7.4525,-7.6555,-7.845,-8.0615,-8.1156,-8.19,0.0,0.0,0.0,0.0,0.0,0.0,0.0,0.0,0.0,0.0,0.0,0.0,0.0,-8.1032,-8.0571,-7.3083,-7.1908,-7.2349,-7.312,0.0,0.0,0.0,0.0,0.0,0.0,0.0,0.0,0.0,0.0,0.0,0.0,0.0,0.0,-1.2074,-1.0852,-0.9702,0.0,0.0,0.0,0.0,0.0,0.0,0.0,0.0,-3.2797,-3.6642,-3.8897,-4.0588,-4.214,-4.3568,-4.2935,-3.8745,0.0,0.0,0.0,0.0,0.0,0.0,0.0,0.0,-5.4807,-5.7759,-7.0529,-7.7677,-7.8488,-7.9706,-8.0397,-8.0399,-8.1302,-7.9772,-7.5168,-7.0769,-6.6311,0.0,0.0,0.0,0.0,0.0,0.0,0.0,0.0,0.0,0.0,0.0,0.0,0.0,0.0,0.0,0.0,0.0,0.0,0.0,0.0,0.0,0.0,0.0,-5.7457,0.0,0.0,0.0,0.0,0.0,0.0,0.0,0.0,0.0,-6.5527,-7.0635,-7.5439,-7.8416,-7.9701,-8.0615,-8.119,0.0,0.0,0.0,0.0,0.0,0.0,0.0,-8.063,-8.1091,-8.1132,-8.0954,-8.042,-8.32,-8.5411,-8.4721,0.0,0.0,-7.9837,-7.8552,-7.8956,-7.9727,-8.0094,-8.0351,-8.0645,-8.1599,-8.237,0.0,0.0,0.0,0.0,-2.6691,0.0,0.0,0.0,-2.1382,-2.0054,0.0,-1.4682,0.0,0.0,0.0,0.0,-2.1474,-2.8588,0.0,0.0,-4.466,-4.8724,-4.6866,-4.6481,-4.7628,-4.9849,-4.7762,-4.6048,-4.5353,-5.1373,-4.8799,0.0,0.0,0.0,0.0,0.0,-5.6236,-5.9801,-7.1523,-7.7446,-7.695,-8.1574,-8.2598,-7.9791,-8.161,-8.2679,-8.2469,-7.6544,-7.2804,-7.1727,-5.9189,0.0,0.0,0.0,0.0,0.0,0.0,0.0,0.0,0.0,0.0,0.0,0.0,0.0,0.0,0.0,0.0,0.0,0.0,0.0,0.0,-5.2256,0.0,0.0,0.0,0.0,0.0,0.0,0.0,0.0,0.0,-7.3443,-7.0161,-7.4525,-7.9126,-8.1866,0.0,0.0,0.0,0.0,-8.2306,-7.9092,-7.7807,-7.7502,-7.7638,-8.1297,-8.4334,-8.4721,0.0,0.0,-8.5846,-8.7195,-8.7951,-8.4973,-8.8756,-9.1437,-8.9895,-8.7509,-8.6261,-8.6958,-8.6518,-8.6371,-8.7105,-8.8169,-8.9271,-0.7212,0.0,0.0,0.0,0.0,-2.6344,-2.7044,-2.308,-2.3612,-2.2216,-1.9352,-1.8517,0.0,0.0,0.0,0.0,0.0,0.0,-3.5335,-3.9608,-4.2933,-4.628,-5.0062,-5.0071,-5.1557,-5.4485,-5.5716,-5.6862,-5.8413,-6.2844,-5.6081,-3.8949,0.0,0.0,0.0,0.0,-5.7568,-6.2629,-6.9489,-7.3735,-7.5115,-7.4995,-7.7257,-8.1687,-8.2391,-8.2769,-8.2739,-8.0943,-7.7652,-7.2804,-6.8405,0.0,0.0,0.0,0.0,0.0,0.0,0.0,0.0,0.0,0.0,0.0,0.0,0.0,0.0,0.0,0.0,0.0,0.0,0.0,-5.7749,-6.5395,-6.8099,0.0,0.0,0.0,0.0,0.0,0.0,0.0,0.0,0.0,-7.8686,-7.9566,-8.0445,0.0,0.0,-8.0953,-7.987,-8.234,-8.4674,-8.5757,-8.5723,0.0,-8.7753,-8.7465,-8.757,-8.8776,-9.0845,-9.1953,-9.0883,-9.1815,-9.2716,-9.2588,-9.4316,-9.5695,-9.6091,-9.3896,-9.206,-9.2134,-9.2024,-9.1913,-9.217,-9.2611,-9.3051,-1.2301,-0.9318,-0.8714,-1.1729,-1.7359,-2.5026,-2.6947,-2.4876,-2.6757,-2.6401,-2.4474,-2.334,-2.2835,-2.2778,-2.3482,0.0,0.0,0.0,-3.9322,-4.5923,-4.6094,-4.8184,-5.1816,-5.1933,-5.2954,-5.4985,-5.859,-6.1223,-6.3084,-6.533,-6.028,-4.846,0.0,-4.7445,-4.8736,-5.5064,-6.0412,-6.463,-6.8899,-7.1667,-7.2785,-7.2128,-7.5544,-8.3157,-8.2408,-8.2421,-8.3517,-8.3517,-8.1691,-7.7741,-7.4689,-7.0021,0.0,0.0,0.0,0.0,0.0,0.0,0.0,0.0,0.0,0.0,0.0,-5.0357,-4.6717,0.0,0.0,0.0,-6.0569,-6.2732,-6.7438,-7.1571,0.0,0.0,0.0,0.0,0.0,0.0,0.0,-7.5879,-8.0987,-8.4674,-8.5384,-8.5351,-8.5182,-8.5046,-8.4945,-8.464,-8.4031,0.0,-8.8598,-8.9782,-8.9715,-9.0087,-9.1677,-9.133,-9.1405,-9.281,-9.3597,-9.4018,-9.3889,-9.4158,-9.4669,-9.5611,-9.6557,-9.7535,-9.8833,-9.7493,-9.6208,-9.6208,-9.6208,-9.6208,-9.6208,-9.6171,-9.6355,-1.419,-1.4634,-1.4977,-1.6792,-1.9732,-2.3785,-2.5602,-2.6269,-3.0155,-3.1583,-3.1089,-2.8787,-2.7845,-2.7864,-2.5918,0.0,-3.7611,-3.9109,-4.4321,-5.2129,-5.2539,-5.2734,-5.2773,-5.2754,-5.2793,-5.3071,-5.7828,-6.0752,-6.2066,-6.2156,-6.2202,-6.2095,-6.2446,-6.0663,-5.7499,-6.0839,-6.3877,-6.6162,-6.9125,-7.0531,-7.0229,-7.1926,-7.634,-8.3274,-8.1513,-8.1716,-8.4313,-8.4558,-8.4714,-8.4504,-7.8878,-7.4629,-7.2325,0.0,0.0,0.0,0.0,0.0,0.0,0.0,0.0,0.0,0.0,0.0,0.0,0.0,0.0,-6.7068,-6.7492,0.0,-7.7779,-7.3696,0.0,0.0,0.0,-7.3409,-7.7367,-8.0276,-8.2509,-8.3862,0.0,0.0,-9.056,-9.1169,-9.1947,-9.2996,-9.3334,-9.2962,-9.1508,-9.2556,-9.33,-9.1947,-9.1305,-9.1203,-9.2319,-9.3605,-9.5145,-9.6195,-9.6277,-9.5755,-9.5399,-9.483,-9.4805,-9.5482,-9.6386,-9.7673,-9.8965,-9.9126,-9.9249,-9.9139,-9.9071,-9.8998,-9.8888,-9.8851,-9.8814,-1.4639,-1.5018,-1.5462,-1.6811,-1.9275,-2.2923,-2.5506,-2.757,-3.1011,-3.2291,-3.2211,-3.1614,-3.2871,-3.5724,-3.6086,-3.9636,-4.5681,-4.6002,-4.8429,-5.2539,-5.2656,-5.2891,-5.3203,-5.3203,-5.3574,-5.4384,-5.7497,-6.0331,-6.2824,-6.5255,-6.5399,-6.3735,-6.5471,-6.35,-5.8027,-6.0688,-6.3701,-6.6739,-6.7116,-6.7993,-6.9539,-7.2034,-7.3777,-7.427,-7.8764,-8.132,-8.1978,-8.3717,-8.4714,-8.4684,-8.2739,-8.0255,-7.7203,-6.7478,0.0,0.0,0.0,0.0,0.0,0.0,0.0,0.0,0.0,-5.5493,-4.9965,0.0,-6.1716,0.0,-7.063,-7.5004,-8.2368,-8.2777,0.0,0.0,-7.8483,-7.8754,-8.4674,-8.6974,-8.8226,-8.8564,-9.1913,-9.4248,-9.4451,-9.3638,-9.4564,-9.8544,-9.5432,-9.2353,-9.1508,-9.4079,-9.577,-9.506,-9.5905,-9.6819,-9.6345,-9.6819,-9.7258,-9.7631,-9.7529,-9.7482,-9.7265,-9.6673,-9.6495,-9.7022,-9.7321,-9.8324,-9.993,-10.0252,-10.0383,-10.0701,-9.9952,-9.9108,-9.9108,-9.9108,-9.9108,-1.5087,-1.5316,-1.5883,-1.6515,-1.7933,-2.2125,-2.484,-2.6454,-3.0827,-3.2812,-3.2959,-3.336,-3.4761,-3.696,-3.7785,-4.1433,-4.6717,-4.6923,-4.9326,-5.3281,-5.3301,-5.3535,-5.3945,-5.3945,-5.4297,-5.4941,-5.7515,-5.991,-6.1948,-6.5979,-6.7345,-6.6076,-6.8683,-6.7292,-6.2169,-6.222,-6.2923,-6.4028,-6.5409,-6.7167,-6.9414,-7.137,-7.0424,-6.6303,-7.384,-7.7702,-7.7087,-7.9751,-8.0674,-7.9507,-7.9118,-7.7801,-7.5318,-6.8675,-6.4425,0.0,0.0,0.0,0.0,0.0,0.0,0.0,0.0,0.0,0.0,0.0,-6.7166,-7.0989,-7.8638,-8.3465,-8.3583,-8.8584,-9.0605,-8.7693,-8.623,-8.755,-9.2861,-9.418,-9.4687,-9.4687,-9.6785,-9.8273,-9.8273,-9.7913,-9.8565,-10.1555,-9.9018,-9.6751,-9.648,-9.7867,-9.8747,-9.8409,-9.8747,-9.8848,-9.8104,-9.8003,-9.8003,-9.8003,-9.8003,-9.7935,-9.7977,-9.7381,-9.7065,-9.772,-9.7848,-9.8332,-9.9902,-10.086,-10.1267,-10.156,-10.1497,-10.1017,-10.0319,-10.0172,-10.0172,-1.5301,-1.5588,-1.6158,-1.6168,-1.6205,-2.144,-2.3595,-2.4022,-2.959,-3.2366,-3.2841,-3.4322,-3.4977,-3.5257,-3.5591,-3.8937,-4.4709,-4.5019,-4.8418,-5.3897,-5.416,-5.4394,-5.4746,-5.4765,-5.498,-5.5371,-5.7781,-5.9402,-6.0642,-6.5226,-6.784,-6.8298,-7.0907,-6.9946,-6.5942,-6.3786,-6.2069,-6.0638,-6.4228,-6.7016,-6.8808,-6.9646,-6.6716,-6.0384,-6.8728,-7.3013,-7.1797,-7.5105,-7.5946,-7.3821,-7.3522,-7.3043,-7.2146,-6.9273,-6.6909,0.0,-6.3139,0.0,0.0,0.0,0.0,0.0,0.0,0.0,0.0,-7.2651,-7.4466,-7.508,-8.7043,-9.183,-8.4884,-9.2741,-9.7231,-9.4823,-9.5026,-9.6717,-9.9796,-10.0303,-10.0371,-10.0371,-10.1047,-10.1521,-10.1419,-10.2096,-10.2502,-10.2468,-10.2434,-10.2164,-10.2434,-10.1859,-10.1453,-10.1453,-10.0168,-9.9119,-9.8578,-9.8375,-9.8307,-9.8048,-9.8307,-9.824,-9.8418,-9.7855,-9.7575,-9.8068,-9.8228,-9.8583,-9.964,-10.0927,-10.1853,-10.1879,-10.279,-10.3182,-10.2008,-10.1604,-10.1604,-1.5981,-1.6307,-1.6286,-1.646,-1.664,-1.961,-2.0891,-2.1258,-2.5843,-2.8346,-2.976,-3.356,-3.5257,-3.5338,-3.6086,-3.8725,-4.3083,-4.5137,-4.9089,-5.457,-5.4902,-5.5117,-5.5176,-5.5195,-5.541,-5.5801,-5.6202,-5.9057,-6.3765,-6.4751,-6.5344,-6.5702,-6.7751,-6.5844,-6.0262,0.0,0.0,0.0,-6.4605,-6.6017,-6.5742,-6.4893,-6.3036,-6.0661,-6.8013,0.0,-7.1701,-7.5539,-7.7652,-7.7652,-7.6664,0.0,-7.8759,0.0,0.0,0.0,0.0,0.0,0.0,0.0,0.0,0.0,-7.0979,-7.056,-7.0769,-7.5094,-7.9016,-8.141,-8.5944,-9.0219,-9.4216,-9.7674,-9.9593,-9.9018,-9.9085,-9.9491,-10.0202,-10.0777,-10.1149,-10.1183,-10.1825,-10.2299,-10.2299,-10.2434,-10.2536,-10.2637,-10.3545,-10.3952,-10.3415,-10.3212,-10.2705,-10.1589,-10.0574,-9.9999,-9.9829,-9.9762,-9.9231,-9.8473,-9.9003,-9.9694,-9.9694,-9.9593,-9.9525,-9.9683,-9.9695,-9.9727,-9.9927,-10.1152,-10.2039,-10.1925,-10.2958,-10.366,-10.2925,-10.2632,-10.2301,-1.6313,-1.6517,-1.6735,-1.6577,0.0,-1.8092,-1.9403,-2.0923,-2.5825,-2.931,-3.1841,-3.4333,-3.5338,-3.5564,-3.5391,-3.6174,-3.8088,-4.014,-4.4847,-5.1295,-5.1504,-5.3128,-5.5625,-5.5625,-5.584,-5.625,-5.625,-5.7791,-6.0635,-6.3469,-6.4716,-6.4803,-6.8475,-6.841,-6.5095,-6.6491,-6.6363,-6.4479,-6.6112,-6.6264,-6.5101,-6.6785,-6.6093,-6.3104,-6.9874,0.0,0.0,0.0,0.0,0.0,0.0,0.0,0.0,-7.4031,-7.3432,-7.5617,-7.3642,-7.2894,-7.418,-7.4899,-7.6694,-7.9926,-8.0524,-7.9716,-7.7412,-8.1256,-8.4735,-8.7167,-8.7623,-9.0384,-9.6621,-9.9718,-10.114,-10.0785,-10.0777,-10.0912,-10.1318,-10.169,-10.1927,-10.1995,-10.2603,-10.3043,-10.3043,-10.2744,-10.2913,-10.3517,-10.4257,-10.446,-10.3754,-10.3585,-10.3077,-10.1622,-10.1081,-10.0641,-10.0303,-10.0202,-10.01,-9.9341,-9.9737,-10.0405,-10.1233,-10.0734,-10.0202,-10.0202,-10.0202,-10.0114,-10.0171,-10.1209,-10.2129,-10.228,-10.3808,-10.5016,-10.4684,-10.3692,-10.2448,-1.6578,-1.6612,-1.692,-1.6842,-1.6525,-1.6828,-1.8899,-2.2379,-2.7221,0.0,0.0,-3.5126,-3.5644,-3.5803,-3.487,-3.3792,-3.3284,-3.6309,-4.158,-4.8304,-4.9009,-5.1568,-5.5996,-5.6055,-5.625,-5.6562,-5.6504,-5.6678,-5.7276,-6.1661,-6.4281,-6.5551,-6.9769,-7.1987,-7.2062,-7.2062,-7.0706,-6.812,-6.7869,-6.7126,-6.5765,-6.9375,-6.9239,-6.5223,-7.1344,-7.3429,-7.056,-7.4895,-7.6509,-7.4899,-7.4121,-7.4001,-7.445,-7.4599,-7.6006,-7.8908,-7.9447,-8.0764,-8.3427,-8.4235,-8.5551,-8.7736,-8.8484,-8.7646,-8.4803,-8.7107,-8.9309,-9.1019,-9.0129,-9.1658,-9.6761,-10.0381,-10.2256,-10.169,-10.169,-10.2028,-10.2603,-10.284,-10.2908,-10.2942,-10.3449,-10.3787,-10.3754,-10.3289,-10.339,-10.4464,-10.4904,-10.4701,-10.3957,-10.3551,-10.3009,-10.2096,-10.1758,-10.1352,-10.0844,-10.0709,-10.0641,-10.0675,-10.0675,-10.1107,-10.1877,-10.1378,-10.0709,-10.0743,-10.0641,-10.0574,-10.0565,-10.1561,-10.2491,-10.2699,-10.472,-10.6703,-10.674,-10.5042,-10.3256,-1.6788,-1.691,-1.6795,-1.6775,-1.7003,-1.6886,-2.015,-2.5766,-2.8376,-2.9845,-3.09,-3.4544,-3.5936,-3.5956,-3.6002,-3.4579,-3.2466,-4.0801,-4.6897,-5.057,-5.352,-5.5434,-5.6465,-5.6484,-5.6523,-5.6543,-5.6211,-5.7241,-5.9408,-5.9853,-6.2636,-6.7187,-6.8444,-7.003,-7.2376,-7.2615,-7.2389,-7.1861,-6.92,-6.7918,-6.8111,-6.6516,-6.5584,-6.5484,-6.8786,-7.1199,-7.2202,-7.4391,-7.6296,-7.7957,-7.7472,-7.816,-8.0375,-8.1003,-8.235,-8.4444,-8.5671,-8.6539,-8.6958,-8.7616,-8.8155,-8.8544,-8.9142,-8.9052,-8.8125,-8.8424,-8.9065,-9.0003,-9.1392,-9.3763,-9.6641,-10.0175,-10.2315,-10.2434,-10.2908,-10.3314,-10.3449,-10.3957,-10.4261,-10.4295,-10.4464,-10.4532,-10.4532,-10.4498,-10.4366,-10.4802,-10.5544,-10.595,-10.4667,-10.3449,-10.2942,-10.3077,-10.2739,-10.2333,-10.213,-10.2198,-10.213,-10.2198,-10.2164,-10.2265,-10.2631,-10.2367,-10.2164,-10.2164,-10.2198,-10.1927,-10.1419,-10.2384,-10.3232,-10.3882,-10.5454,-10.7052,-10.8417,-10.7171,-10.5348,-1.6741,-1.6748,-1.6836,-1.6917,-1.7195,-2.0393,-2.3465,-2.6969,-3.1046,-3.2904,-3.3484,-3.5389,-3.6148,-3.6161,-3.5444,-3.5033,-3.4663,-3.8725,-4.2836,-4.699,-5.0346,-5.3287,-5.5801,-5.6133,-5.6113,-5.5898,-5.5703,-5.6195,-5.7385,-5.8581,-6.1482,-6.5899,-6.8997,-7.1278,-7.2526,-7.274,-7.2891,-7.3142,-7.1711,-7.1058,-7.1284,-7.038,-6.9978,-7.0229,-7.2785,-7.529,-7.7395,-7.9111,-8.1121,-8.3453,-8.2978,-8.3337,-8.4893,-8.5282,-8.6,-8.7227,-8.7885,-8.8245,-8.8245,-8.8843,-8.9382,-8.9711,-9.001,-9.007,-8.9771,-8.9741,-8.986,-9.016,-9.124,-9.3218,-9.6242,-9.9362,-10.1677,-10.3015,-10.3754,-10.416,-10.4193,-10.443,-10.4667,-10.4735,-10.5039,-10.5276,-10.531,-10.5648,-10.5682,-10.5445,-10.5713,-10.5612,-10.5276,-10.4396,-10.3483,-10.3145,-10.3043,-10.3111,-10.3111,-10.3449,-10.3285,-10.2648,-10.3184,-10.3618,-10.3686,-10.3686,-10.3652,-10.3686,-10.3686,-10.3382,-10.2705,-10.3015,-10.3745,-10.4436,-10.5747,-10.7276,-10.8264,-10.7921,-10.6559,-1.6686,-1.6598,-1.687,-1.6998,-1.7678,-2.3446,-2.6155,-2.7392,-3.3135,-3.5899,-3.6193,-3.6473,-3.6374,-3.6228,-3.5179,-3.5632,-3.6786,-3.7658,-4.0218,-4.4211,-4.8107,-5.1809,-5.4967,-5.5644,-5.5625,-5.5312,-5.5215,-5.5176,-5.5364,-5.7351,-6.0187,-6.4297,-6.9816,-7.2665,-7.2539,-7.2539,-7.2765,-7.3192,-7.3343,-7.3519,-7.3795,-7.4096,-7.4272,-7.4591,-7.6159,-7.8432,-8.1139,-8.2648,-8.4714,-8.7485,-8.7197,-8.7227,-8.7856,-8.7915,-8.8155,-8.8634,-8.8813,-8.8963,-8.9142,-8.9591,-9.01,-9.0608,-9.0638,-9.0638,-9.0638,-9.0788,-9.0848,-9.0848,-9.1449,-9.314,-9.6612,-9.9094,-10.1307,-10.3528,-10.4498,-10.4904,-10.4938,-10.5208,-10.5445,-10.5513,-10.6088,-10.6595,-10.6663,-10.6967,-10.7001,-10.646,-10.5682,-10.5445,-10.5648,-10.5174,-10.4193,-10.3517,-10.3483,-10.3787,-10.3889,-10.4261,-10.4096,-10.309,-10.3927,-10.4599,-10.4934,-10.5002,-10.4667,-10.4566,-10.4599,-10.4363,-10.3923,-10.3787,-10.4442,-10.5585,-10.69,-10.7773,-10.8908,-10.8782,-10.7587,-1.6741,-1.6754,-1.6904,-1.7053,-1.7833,-2.3639,-2.651,-2.7423,-3.3347,-3.6193,-3.6446,-3.6767,-3.6874,-3.6887,-3.67,-3.662,-3.7291,-4.2216,-4.4874,-4.6202,-5.1552,-5.45,-5.5234,-5.5332,-5.5351,-5.5234,-5.4902,-5.4765,-5.5012,-5.5365,-5.8291,-6.4054,-6.9816,-7.2439,-7.2037,-7.1987,-7.2012,-7.2087,-7.2539,-7.3318,-7.4247,-7.3895,-7.3895,-7.4397,-7.4591,-7.668,-8.0384,-8.0858,-8.3108,-8.7163,-8.7646,-8.7915,-8.8514,-8.8604,-8.8634,-8.8723,-8.9262,-8.983,-9.0369,-9.0519,-9.0549,-9.0638,-9.0668,-9.0698,-9.0698,-9.1207,-9.1536,-9.1703,-9.32,-9.5085,-9.8243,-10.0198,-10.2082,-10.4369,-10.531,-10.5716,-10.5885,-10.69,-10.7712,-10.7712,-10.8185,-10.8862,-10.8591,-10.8354,-10.8015,-10.7847,-10.6866,-10.6223,-10.5953,-10.5377,-10.487,-10.4566,-10.4599,-10.4633,-10.4633,-10.4633,-10.4769,-10.4599,-10.4633,-10.5273,-10.5913,-10.551,-10.4735,-10.5107,-10.487,-10.4836,-10.4667,-10.4697,-10.556,-10.71,-10.8181,-10.9268,-11.0384,-11.0179,-10.8725,-1.6693,-1.6639,-1.6876,-1.7114,-1.8202,-2.3851,-2.6519,-2.7394,-3.3272,-3.5979,-3.6273,-3.6553,-3.678,-3.6941,-3.6941,-3.6941,-3.737,-4.2912,-4.5547,-4.6369,-5.1947,-5.4648,-5.457,-5.4844,-5.4824,-5.4551,-5.4375,-5.4394,-5.4737,-5.668,-6.0545,-6.5779,-6.9847,-7.1636,-7.146,-7.1736,-7.2062,-7.2389,-7.2615,-7.3117,-7.3845,-7.4021,-7.4046,-7.3946,-7.3946,-7.5787,-7.9509,-8.0433,-8.2766,-8.7193,-8.8065,-8.8574,-8.9232,-8.9262,-8.9441,-8.9801,-9.007,-9.0369,-9.0638,-9.0638,-9.0638,-9.0638,-9.0997,-9.1207,-9.1237,-9.1835,-9.2344,-9.2813,-9.3184,-9.4777,-9.8259,-9.9817,-10.1832,-10.4741,-10.6392,-10.7103,-10.7137,-10.805,-10.8693,-10.8727,-10.8997,-10.92,-10.8997,-10.8253,-10.7881,-10.7948,-10.717,-10.6358,-10.6325,-10.6156,-10.602,-10.6054,-10.6325,-10.6223,-10.5648,-10.575,-10.5885,-10.5953,-10.5986,-10.6424,-10.6492,-10.6526,-10.5986,-10.5953,-10.5885,-10.5682,-10.5411,-10.5374,-10.5987,-10.7541,-10.8663,-10.9403,-11.0368,-11.023,-10.9312,-1.6686,-1.6632,-1.687,-1.7148,-1.7864,-2.3915,-2.6559,-2.7632,-3.3172,-3.5752,-3.5965,-3.6259,-3.65,-3.6714,-3.6861,-3.6901,-3.7468,-4.2019,-4.4842,-4.5923,-5.0908,-5.3474,-5.3877,-5.4336,-5.4336,-5.4101,-5.418,-5.4189,-5.512,-6.0562,-6.4072,-6.6341,-6.9495,-7.1083,-7.1108,-7.151,-7.1937,-7.2439,-7.2514,-7.2791,-7.3318,-7.3745,-7.377,-7.3393,-7.3368,-7.5161,-7.876,-8.0054,-8.2764,-8.6985,-8.8338,-8.9262,-8.989,-8.992,-9.016,-9.0579,-9.0638,-9.0638,-9.0638,-9.0818,-9.0908,-9.0968,-9.1506,-9.1895,-9.1985,-9.2494,-9.2943,-9.3152,-9.3481,-9.5361,-9.8557,-10.0505,-10.2704,-10.6022,-10.761,-10.8321,-10.8354,-10.9031,-10.9471,-10.9505,-10.9741,-10.9708,-10.9369,-10.849,-10.7881,-10.8016,-10.7238,-10.6426,-10.6832,-10.7035,-10.717,-10.7238,-10.7813,-10.7745,-10.6731,-10.6798,-10.7137,-10.6967,-10.6866,-10.6764,-10.69,-10.6866,-10.6866,-10.6494,-10.6798,-10.6764,-10.6257,-10.612,-10.6499,-10.7199,-10.8414,-10.9801,-11.086,-11.0597,-11.0157,-1.6741,-1.6761,-1.6917,-1.7154,-1.7857,-2.3777,-2.6337,-2.6991,-3.2871,-3.5631,-3.5685,-3.5965,-3.6329,-3.6396,-3.6647,-3.678,-3.7005,-4.0212,-4.3112,-4.5677,-4.891,-5.1462,-5.3819,-5.4043,-5.4043,-5.4062,-5.4316,-5.4726,-5.5839,-6.5125,-6.8072,-6.4059,-6.8647,-7.1033,-7.1058,-7.1108,-7.141,-7.1937,-7.2037,-7.2263,-7.2715,-7.2816,-7.2866,-7.2816,-7.2791,-7.4286,-7.7346,-7.9592,-8.2409,-8.6053,-8.8481,-8.992,-9.0489,-9.0579,-9.0579,-9.0638,-9.0638,-9.0638,-9.0758,-9.1147,-9.1506,-9.1596,-9.2045,-9.2494,-9.2404,-9.2972,-9.3182,-9.2733,-9.4909,-9.7396,-10.032,-10.2407,-10.4968,-10.7235,-10.8557,-10.8997,-10.9065,-10.964,-11.0181,-11.0249,-11.0519,-11.0519,-11.0181,-10.9606,-10.8693,-10.8287,-10.7948,-10.7712,-10.7306,-10.761,-10.7915,-10.8118,-10.8524,-10.8828,-10.8118,-10.7915,-10.7576,-10.7407,-10.7238,-10.7103,-10.6967,-10.69,-10.6967,-10.7035,-10.7204,-10.7204,-10.6967,-10.7192,-10.784,-10.864,-10.9725,-11.0894,-11.119,-11.1279,-11.1001,-1.6897,-1.691,-1.706,-1.7182,-1.7925,-2.3704,-2.6236,-2.6969,-3.2823,-3.5351,-3.5404,-3.5658,-3.5698,-3.5764,-3.6126,-3.642,-3.6924,-4.1484,-4.4401,-4.6085,-5.037,-5.2961,-5.378,-5.375,-5.3769,-5.3984,-5.3906,-5.518,-5.7778,-6.2766,-6.5307,-6.5894,-6.845,-7.0204,-7.0556,-7.0907,-7.1359,-7.1887,-7.2238,-7.2539,-7.269,-7.274,-7.274,-7.274,-7.3092,-7.5129,-7.9234,-8.1017,-8.3805,-8.8206,-8.968,-9.0399,-9.0608,-9.0638,-9.0638,-9.0638,-9.0638,-9.0818,-9.1177,-9.1087,-9.1177,-9.1596,-9.1835,-9.2015,-9.2075,-9.2554,-9.3002,-9.3492,-9.5227,-9.7903,-10.0352,-10.2444,-10.4491,-10.6898,-10.8388,-10.8997,-10.8828,-10.9505,-11.0114,-10.9741,-10.9843,-10.9843,-10.9606,-10.893,-10.8524,-10.8693,-10.8354,-10.8151,-10.8354,-10.8625,-10.876,-10.8896,-10.9369,-10.9809,-10.9572,-10.8997,-10.8659,-10.8251,-10.8083,-10.849,-10.8626,-10.8253,-10.8253,-10.8151,-10.8118,-10.8084,-10.7948,-10.7166,-10.8047,-10.8968,-11.0183,-11.0996,-11.1283,-11.141,-11.1316,-1.6978,-1.6992,-1.708,-1.7148,-1.784,-2.3529,-2.6064,-2.7047,-3.2586,-3.511,-3.5217,-3.5404,-3.5378,-3.5284,-3.5618,-3.5952,-3.6626,-4.1135,-4.411,-4.5689,-5.006,-5.282,-5.375,-5.3496,-5.3516,-5.3769,-5.3672,-5.4941,-5.7468,-6.0266,-6.2732,-6.4881,-6.8009,-6.9978,-7.0531,-7.1083,-7.161,-7.2138,-7.2389,-7.2514,-7.2665,-7.2539,-7.2665,-7.3042,-7.3569,-7.5619,-7.9712,-8.1567,-8.4341,-8.8194,-8.9871,-9.0638,-9.0638,-9.0638,-9.0638,-9.0668,-9.0848,-9.1027,-9.1267,-9.1267,-9.1386,-9.1596,-9.1835,-9.1925,-9.1985,-9.2524,-9.3002,-9.3722,-9.611,-9.8568,-10.0339,-10.2442,-10.466,-10.6866,-10.8422,-10.8963,-10.8524,-10.9335,-10.9606,-10.9302,-10.8997,-10.8963,-10.9031,-10.849,-10.849,-10.9065,-10.8693,-10.8693,-10.9065,-10.9403,-10.9538,-10.9606,-11.0181,-11.0587,-11.0519,-11.0181,-11.0083,-10.9674,-10.8792,-10.9369,-10.9778,-10.9437,-10.9302,-10.9234,-10.92,-10.92,-10.866,-10.7641,-10.8035,-10.8816,-10.9732,-11.0703,-11.1149,-11.154,-11.163,-1.6978,-1.6978,-1.6978,-1.7066,-1.801,-2.3281,-2.5801,-2.7165,-3.2399,-3.4937,-3.5137,-3.5204,-3.5231,-3.5204,-3.5271,-3.5391,-3.6299,-3.9443,-4.2461,-4.508,-4.797,-5.0714,-5.334,-5.332,-5.334,-5.3457,-5.3828,-5.4219,-5.5168,-5.9305,-6.2009,-6.2844,-6.7674,-7.043,-7.1058,-7.151,-7.2062,-7.2339,-7.2087,-7.2138,-7.2565,-7.2188,-7.2414,-7.3343,-7.3971,-7.5513,-7.8221,-8.1009,-8.3979,-8.7207,-8.9458,-9.0608,-9.0638,-9.0638,-9.0608,-9.0668,-9.1177,-9.1237,-9.0878,-9.1716,-9.1925,-9.1776,-9.2135,-9.2284,-9.2404,-9.2913,-9.3322,-9.3925,-9.6608,-9.9585,-10.044,-10.3205,-10.5954,-10.7745,-10.8557,-10.8963,-10.8963,-10.9099,-10.9166,-10.9065,-10.8659,-10.8422,-10.8794,-10.8625,-10.8524,-10.9099,-10.9268,-10.9302,-10.9538,-10.9978,-11.0249,-11.0418,-11.0756,-11.1095,-11.1264,-11.1331,-11.1336,-11.1099,-11.0046,-10.9741,-11.0116,-10.9944,-10.9911,-10.9843,-10.9877,-10.9843,-10.9439,-10.859,-10.8641,-10.9419,-11.0116,-11.0706,-11.1614,-11.2181,-11.238,-1.6883,-1.6978,-1.6978,-1.7005,-1.7889,-2.3188,-2.5629,-2.641,-3.2224,-3.4803,-3.4923,-3.511,-3.5204,-3.5191,-3.5204,-3.5244,-3.5747,-3.9955,-4.3154,-4.5064,-4.9202,-5.1716,-5.2691,-5.293,-5.3066,-5.3398,-5.3808,-5.4082,-5.516,-5.9309,-6.1883,-6.3185,-6.7634,-7.0347,-7.1033,-7.1259,-7.146,-7.1535,-7.1435,-7.1435,-7.1636,-7.1811,-7.2087,-7.2464,-7.3343,-7.5619,-7.956,-8.1539,-8.4687,-8.9091,-8.9829,-9.016,-9.0549,-9.0638,-9.0429,-9.01,-9.0579,-9.0878,-9.0728,-9.1027,-9.1446,-9.1506,-9.1446,-9.1506,-9.1835,-9.2165,-9.3228,-9.4922,-9.6857,-9.863,-10.1971,-10.348,-10.54,-10.7069,-10.7915,-10.8219,-10.8016,-10.8185,-10.8591,-10.9065,-10.8963,-10.8963,-10.9099,-10.8896,-10.9132,-10.9775,-10.9944,-11.008,-11.0587,-11.0756,-11.1027,-11.1095,-11.1365,-11.1399,-11.1399,-11.1399,-11.1331,-11.1437,-11.0722,-11.0249,-11.0418,-11.0519,-11.0486,-11.035,-11.0384,-11.0215,-10.9812,-10.9439,-10.9226,-10.9687,-11.0167,-11.1188,-11.2473,-11.2986,-11.3187,-1.6809,-1.6897,-1.6958,-1.7601,-1.9059,-2.3512,-2.6089,-2.7655,-3.2363,-3.4496,-3.4643,-3.491,-3.503,-3.5057,-3.5137,-3.5204,-3.5809,-4.0887,-4.3566,-4.4766,-4.9747,-5.2383,-5.2695,-5.2891,-5.3183,-5.3574,-5.3887,-5.4023,-5.4208,-5.8638,-6.1467,-6.3071,-6.7415,-7.0229,-7.0757,-7.0983,-7.1083,-7.1058,-7.0907,-7.0882,-7.1108,-7.141,-7.1811,-7.2263,-7.3117,-7.6134,-8.0454,-8.1538,-8.4211,-8.8629,-8.9501,-8.9621,-9.019,-9.004,-8.983,-8.986,-9.0249,-9.0668,-9.0668,-9.0938,-9.1027,-9.1177,-9.1087,-9.1177,-9.1626,-9.1925,-9.3713,-9.5986,-9.784,-9.9788,-10.3065,-10.4558,-10.5601,-10.7137,-10.7745,-10.7915,-10.7779,-10.8151,-10.8591,-10.9065,-10.9132,-10.9302,-10.9505,-10.964,-10.9911,-11.0519,-11.0722,-11.079,-11.1264,-11.1331,-11.1399,-11.1399,-11.1399,-11.1399,-11.1399,-11.1399,-11.1399,-11.1365,-11.1264,-11.1061,-11.1095,-11.1061,-11.1027,-11.0587,-11.0452,-11.0384,-11.0049,-10.8828,-10.8448,-10.9213,-11.03,-11.1299,-11.2387,-11.3604,-11.3957,-1.6734,-1.6768,-1.6904,-1.841,-2.1103,-2.4,-2.6788,-2.9865,-3.266,-3.4082,-3.4322,-3.4603,-3.4736,-3.4803,-3.5004,-3.5124,-3.6188,-4.0887,-4.3335,-4.4834,-4.8774,-5.2012,-5.2676,-5.3086,-5.3516,-5.3926,-5.3965,-5.3965,-5.407,-5.819,-6.0696,-6.2302,-6.6843,-6.9752,-7.0305,-7.0782,-7.0932,-7.0782,-7.043,-7.0455,-7.0882,-7.1108,-7.151,-7.2464,-7.3307,-7.5974,-8.0331,-8.155,-8.3763,-8.7996,-8.8723,-8.9052,-8.9412,-8.9023,-8.9172,-8.9531,-9.0219,-9.0489,-9.0698,-9.0997,-9.1207,-9.0818,-9.1237,-9.1656,-9.1835,-9.318,-9.4987,-9.7267,-9.9418,-10.1763,-10.392,-10.55,-10.6933,-10.7915,-10.8185,-10.8456,-10.9099,-10.92,-10.9369,-10.9403,-10.9369,-10.9572,-11.0283,-11.035,-11.0689,-11.1095,-11.1264,-11.1298,-11.1331,-11.1399,-11.1399,-11.1399,-11.1399,-11.1399,-11.1399,-11.1399,-11.1399,-11.1399,-11.1399,-11.1399,-11.1365,-11.1365,-11.1331,-11.0892,-11.0316,-11.0283,-10.9944,-10.8862,-10.866,-10.9466,-11.0297,-11.1156,-11.2448,-11.3758,-11.4727,-1.6551,-1.6748,-1.6795,-1.8522,-2.1302,-2.3981,-2.6885,-2.9652,-3.2544,-3.3921,-3.4068,-3.4309,-3.4429,-3.4469,-3.4736,-3.487,-3.6357,-4.0778,-4.3318,-4.4178,-4.9337,-5.199,-5.2715,-5.3164,-5.3574,-5.3906,-5.3933,-5.3816,-5.388,-5.7999,-6.0663,-6.2066,-6.6698,-6.9677,-7.0229,-7.0405,-7.0255,-6.9928,-6.9777,-6.9752,-7.0029,-7.0732,-7.1209,-7.1535,-7.2464,-7.5273,-8.0009,-8.3352,-8.5685,-8.7563,-8.8454,-8.8753,-8.8963,-8.9142,-8.9112,-8.8829,-8.989,-9.0369,-8.9905,-9.0489,-9.0788,-9.0728,-9.1327,-9.1835,-9.2344,-9.4456,-9.7007,-9.9418,-10.1763,-10.3809,-10.5639,-10.6629,-10.7509,-10.8591,-10.8896,-10.92,-10.9809,-11.0012,-11.0215,-11.0689,-11.0722,-11.0824,-11.0959,-11.1061,-11.1128,-11.1331,-11.1399,-11.1399,-11.1399,-11.1399,-11.1399,-11.1399,-11.1399,-11.1399,-11.1399,-11.1399,-11.1399,-11.1399,-11.1399,-11.1399,-11.1365,-11.1331,-11.1331,-11.1196,-11.0147,-10.9843,-10.964,-10.9031,-10.9439,-10.9327,-11.0505,-11.1553,-11.3054,-11.4498,-11.5238,-1.6408,-1.6578,-1.6693,-1.9045,-2.2624,-2.4559,-2.7465,-3.0772,-3.2768,-3.3694,-3.3761,-3.4015,-3.4135,-3.4162,-3.4442,-3.4643,-3.5582,-4.0591,-4.317,-4.4195,-4.9412,-5.2087,-5.2734,-5.3164,-5.3418,-5.3437,-5.3762,-5.3624,-5.4046,-5.7934,-6.0529,-6.2207,-6.6591,-6.9195,-6.9853,-6.9903,-6.9777,-6.9501,-6.9451,-6.9526,-6.9828,-7.0372,-7.1133,-7.1485,-7.2476,-7.4829,-7.9541,-8.4223,-8.6988,-8.7556,-8.7856,-8.8095,-8.8634,-8.8723,-8.8813,-8.8561,-8.9711,-9.01,-9.01,-9.0399,-9.0758,-9.1087,-9.1656,-9.2314,-9.3282,-9.5472,-9.8279,-10.0512,-10.2574,-10.4699,-10.6527,-10.7441,-10.8219,-10.9031,-10.9708,-11.0249,-11.0722,-11.0756,-11.0959,-11.1264,-11.1399,-11.1399,-11.1399,-11.1399,-11.1399,-11.1399,-11.1399,-11.1399,-11.1399,-11.1399,-11.1399,-11.1399,-11.1399,-11.1399,-11.1399,-11.1399,-11.1399,-11.1399,-11.1399,-11.1399,-11.123,-11.1162,-11.0824,-11.0553,-10.9843,-10.9302,-10.9031,-10.8693,-10.8423,-10.8837,-11.0398,-11.1667,-11.2984,-11.4862,-11.5641,-1.6293,-1.6334,-1.6612,-1.9782,-2.4515,-2.5318,-2.828,-3.2598,-3.3427,-3.344,-3.3494,-3.3721,-3.3828,-3.3855,-3.4135,-3.4608,-3.5445,-4.0482,-4.339,-4.5935,-4.961,-5.2266,-5.2578,-5.3008,-5.3066,-5.2871,-5.3509,-5.3191,-5.424,-5.7975,-6.0517,-6.2196,-6.6106,-6.8565,-6.9426,-6.9501,-6.9451,-6.9451,-6.9451,-6.9702,-7.0129,-7.0447,-7.0973,-7.1998,-7.3781,-7.5851,-7.9861,-8.4058,-8.6958,-8.7556,-8.6988,-8.7437,-8.8334,-8.8035,-8.8364,-8.9009,-8.9681,-9.013,-9.0519,-9.0698,-9.0997,-9.1536,-9.2254,-9.2913,-9.3962,-9.6232,-9.9008,-10.0608,-10.2869,-10.5014,-10.6595,-10.8151,-10.8862,-10.9335,-11.0418,-11.123,-11.1399,-11.1399,-11.1399,-11.1399,-11.1399,-11.1399,-11.1399,-11.1399,-11.1399,-11.1399,-11.1399,-11.1399,-11.1399,-11.1399,-11.1399,-11.1399,-11.1399,-11.1399,-11.1399,-11.1399,-11.1399,-11.1399,-11.1399,-11.1331,-11.0959,-11.0722,-11.0147,-10.964,-10.9302,-10.8828,-10.8354,-10.7948,-10.7644,-10.8399,-10.9879,-11.0781,-11.1968,-11.4531,-11.5993,-1.6198,-1.6327,-1.6497,-1.9669,-2.4495,-2.5318,-2.828,-3.32,-3.34,-3.3414,-3.3427,-3.3494,-3.3521,-3.3547,-3.3828,-3.5005,-3.7127,-4.1104,-4.4678,-4.9806,-5.105,-5.209,-5.2285,-5.2637,-5.2754,-5.2617,-5.262,-5.2482,-5.3797,-5.827,-6.1506,-6.1574,-6.5851,-6.8899,-6.9376,-6.9451,-6.9451,-6.9451,-6.9451,-6.9777,-7.028,-7.0522,-7.1073,-7.2522,-7.5977,-7.8285,-8.0207,-8.4223,-8.6589,-8.6808,-8.6868,-8.7167,-8.7915,-8.8304,-8.8693,-8.9128,-8.9845,-9.0489,-9.0668,-9.1057,-9.1446,-9.1746,-9.2643,-9.3421,-9.3883,-9.7603,-9.9955,-10.1374,-10.3953,-10.6119,-10.6866,-10.7846,-10.876,-10.9369,-11.0452,-11.1399,-11.1399,-11.1399,-11.1399,-11.1399,-11.1399,-11.1399,-11.1399,-11.1399,-11.1399,-11.1399,-11.1399,-11.1399,-11.1399,-11.1399,-11.1399,-11.1399,-11.1399,-11.1399,-11.1399,-11.1399,-11.1399,-11.1264,-11.123,-11.1128,-11.079,-11.0215,-10.964,-10.9234,-10.893,-10.8422,-10.7813,-10.7475,-10.7103,-10.8221,-10.9386,-11.0664,-11.2189,-11.4432,-11.5993,-1.613,-1.6412,-1.7963,-2.1081,-2.4608,-2.6317,-2.9332,-3.2628,-3.336,-3.3414,-3.3414,-3.3414,-3.3414,-3.3414,-3.3789,-3.5104,-3.8278,-4.2459,-4.6788,-5.055,-5.168,-5.1758,-5.1797,-5.1973,-5.2109,-5.209,-5.1914,-5.2363,-5.4766,-5.9217,-6.2689,-6.2434,-6.6675,-6.8945,-6.9401,-6.9451,-6.9451,-6.9526,-6.9727,-7.0104,-7.0606,-7.0823,-7.2741,-7.5068,-7.8297,-8.0034,-8.1605,-8.4742,-8.65,-8.6748,-8.6988,-8.7467,-8.8035,-8.8514,-8.8993,-8.9636,-9.0084,-9.0638,-9.0788,-9.1237,-9.1746,-9.2075,-9.3032,-9.3631,-9.4923,-9.8274,-10.0421,-10.1677,-10.413,-10.69,-10.6967,-10.7778,-10.8522,-10.9335,-11.0519,-11.1331,-11.1399,-11.1399,-11.1399,-11.1399,-11.1399,-11.1399,-11.1399,-11.1399,-11.1399,-11.1399,-11.1399,-11.1399,-11.1399,-11.1399,-11.1399,-11.1399,-11.1399,-11.1399,-11.1399,-11.1399,-11.1399,-11.1196,-11.0959,-11.079,-11.0486,-10.9809,-10.9099,-10.8727,-10.8354,-10.7813,-10.7272,-10.6967,-10.7,-10.7762,-10.8908,-11.0511,-11.2299,-11.4296,-11.5547,-1.6083,-1.6488,-2.005,-2.268,-2.4669,-2.7446,-3.0304,-3.2828,-3.324,-3.3347,-3.3414,-3.3414,-3.3414,-3.34,-3.332,-3.5266,-3.9605,-4.4298,-4.9026,-5.0823,-5.1426,-5.1504,-5.1523,-5.1543,-5.1562,-5.1445,-5.1484,-5.2607,-5.583,-6.0038,-6.2758,-6.4531,-6.7563,-6.917,-6.9426,-6.9451,-6.9451,-6.9501,-6.9928,-7.0455,-7.0983,-7.1199,-7.3755,-7.8234,-7.9333,-8.078,-8.2841,-8.5288,-8.6689,-8.6718,-8.7317,-8.8005,-8.8514,-8.8903,-8.9322,-9.0519,-9.0608,-9.0638,-9.0818,-9.1357,-9.2075,-9.2613,-9.3361,-9.396,-9.5377,-9.8108,-10.0298,-10.216,-10.413,-10.69,-10.6967,-10.8016,-10.8623,-10.9369,-11.0519,-11.1264,-11.1399,-11.1399,-11.1399,-11.1399,-11.1399,-11.1399,-11.1399,-11.1399,-11.1399,-11.1399,-11.1399,-11.1399,-11.1399,-11.1399,-11.1399,-11.1399,-11.1399,-11.1399,-11.1399,-11.1331,-11.1331,-11.1061,-11.0756,-11.0283,-11.0012,-10.9268,-10.8557,-10.8151,-10.7712,-10.7272,-10.7035,-10.6934,-10.7134,-10.7465,-10.8873,-11.0944,-11.2626,-11.4195,-11.5093,-1.6083,-1.6494,-2.1505,-2.374,-2.4649,-2.7266,-3.0317,-3.2749,-3.3026,-3.32,-3.3387,-3.3414,-3.3414,-3.3347,-3.3449,-3.6922,-4.2412,-4.7121,-4.9973,-5.1016,-5.1269,-5.1426,-5.1445,-5.1445,-5.1445,-5.1445,-5.1465,-5.294,-5.6063,-5.9107,-6.248,-6.4888,-6.7942,-6.9426,-6.9451,-6.9451,-6.9451,-6.9551,-7.0029,-7.0606,-7.1033,-7.156,-7.394,-7.9046,-7.9686,-8.1178,-8.3174,-8.5449,-8.6689,-8.6748,-8.7347,-8.8005,-8.8663,-8.9172,-8.986,-9.0429,-9.0638,-9.0668,-9.0878,-9.1776,-9.2344,-9.2853,-9.3691,-9.4349,-9.5498,-9.8301,-10.0762,-10.2277,-10.4449,-10.69,-10.6934,-10.8016,-10.8896,-10.9505,-11.0316,-11.1331,-11.1365,-11.1399,-11.1399,-11.1399,-11.1399,-11.1399,-11.1399,-11.1399,-11.1399,-11.1399,-11.1399,-11.1399,-11.1399,-11.1399,-11.1399,-11.1399,-11.1399,-11.1399,-11.1399,-11.1331,-11.1264,-11.0892,-11.0452,-10.964,-10.9234,-10.8557,-10.7982,-10.7644,-10.7373,-10.7069,-10.6934,-10.69,-10.7034,-10.7134,-10.9213,-11.1404,-11.2626,-11.3752,-11.5321,-1.6864,-1.8434,-2.2313,-2.4701,-2.6438,-2.9213,-3.1192,-3.2363,-3.2839,-3.3053,-3.32,-3.3334,-3.3414,-3.336,-3.3439,-3.7145,-4.3163,-4.8214,-5.0336,-5.1055,-5.1328,-5.1445,-5.1445,-5.1445,-5.1445,-5.1504,-5.1836,-5.3874,-5.7684,-5.9439,-6.2782,-6.6312,-6.8584,-6.9451,-6.9451,-6.9451,-6.9451,-6.9602,-7.0229,-7.0807,-7.1184,-7.1549,-7.4855,-7.8281,-8.0102,-8.1491,-8.4579,-8.5801,-8.6689,-8.6868,-8.7646,-8.8274,-8.8843,-8.9561,-9.0279,-9.0579,-9.0638,-9.0878,-9.1267,-9.2165,-9.2703,-9.3182,-9.408,-9.4558,-9.5528,-9.817,-10.1525,-10.3809,-10.4907,-10.69,-10.6934,-10.761,-10.8251,-10.9234,-11.0215,-11.0925,-11.1264,-11.1331,-11.1298,-11.1298,-11.1331,-11.1331,-11.1399,-11.1399,-11.1399,-11.1399,-11.1399,-11.1399,-11.1399,-11.1399,-11.1399,-11.123,-11.1128,-11.0925,-11.0892,-11.0824,-11.079,-11.0519,-10.9978,-10.9166,-10.8557,-10.7982,-10.761,-10.7306,-10.7035,-10.69,-10.69,-10.69,-10.69,-10.7267,-10.946,-11.1404,-11.2299,-11.3406,-11.5093,-1.7642,-2.0371,-2.3951,-2.6282,-2.8212,-3.0728,-3.2051,-3.2198,-3.2585,-3.2866,-3.3013,-3.3213,-3.3347,-3.3787,-3.5224,-3.8189,-4.336,-4.8155,-5.0433,-5.1269,-5.1426,-5.1445,-5.1445,-5.1445,-5.1445,-5.1504,-5.1836,-5.4738,-5.8677,-6.0203,-6.3684,-6.7258,-6.9095,-6.9451,-6.9451,-6.9451,-6.9451,-6.9903,-7.0531,-7.1108,-7.1585,-7.2911,-7.5355,-7.9339,-8.0207,-8.2506,-8.5961,-8.65,-8.6689,-8.7018,-8.7796,-8.8663,-8.8873,-8.992,-9.0608,-9.0638,-9.0638,-9.1087,-9.1883,-9.2284,-9.2853,-9.3421,-9.4199,-9.4671,-9.6313,-9.923,-10.2902,-10.5982,-10.69,-10.69,-10.6934,-10.6968,-10.7778,-10.8963,-10.9843,-11.0519,-11.0892,-11.1027,-11.0824,-11.0892,-11.1095,-11.123,-11.123,-11.1399,-11.1399,-11.1399,-11.1399,-11.1399,-11.1399,-11.1399,-11.1331,-11.1027,-11.079,-11.0452,-11.0249,-11.008,-11.0012,-10.9843,-10.9234,-10.8422,-10.7948,-10.7475,-10.7204,-10.7069,-10.7001,-10.69,-10.69,-10.69,-10.69,-10.7727,-10.9913,-11.1149,-11.143,-11.333,-11.5547,-1.7642,-2.0585,-2.7754,-2.9685,-2.8392,-3.0739,-3.1877,-3.2091,-3.2198,-3.2519,-3.2893,-3.3013,-3.316,-3.4276,-3.8231,-4.1713,-4.5115,-4.8384,-5.0625,-5.1328,-5.1445,-5.1445,-5.1445,-5.1445,-5.1445,-5.1543,-5.1914,-5.5269,-5.9151,-6.075,-6.3968,-6.8271,-6.9325,-6.9451,-6.9451,-6.9451,-6.9702,-7.0179,-7.0782,-7.1535,-7.2664,-7.4567,-7.6911,-7.9734,-8.1661,-8.37,-8.6311,-8.6689,-8.6689,-8.6928,-8.8005,-8.8634,-8.8903,-8.992,-9.0519,-9.0638,-9.0728,-9.0997,-9.1973,-9.2344,-9.2972,-9.3631,-9.4431,-9.5638,-9.8008,-10.073,-10.4097,-10.6426,-10.69,-10.69,-10.6934,-10.6934,-10.7745,-10.8623,-10.964,-11.0114,-11.0486,-11.0418,-11.0283,-11.0181,-11.0249,-11.0722,-11.0993,-11.123,-11.1399,-11.1399,-11.1365,-11.1331,-11.1162,-11.0993,-11.0858,-11.0519,-11.0215,-10.9843,-10.9505,-10.9335,-10.9132,-10.9065,-10.849,-10.7779,-10.7475,-10.717,-10.7069,-10.6934,-10.69,-10.69,-10.69,-10.69,-10.69,-10.7824,-10.9425,-11.002,-11.0266,-11.2758,-11.5604,-2.0201,-2.2731,-2.8994,-3.1101,-3.014,-3.127,-3.173,-3.1877,-3.2038,-3.2238,-3.2478,-3.2666,-3.2969,-3.4255,-3.876,-4.2437,-4.5273,-4.871,-5.0625,-5.1289,-5.1445,-5.1445,-5.1445,-5.1445,-5.1445,-5.1621,-5.262,-5.5303,-5.9058,-6.1495,-6.3899,-6.8602,-6.9451,-6.9451,-6.9451,-6.9451,-6.9752,-7.033,-7.1083,-7.1912,-7.3028,-7.525,-7.8551,-8.3241,-8.3332,-8.4532,-8.6151,-8.6689,-8.6898,-8.7287,-8.8245,-8.8873,-8.9322,-9.01,-9.0638,-9.0638,-9.0638,-9.1177,-9.2105,-9.2464,-9.3122,-9.4384,-9.5686,-9.7845,-10.0608,-10.2722,-10.4733,-10.6731,-10.69,-10.69,-10.69,-10.6832,-10.7881,-10.8693,-10.9132,-10.9572,-10.9809,-10.9708,-10.9606,-10.9505,-10.9437,-10.9877,-11.0384,-11.0824,-11.0858,-11.0722,-11.0722,-11.0689,-11.035,-10.9911,-10.9843,-10.9741,-10.9437,-10.9166,-10.8794,-10.8524,-10.8151,-10.7982,-10.7779,-10.7238,-10.717,-10.6967,-10.69,-10.69,-10.69,-10.69,-10.69,-10.69,-10.69,-10.7693,-10.8621,-10.913,-10.9861,-11.2304,-11.4874,-2.2368,-2.43,-2.9529,-3.164,-3.1677,-3.1677,-3.1677,-3.1704,-3.1891,-3.2038,-3.2198,-3.2478,-3.2767,-3.4129,-3.8551,-4.2538,-4.4887,-4.8576,-5.055,-5.123,-5.1445,-5.1445,-5.1445,-5.1445,-5.1504,-5.1582,-5.3426,-5.6307,-5.9636,-6.2076,-6.5066,-6.9245,-6.9451,-6.9451,-6.9476,-6.9677,-7.0054,-7.0832,-7.1661,-7.2288,-7.318,-7.5695,-7.9906,-8.3273,-8.4778,-8.4934,-8.634,-8.6689,-8.6988,-8.7646,-8.8304,-8.8963,-8.9591,-9.0219,-9.0608,-9.0638,-9.0638,-9.1237,-9.2105,-9.2703,-9.3361,-9.4875,-9.722,-9.983,-10.2869,-10.4097,-10.5014,-10.6866,-10.69,-10.69,-10.69,-10.69,-10.7373,-10.7915,-10.8321,-10.8794,-10.9166,-10.8963,-10.8693,-10.8422,-10.8456,-10.8794,-10.9403,-11.0181,-11.035,-11.0114,-11.0046,-10.9978,-10.9606,-10.9099,-10.8896,-10.8862,-10.8456,-10.8253,-10.8016,-10.7678,-10.7306,-10.717,-10.7001,-10.69,-10.6934,-10.6934,-10.69,-10.69,-10.69,-10.69,-10.69,-10.69,-10.69,-10.7596,-10.8263,-10.8679,-10.9782,-11.234,-11.4731,-2.2368,-2.4279,-2.9574,-3.1713,-3.1677,-3.1677,-3.1677,-3.1677,-3.1704,-3.1864,-3.2118,-3.2807,-3.3239,-3.4379,-3.9063,-4.3289,-4.5097,-4.886,-5.0494,-5.123,-5.1426,-5.1367,-5.1348,-5.1367,-5.1601,-5.2325,-5.4349,-5.7635,-6.092,-6.3595,-6.6416,-6.9064,-6.9451,-6.9451,-6.9627,-6.9953,-7.0681,-7.146,-7.2238,-7.2753,-7.4326,-7.6837,-8.0442,-8.2651,-8.5029,-8.65,-8.6689,-8.6689,-8.7077,-8.7766,-8.8364,-8.9112,-8.9801,-9.0309,-9.0638,-9.0638,-9.0638,-9.1327,-9.2224,-9.2673,-9.3472,-9.5382,-9.8139,-10.1525,-10.4097,-10.5811,-10.6731,-10.69,-10.69,-10.69,-10.69,-10.6967,-10.717,-10.7509,-10.7847,-10.7948,-10.8219,-10.8151,-10.7847,-10.7407,-10.7509,-10.7948,-10.8185,-10.893,-10.9437,-10.9234,-10.8556,-10.8454,-10.8896,-10.8557,-10.8219,-10.7948,-10.7475,-10.7238,-10.7137,-10.6967,-10.7035,-10.7035,-10.6934,-10.69,-10.69,-10.69,-10.69,-10.69,-10.69,-10.69,-10.69,-10.69,-10.7034,-10.7233,-10.781,-10.9009,-11.0887,-11.3433,-11.5773,-2.3316,-2.4473,-2.9617,-3.1757,-3.1677,-3.1677,-3.1677,-3.1677,-3.1677,-3.1717,-3.2068,-3.3905,-3.4247,-3.5133,-4.0749,-4.5688,-4.8045,-4.9685,-5.0703,-5.0879,-5.1074,-5.1074,-5.1035,-5.1172,-5.1523,-5.2383,-5.4985,-5.8234,-6.1177,-6.439,-6.6882,-6.8676,-6.9426,-6.9451,-6.9677,-7.028,-7.1133,-7.1786,-7.2602,-7.3331,-7.5983,-7.8119,-8.14,-8.4951,-8.5597,-8.6748,-8.6689,-8.6689,-8.7317,-8.8065,-8.8544,-8.9262,-9.004,-9.0489,-9.0608,-9.0668,-9.0668,-9.1357,-9.2314,-9.3012,-9.4304,-9.8247,-10.1069,-10.3487,-10.5188,-10.6426,-10.69,-10.69,-10.69,-10.69,-10.6866,-10.69,-10.7069,-10.7373,-10.7441,-10.734,-10.7373,-10.7407,-10.7407,-10.7137,-10.7103,-10.7272,-10.7441,-10.761,-10.805,-10.8321,-10.7576,-10.7204,-10.7643,-10.8016,-10.7712,-10.7509,-10.7103,-10.6967,-10.69,-10.69,-10.69,-10.69,-10.69,-10.69,-10.69,-10.69,-10.69,-10.69,-10.69,-10.69,-10.69,-10.69,-10.7034,-10.7134,-10.8435,-10.9964,-11.2189,-11.4686,-11.6746,-2.4269,-2.5625,-2.9911,-3.1677,-3.1677,-3.1677,-3.1677,-3.1677,-3.1677,-3.1677,-3.1894,-3.4769,-3.5876,-3.7179,-4.1798,-4.7026,-4.9253,-5.0365,-5.0332,-5.0508,-5.0664,-5.0644,-5.0566,-5.0742,-5.1191,-5.234,-5.57,-5.9182,-6.1447,-6.5045,-6.736,-6.8864,-6.9351,-6.9426,-6.9702,-7.0506,-7.1334,-7.1887,-7.2602,-7.3902,-7.6502,-7.8774,-8.1291,-8.4939,-8.6157,-8.6748,-8.6778,-8.6958,-8.7586,-8.8334,-8.8963,-8.9591,-9.0219,-9.0638,-9.0638,-9.0698,-9.0938,-9.1476,-9.2453,-9.4046,-9.6039,-9.9859,-10.2277,-10.4558,-10.6256,-10.69,-10.69,-10.69,-10.6866,-10.6798,-10.6663,-10.646,-10.6257,-10.6325,-10.6595,-10.6595,-10.6832,-10.6934,-10.7001,-10.6934,-10.6967,-10.7001,-10.7069,-10.7204,-10.7373,-10.7678,-10.7407,-10.6968,-10.7306,-10.7407,-10.7204,-10.7069,-10.6967,-10.69,-10.69,-10.69,-10.69,-10.69,-10.69,-10.69,-10.69,-10.69,-10.69,-10.69,-10.69,-10.69,-10.69,-10.69,-10.69,-10.69,-10.9092,-11.1895,-11.3448,-11.5829,-11.7646,-2.5238,-2.7972,-3.0509,-3.1677,-3.1677,-3.1677,-3.1677,-3.1677,-3.1677,-3.1677,-3.2083,-3.4799,-3.757,-3.9955,-4.3598,-4.7234,-4.9463,-5.0259,-5.0137,-5.0098,-5.0273,-5.0215,-5.0176,-5.0332,-5.0898,-5.3101,-5.6465,-5.9827,-6.1694,-6.6039,-6.8385,-6.8719,-6.9024,-6.9426,-6.9551,-7.0506,-7.1309,-7.1887,-7.2439,-7.3755,-7.6385,-7.8677,-8.1235,-8.4068,-8.5949,-8.6659,-8.6958,-8.7257,-8.7945,-8.8753,-8.9262,-8.986,-9.0489,-9.0638,-9.0638,-9.0668,-9.1207,-9.1865,-9.2753,-9.5821,-9.8564,-10.1037,-10.3342,-10.5048,-10.6426,-10.6832,-10.6764,-10.6629,-10.6595,-10.6358,-10.6054,-10.575,-10.558,-10.5648,-10.5953,-10.6291,-10.6595,-10.6764,-10.6866,-10.69,-10.69,-10.69,-10.69,-10.6934,-10.6967,-10.7001,-10.6934,-10.6967,-10.7069,-10.7035,-10.69,-10.69,-10.69,-10.69,-10.69,-10.69,-10.69,-10.69,-10.69,-10.69,-10.69,-10.69,-10.69,-10.69,-10.69,-10.69,-10.69,-10.6934,-10.7536,-10.8563,-11.164,-11.4136,-11.5527,-11.7047,-11.8827,-2.5432,-2.7972,-3.0687,-3.1677,-3.1677,-3.1677,-3.1677,-3.1677,-3.1677,-3.1677,-3.2652,-3.623,-3.8578,-4.095,-4.4873,-4.8158,-4.9197,-5.0121,-5.0039,-4.9414,-4.9824,-4.9687,-4.9648,-4.9961,-5.0566,-5.261,-5.6328,-5.9829,-6.0718,-6.6009,-6.7965,-6.8221,-6.8698,-6.93,-6.9853,-7.0506,-7.0932,-7.1736,-7.2462,-7.397,-7.781,-7.9403,-8.1605,-8.5097,-8.6311,-8.6868,-8.7257,-8.7646,-8.8245,-8.9112,-8.9651,-9.001,-9.0519,-9.0638,-9.0638,-9.0788,-9.1267,-9.2912,-9.5055,-9.8091,-10.0544,-10.2542,-10.4349,-10.5881,-10.6866,-10.6392,-10.6257,-10.6054,-10.5851,-10.5479,-10.5073,-10.5547,-10.5648,-10.5817,-10.6156,-10.6528,-10.6832,-10.6832,-10.69,-10.69,-10.69,-10.69,-10.69,-10.69,-10.69,-10.69,-10.69,-10.69,-10.6967,-10.6967,-10.69,-10.69,-10.69,-10.69,-10.69,-10.69,-10.69,-10.69,-10.69,-10.69,-10.69,-10.69,-10.69,-10.69,-10.69,-10.69,-10.7103,-10.7541,-10.9054,-11.0853,-11.3246,-11.5779,-11.7501,-11.867,-12.0009,-2.6023,-2.9326,-3.089,-3.1677,-3.1677,-3.1677,-3.1677,-3.1677,-3.1677,-3.1677,-3.2813,-3.7024,-3.9307,-4.0862,-4.5113,-4.8783,-4.8867,-4.9385,-4.959,-4.8945,-4.9394,-4.9316,-4.9277,-4.9629,-5.0391,-5.2329,-5.5927,-5.9352,-6.0216,-6.5222,-6.7616,-6.8196,-6.8271,-6.8924,-6.9627,-7.0204,-7.0706,-7.178,-7.2639,-7.5195,-7.8404,-8.0727,-8.2841,-8.5449,-8.6748,-8.6958,-8.7556,-8.8035,-8.8514,-8.9382,-8.992,-9.016,-9.0519,-9.0638,-9.0638,-9.0818,-9.1703,-9.3817,-9.7243,-9.8757,-10.1246,-10.3836,-10.5718,-10.6359,-10.6392,-10.5817,-10.575,-10.5513,-10.4971,-10.4802,-10.4769,-10.5344,-10.5547,-10.5716,-10.6122,-10.6494,-10.6866,-10.69,-10.69,-10.69,-10.69,-10.69,-10.69,-10.69,-10.69,-10.69,-10.69,-10.69,-10.69,-10.69,-10.69,-10.69,-10.69,-10.69,-10.69,-10.69,-10.69,-10.69,-10.69,-10.69,-10.69,-10.69,-10.69,-10.69,-10.6934,-10.7069,-10.7441,-10.8216,-10.981,-11.1708,-11.3869,-11.6357,-11.906,-12.0104,-12.0861,-2.6987,-3.1284,-3.1677,-3.1677,-3.1677,-3.1677,-3.1677,-3.1677,-3.1677,-3.1867,-3.2232,-3.7007,-3.9026,-4.0254,-4.4994,-4.7954,-4.8831,-4.8914,-4.9052,-4.8887,-4.9043,-4.8926,-4.9121,-4.9492,-5.0371,-5.27,-5.5932,-5.9033,-5.9872,-6.4897,-6.7743,-6.8296,-6.817,-6.8748,-6.9426,-6.9953,-7.0506,-7.1452,-7.3768,-7.6139,-7.8871,-8.1576,-8.3836,-8.5991,-8.6718,-8.7167,-8.7736,-8.8334,-8.8993,-8.9681,-9.0249,-9.0489,-9.0638,-9.0638,-9.0638,-9.1087,-9.2015,-9.5339,-9.847,-9.9681,-10.1465,-10.3898,-10.5044,-10.5614,-10.558,-10.5141,-10.4971,-10.4904,-10.4599,-10.4566,-10.4633,-10.487,-10.5141,-10.5479,-10.5919,-10.6358,-10.6798,-10.69,-10.69,-10.69,-10.69,-10.69,-10.6967,-10.6934,-10.7001,-10.7001,-10.7001,-10.7035,-10.7001,-10.69,-10.69,-10.69,-10.69,-10.69,-10.69,-10.6934,-10.69,-10.69,-10.69,-10.69,-10.69,-10.6934,-10.69,-10.69,-10.6967,-10.7272,-10.7948,-10.9235,-11.071,-11.2719,-11.4623,-11.6788,-11.9376,-12.0265,-12.0875,-2.6987,-3.1664,-3.1677,-3.1677,-3.1677,-3.1677,-3.1677,-3.1677,-3.1677,-3.2597,-3.4406,-3.7528,-3.8944,-3.9637,-4.4901,-4.7554,-4.8606,-4.8797,-4.8993,-4.8867,-4.8906,-4.9082,-4.9375,-4.9805,-5.0586,-5.2761,-5.591,-5.8787,-5.9491,-6.4198,-6.7568,-6.7894,-6.8221,-6.8798,-6.9275,-6.9627,-7.033,-7.1799,-7.413,-7.6944,-7.9535,-8.211,-8.4521,-8.6121,-8.6748,-8.7317,-8.8155,-8.8574,-8.9262,-9.019,-9.0489,-9.0638,-9.0638,-9.0698,-9.0848,-9.2123,-9.3878,-9.6204,-9.9209,-10.0877,-10.2337,-10.343,-10.4193,-10.4532,-10.4599,-10.443,-10.4092,-10.416,-10.3923,-10.3754,-10.4126,-10.4498,-10.4971,-10.5547,-10.6054,-10.6595,-10.6967,-10.6967,-10.6934,-10.69,-10.69,-10.7035,-10.6934,-10.7103,-10.7103,-10.7103,-10.717,-10.7272,-10.7306,-10.7306,-10.6934,-10.6934,-10.7103,-10.7137,-10.7001,-10.6967,-10.6934,-10.69,-10.7103,-10.7204,-10.7238,-10.7238,-10.7001,-10.717,-10.761,-10.8151,-10.8727,-11.0118,-11.1763,-11.3579,-11.5504,-11.7544,-11.9377,-12.0304,-12.0912,-2.6987,-3.1474,-3.1677,-3.1677,-3.1677,-3.1677,-3.1677,-3.1677,-3.1677,-3.3135,-3.5509,-3.7879,-3.954,-4.1145,-4.5337,-4.8032,-4.8926,-4.8856,-4.8848,-4.8887,-4.9023,-4.9258,-4.9629,-5.0346,-5.1507,-5.3813,-5.6221,-5.8791,-6.0022,-6.3827,-6.7592,-6.7844,-6.8346,-6.9074,-6.9652,-7.0129,-7.1185,-7.276,-7.5066,-7.7602,-8.0278,-8.2857,-8.5023,-8.634,-8.6838,-8.7706,-8.8544,-8.8813,-8.9651,-9.0459,-9.0638,-9.0638,-9.0638,-9.0698,-9.1237,-9.2471,-9.4066,-9.6337,-9.8699,-10.0685,-10.197,-10.2958,-10.3212,-10.3382,-10.3483,-10.3382,-10.3483,-10.3551,-10.3077,-10.284,-10.3551,-10.4227,-10.4971,-10.5716,-10.6325,-10.6967,-10.7035,-10.7035,-10.6967,-10.69,-10.7001,-10.717,-10.7238,-10.7306,-10.7543,-10.7982,-10.8185,-10.8253,-10.8253,-10.8219,-10.7509,-10.7001,-10.7272,-10.7441,-10.734,-10.7373,-10.7509,-10.7712,-10.8016,-10.805,-10.7847,-10.7881,-10.8016,-10.8253,-10.8557,-10.9168,-10.9813,-11.1104,-11.2645,-11.4509,-11.6356,-11.8191,-11.966,-12.0475,-12.0912,-2.718,-3.1677,-3.1677,-3.1677,-3.1677,-3.1677,-3.1677,-3.1677,-3.1677,-3.3135,-3.5881,-3.8111,-4.0487,-4.3163,-4.6523,-4.8169,-4.8783,-4.8934,-4.8867,-4.8887,-4.9258,-4.9492,-4.9766,-5.0581,-5.2108,-5.501,-5.759,-5.9886,-6.1897,-6.5189,-6.7743,-6.7894,-6.8597,-6.9351,-7.0054,-7.043,-7.1934,-7.4694,-7.6195,-7.8122,-8.1693,-8.4141,-8.606,-8.6689,-8.7287,-8.8005,-8.8663,-8.9292,-8.998,-9.0399,-9.0638,-9.0638,-9.0489,-9.0519,-9.1237,-9.285,-9.4574,-9.6616,-9.8927,-10.075,-10.1581,-10.2318,-10.2536,-10.2705,-10.2806,-10.284,-10.3009,-10.3111,-10.2773,-10.3145,-10.3787,-10.4363,-10.5039,-10.5851,-10.6595,-10.7204,-10.7509,-10.761,-10.7745,-10.7712,-10.7745,-10.7915,-10.8354,-10.8456,-10.8185,-10.8828,-10.9166,-10.92,-10.9132,-10.9065,-10.8524,-10.761,-10.7779,-10.8118,-10.8118,-10.8151,-10.8321,-10.8557,-10.8828,-10.8963,-10.8931,-10.9066,-10.9132,-10.9268,-10.9369,-11.0119,-11.1005,-11.2289,-11.3697,-11.5908,-11.7502,-11.8904,-12.0043,-12.0682,-12.0912,-2.8752,-3.1664,-3.1677,-3.1677,-3.1677,-3.1677,-3.1677,-3.1677,-3.1677,-3.4046,-3.7759,-3.9257,-4.1944,-4.5611,-4.7192,-4.8444,-4.8836,-4.8954,-4.8848,-4.9004,-4.9316,-4.957,-4.9953,-5.0987,-5.2862,-5.5178,-5.7973,-6.148,-6.4537,-6.674,-6.8146,-6.8497,-6.9225,-7.0003,-7.038,-7.084,-7.2785,-7.6375,-7.7198,-7.9012,-8.2378,-8.4787,-8.6599,-8.6898,-8.7377,-8.8095,-8.8723,-8.9322,-8.998,-9.0489,-9.0608,-9.0399,-8.992,-8.992,-9.107,-9.3201,-9.5181,-9.7391,-9.9289,-10.1097,-10.2256,-10.2315,-10.2536,-10.2536,-10.2536,-10.2536,-10.257,-10.2671,-10.2908,-10.3449,-10.399,-10.4498,-10.5107,-10.5953,-10.6764,-10.734,-10.7915,-10.8151,-10.8388,-10.8456,-10.849,-10.8828,-10.9234,-10.9369,-10.9132,-10.9335,-10.9809,-10.9978,-10.9911,-10.9843,-10.9775,-10.9065,-10.876,-10.8896,-10.8896,-10.8963,-10.9132,-10.9234,-10.9471,-10.9744,-10.9879,-10.9879,-10.9775,-10.9978,-11.032,-11.1038,-11.1888,-11.2989,-11.4753,-11.6819,-11.8265,-11.9566,-12.0179,-12.0912,-12.0912,-2.9338,-3.1664,-3.1677,-3.1677,-3.1677,-3.1677,-3.1677,-3.1677,-3.1677,-3.442,-3.8677,-3.9724,-4.2485,-4.698,-4.8008,-4.8457,-4.8808,-4.8848,-4.8848,-4.8984,-4.9316,-4.9629,-5.0326,-5.1828,-5.4424,-5.6989,-6.0638,-6.4255,-6.6741,-6.8121,-6.8801,-6.9049,-6.9853,-7.048,-7.094,-7.1854,-7.3934,-7.7909,-7.8179,-8.0427,-8.3232,-8.5189,-8.6509,-8.6838,-8.7766,-8.8424,-8.8963,-8.9501,-8.9771,-8.995,-8.986,-8.9621,-8.9382,-8.9561,-9.0605,-9.2483,-9.4898,-9.775,-9.9647,-10.1348,-10.2846,-10.2671,-10.2536,-10.2536,-10.2536,-10.2536,-10.2536,-10.2603,-10.2603,-10.3043,-10.3787,-10.4363,-10.5073,-10.5885,-10.6528,-10.7137,-10.7543,-10.7881,-10.8084,-10.8253,-10.8422,-10.8896,-10.9369,-10.9911,-10.9843,-11.0316,-11.0722,-11.0689,-11.0655,-11.0519,-11.0486,-11.035,-10.9911,-10.9708,-10.9674,-10.9775,-10.9944,-11.0046,-11.0114,-11.0384,-11.0692,-11.0384,-11.0384,-11.0553,-11.0966,-11.1754,-11.2598,-11.394,-11.5488,-11.7645,-11.8871,-11.9943,-12.0548,-12.0912,-12.0912,-2.9721,-3.1664,-3.1677,-3.1677,-3.1677,-3.1677,-3.1704,-3.192,-3.2287,-3.4897,-3.9057,-4.0109,-4.3377,-4.6295,-4.8105,-4.8496,-4.8769,-4.8828,-4.8848,-4.9004,-4.9433,-4.9668,-5.0981,-5.3009,-5.6043,-5.9545,-6.336,-6.539,-6.7216,-6.8701,-6.961,-6.9577,-7.0154,-7.0832,-7.2073,-7.369,-7.5745,-7.8583,-8.0389,-8.2895,-8.4456,-8.5342,-8.6299,-8.7377,-8.8334,-8.8993,-8.9441,-8.9651,-8.9651,-8.9382,-8.9112,-8.8723,-8.8813,-8.9082,-9.0607,-9.2279,-9.5041,-9.7217,-9.9069,-10.1252,-10.2214,-10.2536,-10.2536,-10.2536,-10.2536,-10.2536,-10.2536,-10.2536,-10.2536,-10.2942,-10.3686,-10.4295,-10.5039,-10.5919,-10.6528,-10.6934,-10.7272,-10.7712,-10.8016,-10.8219,-10.8659,-10.9065,-10.9741,-11.0316,-11.0689,-11.1196,-11.1399,-11.1399,-11.1298,-11.1095,-11.0959,-11.0892,-11.0655,-11.0519,-11.0452,-11.0452,-11.0587,-11.0722,-11.0824,-11.1162,-11.1298,-11.0993,-11.0892,-11.1128,-11.1648,-11.2197,-11.3519,-11.5,-11.6704,-11.848,-11.9464,-12.0413,-12.0548,-12.0912,-12.0912,-3.1284,-3.1677,-3.1677,-3.1677,-3.1677,-3.1677,-3.1797,-3.2367,-3.4245,-3.6976,-3.9835,-4.2609,-4.5426,-4.7637,-4.8418,-4.8808,-4.8808,-4.8848,-4.8848,-4.8945,-4.9551,-4.9746,-5.0981,-5.3862,-5.7652,-6.1492,-6.4744,-6.6291,-6.7744,-6.9612,-7.0295,-6.9627,-7.0556,-7.1217,-7.1636,-7.3663,-7.6337,-7.9003,-8.134,-8.357,-8.5664,-8.6479,-8.6808,-8.7646,-8.8334,-8.8993,-8.9471,-8.9651,-8.9651,-8.9322,-8.8604,-8.8065,-8.8215,-8.8927,-9.0411,-9.2754,-9.5319,-9.7768,-9.9863,-10.1586,-10.2373,-10.2536,-10.2536,-10.2536,-10.2536,-10.2536,-10.2536,-10.2536,-10.2705,-10.3348,-10.399,-10.4396,-10.5039,-10.6257,-10.7103,-10.7069,-10.717,-10.7948,-10.8557,-10.8862,-10.9268,-10.9944,-11.0722,-11.1027,-11.0959,-11.1331,-11.1399,-11.1399,-11.1399,-11.1399,-11.1399,-11.1298,-11.1162,-11.1264,-11.1162,-11.1027,-11.1095,-11.1298,-11.1399,-11.1399,-11.1399,-11.1399,-11.1399,-11.1399,-11.1854,-11.2401,-11.3975,-11.5728,-11.7534,-11.9221,-12.008,-12.0815,-12.0912,-12.0912,-12.0912]},{"header":{"parameterUnit":"m.s-1","parameterCategory":1,"la1":31.0,"la2":29.5877,"lo1":-88.7671,"lo2":-86.6584,"dx":0.0162,"dy":0.0185,"nx":115,"ny":88,"refTime":"2022-12-12T06:00:00:Z","depth":0,"parameterNumber":3,"parameterNumberName":"V-component_of_WINDS"},"data":[0.0,0.0,0.0,0.0,0.0,0.0,0.0,0.0,0.0,0.0,0.0,0.0,0.0,0.0,0.0,0.0,0.0,0.0,0.0,0.0,0.0,0.0,0.0,0.0,0.0,0.0,0.0,0.0,0.0,0.0,0.0,0.0,0.0,0.0,0.0,0.0,0.0,0.0,0.0,0.0,0.0,0.0,0.0,0.0,0.0,0.0,0.0,0.0,0.0,0.0,0.0,0.0,0.0,0.0,0.0,0.0,0.0,0.0,0.0,0.0,0.0,0.0,0.0,0.0,0.0,0.0,0.0,0.0,0.0,0.0,0.0,0.0,0.0,0.0,0.0,0.0,0.0,0.0,0.0,0.0,0.0,0.0,0.0,0.0,0.0,0.0,0.0,0.0,0.0,0.0,0.0,0.0,0.0,0.0,0.0,0.0,0.0,0.0,0.0,0.0,0.0,0.0,0.0,0.0,0.0,0.0,0.0,0.0,0.0,0.0,0.0,0.0,0.0,0.0,0.0,0.0,0.0,0.0,0.0,0.0,0.0,0.0,0.0,0.0,0.0,0.0,0.0,0.0,0.0,0.0,0.0,0.0,0.0,0.0,0.0,0.0,0.0,0.0,0.0,0.0,0.0,0.0,0.0,0.0,0.0,0.0,0.0,0.0,0.0,0.0,0.0,0.0,0.0,0.0,0.0,0.0,0.0,0.0,0.0,0.0,0.0,0.0,0.0,0.0,0.0,0.0,0.0,0.0,0.0,0.0,0.0,0.0,0.0,0.0,0.0,0.0,0.0,0.0,0.0,0.0,0.0,0.0,0.0,0.0,0.0,0.0,0.0,0.0,0.0,0.0,0.0,0.0,0.0,0.0,0.0,0.0,0.0,0.0,0.0,0.0,0.0,0.0,0.0,0.0,0.0,0.0,0.0,0.0,0.0,0.0,0.0,0.0,0.0,0.0,0.0,0.0,0.0,0.0,0.0,0.0,0.0,0.0,0.0,0.0,0.0,0.0,0.0,0.0,0.0,0.0,0.0,0.0,0.0,0.0,0.0,0.0,0.0,0.0,0.0,0.0,0.0,0.0,0.0,0.0,0.0,0.0,0.0,0.0,0.0,0.0,0.0,0.0,0.0,0.0,0.0,0.0,0.0,0.0,0.0,0.0,0.0,0.0,0.0,0.0,0.0,0.0,0.0,0.0,0.0,0.0,0.0,0.0,0.0,0.0,0.0,0.0,0.0,0.0,0.0,0.0,0.0,0.0,0.0,0.0,0.0,0.0,0.0,0.0,0.0,0.0,0.0,0.0,0.0,0.0,0.0,0.0,0.0,0.0,0.0,0.0,0.0,0.0,0.0,0.0,0.0,0.0,0.0,0.0,0.0,0.0,0.0,0.0,0.0,0.0,0.0,0.0,0.0,0.0,0.0,0.0,0.0,0.0,0.0,0.0,0.0,0.0,0.0,0.0,0.0,0.0,0.0,0.0,0.0,0.0,0.0,0.0,0.0,0.0,0.0,0.0,0.0,0.0,0.0,0.0,0.0,0.0,0.0,0.0,0.0,0.0,0.0,0.0,0.0,0.0,0.0,0.0,0.0,0.0,0.0,0.0,0.0,0.0,0.0,0.0,0.0,0.0,0.0,0.0,0.0,0.0,0.0,0.0,0.0,0.0,0.0,0.0,0.0,0.0,0.0,0.0,0.0,0.0,0.0,0.0,0.0,0.0,0.0,0.0,0.0,0.0,0.0,0.0,0.0,0.0,0.0,0.0,0.0,0.0,0.0,0.0,0.0,0.0,0.0,0.0,0.0,0.0,0.0,0.0,0.0,0.0,0.0,0.0,0.0,0.0,0.0,0.0,0.0,0.0,0.0,0.0,0.0,0.0,0.0,0.0,0.0,0.0,0.0,0.0,0.0,0.0,0.0,0.0,0.0,0.0,0.0,0.0,0.0,0.0,0.0,0.0,0.0,0.0,0.0,0.0,0.0,0.0,0.0,0.0,0.0,0.0,0.0,0.0,0.0,0.0,0.0,0.0,0.0,0.0,0.0,0.0,0.0,0.0,0.0,0.0,0.0,0.0,0.0,0.0,0.0,0.0,0.0,0.0,0.0,0.0,0.0,0.0,0.0,0.0,0.0,0.0,0.0,0.0,0.0,0.0,0.0,0.0,0.0,0.0,0.0,0.0,0.0,0.0,0.0,0.0,0.0,0.0,0.0,0.0,0.0,0.0,0.0,0.0,0.0,0.0,0.0,0.0,0.0,0.0,0.0,0.0,0.0,0.0,0.0,0.0,0.0,0.0,0.0,0.0,0.0,0.0,0.0,0.0,0.0,0.0,0.0,0.0,0.0,0.0,0.0,0.0,0.0,0.0,0.0,0.0,0.0,0.0,0.0,0.0,0.0,0.0,0.0,0.0,0.0,0.0,0.0,0.0,0.0,0.0,0.0,0.0,0.0,0.0,0.0,0.0,0.0,0.0,0.0,0.0,0.0,0.0,0.0,0.0,0.0,0.0,0.0,0.0,0.0,0.0,0.0,0.0,0.0,0.0,0.0,0.0,0.0,0.0,0.0,0.0,0.0,0.0,0.0,0.0,0.0,0.0,0.0,0.0,0.0,0.0,0.0,0.0,0.0,0.0,0.0,0.0,0.0,0.0,0.0,0.0,0.0,0.0,0.0,0.0,0.0,0.0,0.0,0.0,0.0,0.0,0.0,0.0,0.0,0.0,0.0,0.0,0.0,0.0,0.0,0.0,0.0,0.0,0.0,0.0,0.0,0.0,0.0,0.0,0.0,0.0,0.0,0.0,0.0,0.0,0.0,0.0,0.0,0.0,0.0,0.0,0.0,0.0,0.0,0.0,0.0,0.0,0.0,0.0,0.0,0.0,0.0,0.0,0.0,0.0,0.0,0.0,0.0,0.0,0.0,0.0,0.0,0.0,0.0,0.0,0.0,0.0,0.0,0.0,0.0,0.0,0.0,0.0,0.0,0.0,0.0,0.0,0.0,0.0,0.0,0.0,0.0,0.0,0.0,0.0,0.0,0.0,0.0,0.0,0.0,0.0,0.0,0.0,0.0,0.0,0.0,0.0,0.0,0.0,0.0,0.0,0.0,0.0,0.0,0.0,0.0,0.0,0.0,0.0,0.0,0.0,0.0,0.0,0.0,0.0,0.0,0.0,0.0,0.0,0.0,0.0,0.0,0.0,0.0,0.0,0.0,0.0,0.0,0.0,0.0,0.0,0.0,0.0,0.0,0.0,0.0,0.0,0.0,0.0,0.0,0.0,0.0,0.0,0.0,0.0,0.0,0.0,0.0,0.0,0.0,0.0,0.0,0.0,0.0,0.0,0.0,0.0,0.0,0.0,0.0,0.0,0.0,0.0,0.0,0.0,0.0,0.0,0.0,0.0,0.0,0.0,0.0,0.0,0.0,0.0,0.0,0.0,0.0,0.0,0.0,0.0,0.0,0.0,0.0,0.0,0.0,0.0,0.0,0.0,0.0,0.0,0.0,0.0,0.0,0.0,0.0,0.0,0.0,0.0,0.0,0.0,0.0,0.0,0.0,0.0,0.0,0.0,0.0,0.0,0.0,0.0,0.0,0.0,0.0,0.0,0.0,0.0,0.0,0.0,0.0,0.0,0.0,0.0,0.0,0.0,0.0,0.0,0.0,0.0,0.0,0.0,0.0,0.0,0.0,0.0,0.0,0.0,0.0,0.0,0.0,0.0,0.0,0.0,0.0,0.0,0.0,0.0,0.0,0.0,0.0,0.0,0.0,0.0,0.0,0.0,0.0,0.0,0.0,0.0,0.0,0.0,0.0,0.0,0.0,0.0,0.0,0.0,0.0,0.0,0.0,0.0,0.0,0.0,0.0,0.0,0.0,0.0,0.0,0.0,0.0,0.0,0.0,0.0,0.0,0.0,0.0,0.0,0.0,0.0,0.0,0.0,0.0,0.0,0.0,0.0,0.0,0.0,0.0,0.0,0.0,0.0,0.0,0.0,0.0,0.0,0.0,0.0,0.0,0.0,0.0,0.0,0.0,0.0,0.0,0.0,0.0,0.0,0.0,0.0,0.0,0.0,0.0,0.0,0.0,0.0,0.0,0.0,0.0,0.0,0.0,0.0,0.0,0.0,0.0,0.0,0.0,0.0,0.0,0.0,0.0,0.0,0.0,0.0,0.0,0.0,0.0,0.0,0.0,0.0,0.0,0.0,0.0,0.0,0.0,0.0,0.0,0.0,0.0,0.0,0.0,0.0,0.0,0.0,0.0,0.0,-3.0389,0.0,0.0,0.0,-2.796,0.0,0.0,0.0,0.0,0.0,0.0,0.0,0.0,0.0,0.0,0.0,0.0,0.0,0.0,0.0,0.0,0.0,0.0,0.0,0.0,0.0,0.0,0.0,0.0,0.0,0.0,0.0,0.0,0.0,0.0,0.0,0.0,0.0,0.0,0.0,0.0,0.0,0.0,0.0,0.0,0.0,0.0,0.0,0.0,0.0,0.0,0.0,0.0,0.0,0.0,0.0,0.0,0.0,0.0,0.0,0.0,0.0,0.0,0.0,0.0,0.0,0.0,0.0,0.0,0.0,0.0,0.0,0.0,0.0,0.0,0.0,0.0,0.0,0.0,0.0,0.0,0.0,0.0,0.0,0.0,0.0,0.0,0.0,0.0,0.0,0.0,0.0,0.0,0.0,0.0,0.0,0.0,0.0,0.0,0.0,0.0,0.0,0.0,0.0,0.0,0.0,0.0,0.0,0.0,0.0,0.0,0.0,0.0,0.0,0.0,-3.0448,-3.0329,-3.1247,-3.046,-2.7881,0.0,0.0,0.0,0.0,0.0,0.0,0.0,0.0,0.0,0.0,0.0,0.0,0.0,0.0,0.0,0.0,0.0,0.0,0.0,0.0,0.0,0.0,0.0,0.0,0.0,0.0,0.0,0.0,0.0,0.0,0.0,0.0,0.0,0.0,0.0,0.0,0.0,0.0,0.0,0.0,0.0,0.0,0.0,0.0,0.0,0.0,0.0,0.0,0.0,0.0,0.0,0.0,0.0,0.0,0.0,0.0,0.0,0.0,0.0,0.0,0.0,0.0,0.0,0.0,0.0,0.0,0.0,0.0,0.0,0.0,0.0,0.0,0.0,0.0,0.0,0.0,0.0,0.0,0.0,0.0,0.0,0.0,0.0,0.0,0.0,0.0,0.0,0.0,0.0,0.0,0.0,0.0,0.0,0.0,0.0,0.0,0.0,0.0,0.0,0.0,0.0,0.0,0.0,0.0,0.0,0.0,0.0,0.0,0.0,0.0,0.0,0.0,-3.1422,-3.0581,-2.7994,0.0,0.0,0.0,0.0,0.0,0.0,0.0,0.0,0.0,0.0,0.0,0.0,0.0,0.0,0.0,0.0,0.0,0.0,0.0,0.0,0.0,0.0,0.0,0.0,0.0,0.0,0.0,0.0,0.0,0.0,0.0,0.0,0.0,0.0,0.0,0.0,0.0,0.0,0.0,0.0,0.0,0.0,0.0,0.0,0.0,0.0,0.0,0.0,0.0,0.0,0.0,0.0,0.0,0.0,0.0,0.0,0.0,0.0,0.0,0.0,0.0,0.0,0.0,0.0,0.0,0.0,0.0,0.0,0.0,0.0,0.0,0.0,0.0,0.0,0.0,0.0,0.0,0.0,0.0,0.0,0.0,0.0,0.0,0.0,0.0,0.0,0.0,0.0,0.0,0.0,0.0,0.0,0.0,0.0,0.0,0.0,0.0,0.0,0.0,0.0,0.0,0.0,0.0,0.0,0.0,0.0,0.0,0.0,0.0,0.0,-3.1006,-3.1974,-3.12,0.0,-2.8243,0.0,0.0,0.0,0.0,0.0,0.0,0.0,0.0,0.0,0.0,0.0,0.0,0.0,0.0,0.0,0.0,0.0,0.0,0.0,0.0,0.0,0.0,0.0,0.0,0.0,0.0,0.0,0.0,0.0,0.0,0.0,0.0,0.0,0.0,0.0,0.0,0.0,0.0,0.0,0.0,0.0,0.0,0.0,0.0,0.0,0.0,0.0,0.0,0.0,0.0,0.0,0.0,0.0,0.0,0.0,0.0,0.0,0.0,0.0,0.0,0.0,0.0,0.0,0.0,0.0,0.0,0.0,0.0,0.0,0.0,0.0,0.0,0.0,0.0,0.0,0.0,0.0,0.0,0.0,0.0,0.0,0.0,0.0,0.0,0.0,0.0,0.0,0.0,0.0,0.0,0.0,0.0,0.0,0.0,0.0,0.0,0.0,0.0,0.0,0.0,0.0,0.0,0.0,0.0,0.0,0.0,0.0,0.0,0.0,0.0,-3.1714,-3.1797,-3.0315,-2.9,0.0,0.0,0.0,0.0,0.0,0.0,0.0,0.0,0.0,0.0,0.0,0.0,0.0,0.0,0.0,0.0,0.0,0.0,0.0,0.0,0.0,0.0,0.0,0.0,0.0,0.0,0.0,0.0,0.0,0.0,0.0,0.0,0.0,0.0,0.0,0.0,0.0,0.0,0.0,0.0,0.0,0.0,0.0,0.0,0.0,0.0,0.0,0.0,0.0,0.0,0.0,0.0,0.0,0.0,0.0,0.0,0.0,0.0,0.0,0.0,0.0,0.0,0.0,0.0,0.0,0.0,0.0,0.0,0.0,0.0,0.0,0.0,0.0,0.0,0.0,0.0,0.0,0.0,0.0,0.0,0.0,0.0,0.0,0.0,0.0,0.0,0.0,0.0,0.0,0.0,0.0,0.0,0.0,0.0,0.0,0.0,0.0,0.0,0.0,0.0,0.0,0.0,0.0,0.0,0.0,0.0,0.0,0.0,0.0,0.0,-3.2347,-3.2745,-3.2046,-3.0407,-2.8847,-2.7544,0.0,0.0,0.0,0.0,0.0,0.0,0.0,0.0,0.0,0.0,0.0,0.0,0.0,0.0,0.0,0.0,0.0,0.0,0.0,0.0,0.0,0.0,0.0,0.0,0.0,0.0,0.0,0.0,0.0,0.0,0.0,0.0,0.0,0.0,0.0,0.0,0.0,0.0,0.0,0.0,0.0,0.0,0.0,0.0,0.0,0.0,0.0,0.0,0.0,0.0,0.0,0.0,0.0,0.0,0.0,0.0,0.0,0.0,0.0,0.0,0.0,0.0,0.0,0.0,0.0,0.0,0.0,0.0,0.0,0.0,0.0,0.0,0.0,0.0,0.0,0.0,0.0,0.0,0.0,0.0,0.0,0.0,0.0,0.0,0.0,0.0,0.0,0.0,0.0,0.0,0.0,0.0,0.0,0.0,0.0,0.0,0.0,0.0,0.0,0.0,0.0,0.0,0.0,0.0,0.0,0.0,0.0,0.0,-3.4055,-3.4271,-3.4061,-3.3515,-3.1784,-3.0051,0.0,0.0,0.0,0.0,0.0,0.0,0.0,0.0,0.0,0.0,0.0,0.0,0.0,0.0,0.0,0.0,0.0,0.0,0.0,0.0,0.0,0.0,0.0,0.0,0.0,0.0,0.0,0.0,0.0,0.0,0.0,0.0,0.0,0.0,0.0,0.0,0.0,0.0,0.0,0.0,0.0,0.0,0.0,0.0,0.0,0.0,0.0,0.0,0.0,0.0,0.0,0.0,0.0,0.0,0.0,0.0,0.0,0.0,0.0,0.0,0.0,0.0,0.0,0.0,0.0,0.0,0.0,0.0,0.0,0.0,0.0,0.0,0.0,0.0,0.0,0.0,0.0,0.0,0.0,0.0,0.0,0.0,0.0,0.0,0.0,0.0,0.0,0.0,0.0,0.0,0.0,0.0,0.0,0.0,0.0,0.0,0.0,0.0,0.0,0.0,0.0,0.0,0.0,0.0,0.0,0.0,0.0,0.0,0.0,-3.1898,-3.2349,-3.3283,-3.4526,-3.1474,-2.9479,0.0,0.0,0.0,0.0,0.0,0.0,0.0,0.0,0.0,0.0,0.0,0.0,0.0,0.0,0.0,0.0,0.0,0.0,0.0,0.0,0.0,0.0,0.0,0.0,0.0,0.0,0.0,0.0,0.0,0.0,0.0,0.0,0.0,0.0,0.0,0.0,0.0,0.0,0.0,0.0,0.0,0.0,0.0,0.0,0.0,0.0,0.0,0.0,0.0,0.0,0.0,0.0,0.0,0.0,0.0,0.0,0.0,0.0,0.0,0.0,0.0,0.0,0.0,0.0,0.0,0.0,0.0,0.0,0.0,0.0,0.0,0.0,0.0,0.0,0.0,0.0,0.0,0.0,0.0,0.0,0.0,0.0,0.0,0.0,0.0,0.0,0.0,0.0,0.0,0.0,0.0,0.0,0.0,0.0,0.0,0.0,0.0,0.0,0.0,0.0,0.0,0.0,0.0,0.0,0.0,0.0,0.0,0.0,0.0,-3.3008,-3.41,-3.4901,-3.5355,-3.2328,-3.0114,0.0,0.0,0.0,0.0,0.0,0.0,0.0,0.0,0.0,0.0,0.0,0.0,0.0,0.0,0.0,0.0,0.0,0.0,0.0,0.0,0.0,0.0,0.0,0.0,0.0,0.0,0.0,0.0,0.0,0.0,0.0,0.0,0.0,0.0,0.0,0.0,0.0,0.0,0.0,0.0,0.0,0.0,0.0,0.0,0.0,0.0,0.0,0.0,0.0,0.0,0.0,0.0,0.0,0.0,0.0,0.0,0.0,0.0,0.0,0.0,0.0,0.0,0.0,0.0,0.0,0.0,0.0,0.0,0.0,0.0,0.0,0.0,0.0,0.0,0.0,0.0,0.0,0.0,0.0,0.0,0.0,0.0,0.0,0.0,0.0,0.0,0.0,0.0,0.0,0.0,0.0,0.0,0.0,0.0,0.0,0.0,0.0,0.0,0.0,0.0,0.0,0.0,0.0,0.0,0.0,0.0,0.0,0.0,-3.3157,-3.8051,-3.9811,-3.9015,-3.6043,-3.4541,-3.1887,0.0,0.0,0.0,0.0,0.0,0.0,0.0,0.0,0.0,0.0,0.0,0.0,0.0,0.0,0.0,0.0,0.0,0.0,0.0,0.0,0.0,0.0,0.0,0.0,0.0,0.0,0.0,0.0,0.0,0.0,0.0,0.0,0.0,0.0,0.0,0.0,0.0,0.0,0.0,0.0,0.0,0.0,0.0,0.0,0.0,0.0,0.0,0.0,0.0,0.0,0.0,0.0,0.0,0.0,0.0,0.0,0.0,0.0,0.0,0.0,0.0,0.0,0.0,0.0,0.0,0.0,0.0,0.0,0.0,0.0,0.0,0.0,0.0,0.0,0.0,0.0,0.0,0.0,0.0,0.0,0.0,0.0,0.0,0.0,0.0,0.0,0.0,0.0,0.0,0.0,0.0,0.0,0.0,0.0,0.0,0.0,0.0,0.0,0.0,0.0,0.0,0.0,0.0,0.0,0.0,0.0,0.0,0.0,0.0,-3.574,-3.706,-3.7334,-3.6389,-3.3328,-3.1538,0.0,0.0,0.0,0.0,0.0,0.0,0.0,0.0,0.0,0.0,0.0,0.0,0.0,0.0,0.0,0.0,0.0,0.0,0.0,0.0,0.0,0.0,0.0,0.0,0.0,0.0,0.0,0.0,0.0,0.0,0.0,0.0,0.0,0.0,0.0,0.0,0.0,0.0,0.0,0.0,0.0,0.0,0.0,0.0,0.0,0.0,0.0,0.0,0.0,0.0,0.0,0.0,0.0,0.0,0.0,0.0,0.0,0.0,0.0,0.0,0.0,0.0,0.0,0.0,0.0,0.0,0.0,0.0,0.0,0.0,0.0,0.0,0.0,0.0,0.0,0.0,0.0,0.0,0.0,0.0,0.0,0.0,0.0,0.0,0.0,0.0,0.0,0.0,0.0,0.0,0.0,0.0,0.0,0.0,0.0,0.0,0.0,0.0,0.0,0.0,0.0,0.0,0.0,0.0,0.0,0.0,0.0,0.0,0.0,-3.8061,-3.9816,-4.0165,-3.8893,-3.5709,-3.3556,-3.2416,0.0,0.0,0.0,0.0,0.0,0.0,0.0,0.0,0.0,0.0,0.0,0.0,0.0,0.0,0.0,0.0,0.0,0.0,0.0,0.0,0.0,0.0,0.0,0.0,0.0,0.0,0.0,0.0,0.0,0.0,0.0,0.0,0.0,0.0,0.0,0.0,0.0,0.0,0.0,0.0,0.0,0.0,0.0,0.0,0.0,0.0,0.0,0.0,0.0,0.0,0.0,0.0,0.0,0.0,0.0,0.0,0.0,0.0,0.0,0.0,0.0,0.0,0.0,0.0,0.0,0.0,0.0,0.0,0.0,0.0,0.0,0.0,0.0,0.0,0.0,0.0,0.0,0.0,0.0,0.0,0.0,0.0,0.0,0.0,0.0,0.0,0.0,0.0,0.0,0.0,0.0,0.0,0.0,0.0,0.0,0.0,0.0,0.0,0.0,0.0,0.0,0.0,0.0,0.0,0.0,0.0,0.0,0.0,-4.3934,-4.7234,-4.6854,-4.2651,-4.0676,-3.7274,0.0,0.0,0.0,0.0,0.0,0.0,0.0,0.0,0.0,0.0,0.0,0.0,0.0,0.0,0.0,0.0,0.0,0.0,0.0,0.0,0.0,0.0,0.0,0.0,0.0,0.0,0.0,0.0,0.0,0.0,0.0,0.0,0.0,0.0,0.0,0.0,0.0,0.0,0.0,0.0,0.0,0.0,0.0,0.0,0.0,0.0,0.0,0.0,0.0,0.0,0.0,0.0,0.0,0.0,0.0,0.0,0.0,0.0,0.0,0.0,0.0,0.0,0.0,0.0,0.0,0.0,0.0,0.0,0.0,0.0,0.0,0.0,0.0,0.0,0.0,0.0,0.0,0.0,0.0,0.0,0.0,0.0,0.0,0.0,0.0,0.0,0.0,0.0,0.0,0.0,0.0,0.0,0.0,0.0,0.0,0.0,0.0,0.0,0.0,0.0,0.0,0.0,0.0,0.0,0.0,0.0,0.0,0.0,0.0,-4.737,-5.0443,-4.9811,-4.5193,-4.126,-3.8282,0.0,0.0,0.0,0.0,0.0,0.0,0.0,0.0,0.0,0.0,0.0,0.0,0.0,0.0,0.0,0.0,0.0,0.0,0.0,0.0,0.0,0.0,0.0,0.0,0.0,0.0,0.0,0.0,0.0,0.0,0.0,0.0,0.0,0.0,0.0,0.0,0.0,0.0,0.0,0.0,0.0,0.0,0.0,0.0,0.0,0.0,0.0,0.0,0.0,0.0,0.0,0.0,0.0,0.0,0.0,0.0,0.0,0.0,0.0,0.0,0.0,0.0,0.0,0.0,0.0,0.0,0.0,0.0,0.0,0.0,0.0,0.0,0.0,0.0,0.0,0.0,0.0,0.0,0.0,0.0,0.0,0.0,0.0,0.0,0.0,0.0,0.0,0.0,0.0,0.0,0.0,0.0,0.0,0.0,0.0,0.0,0.0,0.0,0.0,0.0,0.0,0.0,0.0,0.0,0.0,0.0,0.0,0.0,-4.5934,-5.0037,-5.2955,-5.3023,-5.0078,-4.4383,-4.0249,0.0,0.0,0.0,0.0,0.0,0.0,0.0,0.0,0.0,0.0,0.0,0.0,0.0,0.0,0.0,0.0,0.0,0.0,0.0,0.0,0.0,0.0,0.0,0.0,0.0,0.0,0.0,0.0,0.0,0.0,0.0,0.0,0.0,0.0,0.0,0.0,0.0,0.0,0.0,0.0,0.0,0.0,0.0,0.0,0.0,0.0,0.0,0.0,0.0,0.0,0.0,0.0,0.0,0.0,0.0,0.0,0.0,0.0,0.0,0.0,0.0,0.0,0.0,0.0,0.0,0.0,0.0,0.0,0.0,0.0,0.0,0.0,0.0,0.0,0.0,0.0,0.0,0.0,0.0,0.0,0.0,0.0,0.0,0.0,0.0,0.0,0.0,0.0,0.0,0.0,0.0,0.0,0.0,0.0,0.0,0.0,0.0,0.0,0.0,0.0,0.0,0.0,0.0,0.0,0.0,0.0,0.0,0.0,-4.8188,-5.2036,-5.4988,-5.6168,-5.539,-4.856,-4.2836,0.0,0.0,0.0,0.0,0.0,0.0,0.0,0.0,0.0,0.0,0.0,0.0,0.0,0.0,0.0,0.0,0.0,0.0,0.0,0.0,0.0,0.0,0.0,0.0,0.0,0.0,0.0,0.0,0.0,0.0,0.0,0.0,0.0,0.0,0.0,0.0,0.0,0.0,0.0,0.0,0.0,0.0,0.0,0.0,0.0,0.0,0.0,0.0,0.0,0.0,0.0,0.0,0.0,0.0,0.0,0.0,0.0,0.0,0.0,0.0,0.0,0.0,0.0,0.0,0.0,0.0,0.0,0.0,0.0,0.0,0.0,0.0,0.0,0.0,0.0,0.0,0.0,0.0,0.0,0.0,0.0,0.0,0.0,0.0,0.0,0.0,0.0,0.0,0.0,0.0,0.0,0.0,0.0,0.0,0.0,0.0,0.0,0.0,0.0,0.0,0.0,0.0,0.0,0.0,0.0,0.0,0.0,0.0,-5.0922,-5.4052,-5.681,-5.77,-5.6696,-4.9715,-4.4694,0.0,0.0,0.0,0.0,0.0,0.0,0.0,0.0,0.0,0.0,0.0,0.0,0.0,0.0,0.0,0.0,0.0,0.0,0.0,0.0,0.0,0.0,0.0,0.0,0.0,0.0,0.0,0.0,0.0,0.0,0.0,0.0,0.0,0.0,0.0,0.0,0.0,0.0,0.0,0.0,0.0,0.0,0.0,0.0,0.0,0.0,0.0,0.0,-2.2311,0.0,0.0,0.0,0.0,0.0,0.0,0.0,0.0,0.0,0.0,0.0,0.0,0.0,0.0,0.0,0.0,0.0,0.0,0.0,0.0,0.0,0.0,0.0,0.0,0.0,0.0,0.0,0.0,0.0,0.0,0.0,0.0,0.0,0.0,0.0,0.0,0.0,0.0,0.0,0.0,0.0,0.0,0.0,0.0,0.0,0.0,0.0,0.0,0.0,0.0,0.0,0.0,0.0,0.0,0.0,0.0,0.0,0.0,0.0,-5.1656,-5.5121,-5.7277,-5.8052,-5.7298,-5.2729,-4.8033,0.0,0.0,0.0,0.0,0.0,0.0,0.0,0.0,0.0,0.0,0.0,0.0,0.0,0.0,0.0,0.0,0.0,0.0,0.0,0.0,0.0,0.0,0.0,0.0,0.0,0.0,0.0,0.0,0.0,0.0,0.0,0.0,0.0,0.0,0.0,0.0,0.0,0.0,0.0,0.0,0.0,0.0,0.0,0.0,0.0,0.0,0.0,0.0,0.0,0.0,0.0,0.0,0.0,0.0,0.0,0.0,0.0,0.0,0.0,0.0,0.0,0.0,0.0,0.0,0.0,0.0,0.0,0.0,0.0,0.0,0.0,0.0,0.0,0.0,0.0,0.0,0.0,0.0,0.0,0.0,0.0,0.0,0.0,0.0,0.0,0.0,0.0,0.0,0.0,0.0,0.0,0.0,0.0,0.0,0.0,0.0,0.0,0.0,0.0,0.0,0.0,0.0,0.0,0.0,0.0,0.0,0.0,-4.8162,-5.1934,-5.5986,-5.7714,-5.8453,-5.8252,-5.6118,-5.1599,-4.4593,0.0,0.0,0.0,0.0,0.0,0.0,0.0,0.0,0.0,0.0,0.0,0.0,0.0,0.0,0.0,0.0,0.0,0.0,0.0,0.0,0.0,0.0,0.0,0.0,0.0,0.0,0.0,0.0,0.0,0.0,0.0,0.0,0.0,0.0,0.0,0.0,0.0,0.0,-2.5094,-2.3471,0.0,0.0,0.0,0.0,0.0,0.0,0.0,0.0,-2.4272,0.0,0.0,0.0,0.0,0.0,0.0,0.0,0.0,0.0,0.0,0.0,0.0,0.0,0.0,0.0,0.0,0.0,0.0,0.0,0.0,0.0,0.0,0.0,0.0,0.0,0.0,0.0,0.0,0.0,0.0,0.0,0.0,0.0,0.0,0.0,0.0,0.0,0.0,0.0,0.0,0.0,0.0,0.0,0.0,0.0,0.0,0.0,0.0,0.0,0.0,0.0,0.0,0.0,0.0,0.0,0.0,-4.9252,-5.0918,-5.4024,-5.8782,-6.0518,-6.0889,-5.991,-5.7775,-5.3482,-4.6903,0.0,0.0,0.0,0.0,0.0,0.0,0.0,0.0,0.0,0.0,0.0,0.0,0.0,0.0,0.0,0.0,0.0,0.0,0.0,0.0,0.0,0.0,0.0,0.0,0.0,0.0,0.0,0.0,0.0,0.0,0.0,0.0,0.0,0.0,0.0,0.0,0.0,0.0,0.0,-2.6952,-2.498,0.0,0.0,0.0,0.0,0.0,0.0,0.0,0.0,-2.7687,0.0,0.0,0.0,0.0,0.0,0.0,0.0,0.0,0.0,0.0,0.0,0.0,0.0,0.0,0.0,0.0,0.0,0.0,0.0,0.0,0.0,0.0,0.0,0.0,0.0,0.0,0.0,0.0,0.0,0.0,0.0,0.0,0.0,0.0,0.0,0.0,0.0,0.0,0.0,0.0,0.0,0.0,0.0,0.0,0.0,0.0,0.0,0.0,0.0,0.0,0.0,0.0,0.0,0.0,0.0,-4.9239,-5.3528,-5.7162,-6.0342,-6.1441,-6.1617,-6.0738,-5.8353,-5.3783,0.0,0.0,0.0,0.0,0.0,0.0,0.0,0.0,0.0,0.0,0.0,0.0,0.0,0.0,0.0,0.0,0.0,0.0,0.0,0.0,0.0,0.0,0.0,0.0,0.0,0.0,0.0,0.0,0.0,0.0,0.0,0.0,0.0,0.0,0.0,0.0,0.0,0.0,0.0,0.0,-3.0904,-2.9759,-3.3399,0.0,0.0,0.0,0.0,0.0,0.0,-2.8342,-2.8267,0.0,0.0,0.0,0.0,0.0,0.0,0.0,0.0,0.0,0.0,0.0,0.0,0.0,0.0,0.0,0.0,0.0,0.0,0.0,0.0,0.0,0.0,0.0,0.0,0.0,0.0,0.0,0.0,0.0,0.0,0.0,0.0,0.0,0.0,0.0,0.0,0.0,0.0,0.0,0.0,0.0,0.0,0.0,0.0,0.0,0.0,0.0,0.0,0.0,0.0,0.0,0.0,0.0,0.0,0.0,-4.8685,-5.5258,-5.9656,-6.1366,-6.2069,-6.2019,-6.1316,-5.8227,-5.3381,0.0,0.0,0.0,0.0,0.0,0.0,0.0,0.0,0.0,0.0,0.0,0.0,0.0,0.0,0.0,0.0,0.0,0.0,0.0,0.0,0.0,0.0,0.0,0.0,0.0,0.0,0.0,0.0,0.0,0.0,0.0,0.0,0.0,0.0,0.0,0.0,0.0,0.0,0.0,0.0,0.0,-3.4076,-3.754,-3.5369,0.0,0.0,0.0,0.0,-2.9227,-3.0161,0.0,0.0,0.0,0.0,0.0,0.0,0.0,0.0,0.0,0.0,0.0,0.0,0.0,0.0,0.0,0.0,0.0,0.0,0.0,0.0,0.0,0.0,0.0,0.0,0.0,0.0,0.0,0.0,0.0,0.0,0.0,0.0,0.0,0.0,0.0,0.0,0.0,0.0,0.0,0.0,0.0,0.0,0.0,0.0,0.0,0.0,0.0,0.0,0.0,0.0,0.0,0.0,0.0,0.0,0.0,0.0,-4.9694,-5.5017,-5.9357,-6.2421,-6.3199,-6.2998,-6.1893,-5.7323,-5.2402,0.0,0.0,0.0,0.0,0.0,0.0,0.0,0.0,0.0,0.0,0.0,0.0,0.0,0.0,0.0,0.0,0.0,0.0,0.0,0.0,0.0,0.0,0.0,0.0,0.0,0.0,0.0,0.0,0.0,0.0,0.0,0.0,0.0,0.0,0.0,0.0,0.0,0.0,0.0,0.0,0.0,-3.4993,-3.791,-3.6777,-3.5164,0.0,0.0,-3.922,-3.8258,-3.8816,0.0,0.0,0.0,0.0,0.0,0.0,0.0,0.0,0.0,0.0,0.0,0.0,0.0,0.0,0.0,0.0,0.0,0.0,0.0,0.0,0.0,0.0,0.0,0.0,0.0,0.0,0.0,0.0,0.0,0.0,0.0,0.0,0.0,0.0,0.0,0.0,0.0,0.0,0.0,0.0,0.0,0.0,0.0,0.0,0.0,0.0,0.0,0.0,0.0,0.0,0.0,0.0,0.0,0.0,0.0,-4.6678,-5.0148,-5.7564,-6.2147,-6.3249,-6.3852,-6.3776,-6.2973,-5.8127,-5.2879,0.0,0.0,0.0,0.0,0.0,0.0,0.0,0.0,0.0,0.0,0.0,0.0,0.0,0.0,0.0,0.0,0.0,0.0,0.0,0.0,0.0,0.0,0.0,0.0,0.0,0.0,0.0,0.0,0.0,0.0,0.0,0.0,0.0,0.0,0.0,0.0,0.0,0.0,0.0,0.0,0.0,0.0,-4.1474,-4.0546,0.0,0.0,0.0,-4.0273,-3.7241,0.0,0.0,0.0,0.0,0.0,0.0,0.0,0.0,0.0,0.0,0.0,0.0,0.0,0.0,0.0,0.0,0.0,0.0,0.0,0.0,0.0,0.0,0.0,0.0,0.0,0.0,0.0,0.0,0.0,0.0,0.0,0.0,0.0,0.0,0.0,0.0,0.0,0.0,0.0,0.0,0.0,0.0,0.0,0.0,0.0,0.0,0.0,0.0,0.0,0.0,0.0,0.0,0.0,0.0,0.0,0.0,0.0,-5.0602,-6.0252,-6.4982,-6.4354,-6.468,-6.4555,-6.3827,-5.9558,0.0,0.0,0.0,0.0,0.0,0.0,0.0,0.0,0.0,0.0,0.0,0.0,0.0,0.0,0.0,0.0,0.0,0.0,0.0,0.0,0.0,0.0,0.0,0.0,0.0,0.0,0.0,-2.5332,0.0,0.0,0.0,0.0,0.0,0.0,0.0,0.0,0.0,0.0,0.0,0.0,0.0,0.0,-4.2226,-4.3848,-4.3301,-4.2635,0.0,0.0,-4.0884,-3.772,-4.0105,-3.9993,0.0,0.0,0.0,0.0,0.0,0.0,0.0,0.0,0.0,0.0,0.0,0.0,0.0,0.0,0.0,0.0,0.0,0.0,0.0,0.0,0.0,0.0,0.0,0.0,0.0,0.0,0.0,0.0,-3.0479,0.0,0.0,0.0,0.0,0.0,0.0,0.0,0.0,0.0,0.0,0.0,0.0,0.0,0.0,0.0,0.0,0.0,0.0,0.0,0.0,0.0,0.0,0.0,0.0,0.0,-5.0179,-5.1748,-6.2169,-6.7015,-6.5986,-6.5986,-6.5509,-6.4404,-6.1567,-5.5993,0.0,0.0,0.0,0.0,0.0,0.0,0.0,0.0,0.0,0.0,0.0,0.0,0.0,0.0,0.0,0.0,0.0,0.0,0.0,0.0,0.0,0.0,0.0,0.0,0.0,0.0,0.0,0.0,0.0,0.0,0.0,0.0,0.0,0.0,0.0,0.0,0.0,0.0,0.0,0.0,0.0,-4.1699,-4.2988,-4.3437,-4.4219,0.0,-4.3837,-4.2748,-4.4117,-4.5125,-4.3292,-3.5536,0.0,0.0,0.0,0.0,0.0,0.0,0.0,0.0,0.0,0.0,0.0,0.0,0.0,0.0,0.0,0.0,0.0,0.0,0.0,0.0,0.0,0.0,0.0,0.0,0.0,-3.0681,-3.0591,0.0,-3.0417,0.0,0.0,0.0,0.0,0.0,0.0,0.0,0.0,0.0,0.0,0.0,0.0,0.0,0.0,0.0,0.0,0.0,0.0,0.0,0.0,0.0,0.0,0.0,0.0,-5.0937,-5.2364,-6.2194,-6.6915,-6.6162,-6.6112,-6.5735,-6.4982,-6.2621,-5.8152,0.0,0.0,0.0,0.0,0.0,0.0,0.0,0.0,0.0,0.0,0.0,0.0,0.0,0.0,0.0,0.0,0.0,0.0,0.0,0.0,0.0,0.0,0.0,0.0,0.0,0.0,0.0,0.0,-3.3203,-3.3945,-3.2363,0.0,0.0,0.0,0.0,0.0,0.0,0.0,0.0,0.0,0.0,-4.3301,-4.4844,-4.543,0.0,0.0,-4.5801,-4.4412,-4.3379,-4.3491,-4.1323,-3.4326,-3.2809,0.0,0.0,0.0,0.0,0.0,0.0,0.0,0.0,0.0,0.0,0.0,0.0,0.0,0.0,0.0,0.0,0.0,0.0,0.0,0.0,0.0,0.0,0.0,0.0,0.0,0.0,0.0,0.0,0.0,0.0,0.0,0.0,0.0,0.0,0.0,0.0,0.0,0.0,0.0,0.0,0.0,0.0,0.0,0.0,0.0,0.0,0.0,0.0,0.0,0.0,0.0,0.0,-5.1523,-5.2871,-6.2834,-6.7593,-6.6865,-6.7015,-6.6764,-6.6036,-6.4479,-6.0989,-5.5365,0.0,0.0,0.0,0.0,0.0,0.0,0.0,0.0,0.0,0.0,0.0,0.0,0.0,0.0,0.0,0.0,0.0,0.0,0.0,0.0,0.0,0.0,0.0,0.0,0.0,0.0,0.0,-3.4863,-3.5254,-3.3437,0.0,0.0,0.0,0.0,0.0,0.0,0.0,0.0,0.0,0.0,-4.4785,-4.6113,-4.6445,-4.6621,-4.6797,-4.5859,-4.4547,-4.2776,-4.2014,-3.999,-3.5292,0.0,0.0,0.0,0.0,0.0,0.0,0.0,0.0,0.0,0.0,0.0,0.0,0.0,0.0,0.0,0.0,0.0,0.0,0.0,0.0,0.0,0.0,0.0,0.0,0.0,0.0,0.0,-3.0544,0.0,0.0,-3.1558,0.0,0.0,0.0,0.0,0.0,0.0,0.0,0.0,0.0,0.0,0.0,0.0,0.0,0.0,0.0,0.0,0.0,0.0,0.0,0.0,0.0,0.0,-5.2135,-5.3592,-6.4632,-6.9782,-6.8597,-6.9074,-6.8773,-6.7744,-6.7643,-6.4723,-5.8704,0.0,0.0,0.0,0.0,0.0,0.0,0.0,0.0,0.0,0.0,0.0,0.0,0.0,0.0,0.0,0.0,0.0,0.0,0.0,0.0,0.0,0.0,0.0,0.0,0.0,0.0,-2.8984,-3.1152,-3.2949,0.0,0.0,0.0,0.0,0.0,0.0,0.0,0.0,0.0,-4.0684,-4.3711,-4.5781,-4.623,-4.5976,-4.5683,-4.5293,-4.3769,-4.2754,-4.3098,-4.1826,-4.0645,0.0,0.0,0.0,0.0,0.0,0.0,0.0,0.0,0.0,0.0,0.0,0.0,0.0,0.0,0.0,0.0,0.0,0.0,0.0,0.0,0.0,0.0,0.0,0.0,0.0,0.0,0.0,-3.7021,-3.6464,0.0,0.0,0.0,0.0,0.0,0.0,0.0,0.0,0.0,0.0,0.0,-5.9382,-6.1155,0.0,0.0,0.0,0.0,0.0,0.0,0.0,0.0,0.0,0.0,0.0,0.0,-5.5408,-5.8063,-6.8977,-7.3781,-7.153,-7.16,-7.0488,-6.7819,-6.7844,-6.5157,-5.9433,0.0,0.0,0.0,-4.0149,0.0,0.0,0.0,0.0,0.0,0.0,0.0,0.0,0.0,0.0,0.0,0.0,0.0,0.0,0.0,0.0,0.0,0.0,0.0,0.0,0.0,-3.2461,0.0,0.0,0.0,0.0,0.0,0.0,0.0,0.0,0.0,0.0,-3.8086,-4.0723,-4.3027,-4.4199,-4.5293,-4.6543,-4.6855,-4.7285,0.0,0.0,0.0,0.0,0.0,0.0,0.0,0.0,0.0,0.0,0.0,0.0,0.0,-3.1105,-2.9325,-2.66,-2.6172,-2.6333,-2.6613,0.0,0.0,0.0,0.0,0.0,0.0,0.0,0.0,0.0,0.0,0.0,0.0,0.0,0.0,-4.5859,-4.52,-4.4221,0.0,0.0,0.0,0.0,0.0,0.0,0.0,0.0,-6.334,-6.7136,-6.9101,-7.0656,-6.9787,-6.6769,-6.5176,-5.9095,0.0,0.0,0.0,0.0,0.0,0.0,0.0,0.0,-5.8008,-6.1399,-7.1771,-7.6333,-7.4482,-7.4327,-7.2708,-6.9582,-6.8827,-6.6641,-6.3073,-5.9382,-5.5641,0.0,0.0,0.0,0.0,0.0,0.0,0.0,0.0,0.0,0.0,0.0,0.0,0.0,0.0,0.0,0.0,0.0,0.0,0.0,0.0,0.0,0.0,0.0,-3.4524,0.0,0.0,0.0,0.0,0.0,0.0,0.0,0.0,0.0,-3.7832,-4.0781,-4.3555,-4.5273,-4.6016,-4.6543,-4.6875,0.0,0.0,0.0,0.0,0.0,0.0,0.0,-3.9544,-3.8679,-3.6547,-3.541,-3.7074,-3.6609,-3.5816,-3.5744,0.0,0.0,-2.9058,-2.8591,-2.8738,-2.9018,-2.9152,-2.9245,-2.9352,-2.97,-2.998,0.0,0.0,0.0,0.0,-4.9159,0.0,0.0,0.0,-5.6437,-5.6632,0.0,-5.3855,0.0,0.0,0.0,0.0,-5.1524,-5.894,0.0,0.0,-8.0156,-8.3549,-7.8386,-7.9702,-7.966,-7.7872,-7.3547,-7.0235,-6.7555,-6.1224,-5.3724,0.0,0.0,0.0,0.0,0.0,-6.0043,-6.441,-7.3421,-7.7785,-7.7287,-7.7074,-7.5687,-7.2795,-7.063,-6.9376,-6.92,-6.4228,-6.109,-6.0186,-4.9665,0.0,0.0,0.0,0.0,0.0,0.0,0.0,0.0,0.0,0.0,0.0,0.0,0.0,0.0,0.0,0.0,0.0,0.0,0.0,0.0,-3.5413,0.0,0.0,0.0,0.0,0.0,0.0,0.0,0.0,0.0,-4.2402,-4.0508,-4.3027,-4.5683,-4.7266,0.0,0.0,0.0,0.0,-4.7519,-4.5664,-4.4922,-4.4746,-4.4824,-4.437,-4.5077,-4.8177,0.0,0.0,-4.5645,-4.1124,-3.7333,-3.585,-3.4739,-3.3506,-3.2719,-3.1851,-3.1396,-3.165,-3.149,-3.1436,-3.1704,-3.2091,-3.2492,-6.5856,0.0,0.0,0.0,0.0,-5.8823,-6.1462,-6.5175,-6.5316,-6.4979,-6.4299,-6.3528,0.0,0.0,0.0,0.0,0.0,0.0,-6.7877,-7.4102,-7.7853,-8.18,-8.5843,-8.629,-8.6231,-8.5525,-8.2993,-8.0831,-7.8941,-7.6576,-6.6246,-4.8529,0.0,0.0,0.0,0.0,-6.6516,-7.2365,-7.9237,-8.1891,-8.0199,-7.9722,-7.7257,-7.2909,-7.068,-6.9451,-6.9426,-6.7919,-6.5157,-6.109,-5.7399,0.0,0.0,0.0,0.0,0.0,0.0,0.0,0.0,0.0,0.0,0.0,0.0,0.0,0.0,0.0,0.0,0.0,0.0,0.0,-3.4871,-3.8137,-3.8922,0.0,0.0,0.0,0.0,0.0,0.0,0.0,0.0,0.0,-4.543,-4.5937,-4.6445,0.0,0.0,-4.6738,-4.6113,-4.7539,-4.8887,-4.9512,-4.9492,0.0,-5.0664,-4.8233,-4.6562,-4.7951,-4.8557,-4.8635,-4.8069,-4.6782,-4.4971,-4.2684,-4.0035,-3.7695,-3.545,-3.4175,-3.3507,-3.3534,-3.3494,-3.3454,-3.3547,-3.3708,-3.3868,-7.5528,-6.847,-6.6187,-6.568,-6.6522,-6.7835,-7.0661,-7.4347,-7.5558,-7.5601,-7.4768,-7.4025,-7.2423,-7.0103,-6.6773,0.0,0.0,0.0,-7.5137,-8.2001,-8.2308,-8.5165,-8.9748,-8.9951,-8.9899,-8.9727,-8.7274,-8.5832,-8.5253,-8.25,-7.3779,-5.9577,0.0,-5.8589,-5.8082,-6.5622,-7.1996,-7.7023,-8.211,-8.3912,-8.2268,-8.0813,-7.8228,-7.4547,-7.227,-7.0706,-7.0079,-7.0079,-6.8547,-6.5233,-6.2672,-5.8755,0.0,0.0,0.0,0.0,0.0,0.0,0.0,0.0,0.0,0.0,0.0,-3.6755,-3.1958,0.0,0.0,0.0,-3.7299,-3.7879,-3.9131,-4.1113,0.0,0.0,0.0,0.0,0.0,0.0,0.0,-4.3808,-4.6758,-4.8887,-4.9297,-4.9277,-4.918,-4.9101,-4.9043,-4.8867,-4.8516,0.0,-5.1152,-5.1836,-5.1797,-5.2012,-5.293,-5.1409,-5.0147,-5.0917,-5.1349,-5.1313,-5.0978,-5.0065,-4.8236,-4.5348,-4.2235,-3.9407,-3.6707,-3.5485,-3.5017,-3.5017,-3.5017,-3.5017,-3.5017,-3.5004,-3.507,-8.2579,-8.1946,-7.4446,-7.2735,-7.4946,-7.6014,-7.8796,-8.2685,-8.575,-8.6775,-8.5998,-8.4199,-8.2621,-8.0923,-7.5272,0.0,-8.1119,-8.1535,-8.4689,-9.029,-9.1,-9.1338,-9.1406,-9.1372,-9.144,-9.146,-8.8202,-8.7167,-8.7821,-8.2484,-7.785,-7.4662,-7.442,-7.2295,-6.8525,-7.2505,-7.6125,-7.8849,-8.238,-8.4055,-8.3696,-8.0941,-7.8708,-7.7316,-7.5021,-7.2935,-7.1376,-7.1268,-7.1083,-7.0907,-6.6187,-6.2621,-6.0688,0.0,0.0,0.0,0.0,0.0,0.0,0.0,0.0,0.0,0.0,0.0,0.0,0.0,0.0,-4.4181,-4.4672,0.0,-4.5359,-4.4281,0.0,0.0,0.0,-4.2383,-4.4668,-4.6348,-4.7637,-4.8418,0.0,0.0,-5.2285,-5.2637,-5.3086,-5.3691,-5.3887,-5.3672,-5.2832,-5.3437,-5.3867,-5.3086,-5.2715,-5.2656,-5.3301,-5.4043,-5.4656,-5.5259,-5.5586,-5.5006,-5.3974,-5.2026,-4.8828,-4.5799,-4.2914,-4.0208,-3.7248,-3.6815,-3.6369,-3.6329,-3.6059,-3.6032,-3.5992,-3.5979,-3.5965,-8.5197,-8.517,-8.4455,-8.356,-8.2665,-8.4808,-8.6106,-8.678,-8.8183,-8.872,-8.85,-8.8051,-8.8507,-8.9543,-9.045,-9.0617,-9.014,-9.0284,-9.0603,-9.1,-9.1203,-9.1609,-9.215,-9.215,-9.2793,-9.3723,-9.157,-9.0292,-8.9723,-8.7387,-8.4084,-8.0125,-7.9423,-7.5677,-6.9153,-7.2325,-7.5916,-7.9537,-7.9986,-8.1391,-8.3611,-8.1419,-8.0162,-8.0345,-7.6394,-7.419,-7.3813,-7.2135,-7.1083,-7.1058,-6.9426,-6.7342,-6.4781,-5.662,0.0,0.0,0.0,0.0,0.0,0.0,0.0,0.0,0.0,-4.4937,-3.8513,0.0,-4.2615,0.0,-4.7641,-4.9175,-4.8036,-4.8032,0.0,0.0,-4.5312,-4.5469,-4.8887,-5.0215,-5.0937,-5.1133,-5.3066,-5.4414,-5.4531,-5.4608,-5.5425,-5.6894,-5.5098,-5.332,-5.2832,-5.4316,-5.5293,-5.4883,-5.5371,-5.5898,-5.5625,-5.5898,-5.6152,-5.6367,-5.6308,-5.5998,-5.5592,-5.4974,-5.3213,-5.0238,-4.9054,-4.6373,-4.1393,-4.0504,-3.9542,-3.74,-3.638,-3.6072,-3.6072,-3.6072,-3.6072,-8.6665,-8.6863,-8.8944,-8.8034,-8.5283,-8.7923,-8.8818,-8.8596,-8.9529,-9.0152,-9.0555,-9.1657,-9.2972,-9.4431,-9.6541,-9.6437,-9.4732,-9.463,-9.3753,-9.2286,-9.2319,-9.2725,-9.3436,-9.3436,-9.4045,-9.5161,-9.3399,-9.2254,-9.1842,-8.9573,-8.737,-8.5339,-8.4064,-8.0195,-7.4091,-7.4151,-7.4988,-7.6305,-7.7951,-8.0402,-8.3461,-8.2829,-8.1013,-7.8321,-7.5799,-7.3095,-7.0021,-6.8718,-6.7693,-6.6714,-6.6388,-6.5283,-6.3199,-5.7625,-5.4059,0.0,0.0,0.0,0.0,0.0,0.0,0.0,0.0,0.0,0.0,0.0,-4.8575,-4.6322,-5.0825,-5.2408,-4.8744,-4.9356,-5.0223,-5.0375,-4.9785,-5.0547,-5.3613,-5.4375,-5.4668,-5.4668,-5.5879,-5.6738,-5.6738,-5.6815,-5.7481,-5.8633,-5.7168,-5.5859,-5.5703,-5.6504,-5.7012,-5.6816,-5.7012,-5.707,-5.664,-5.6582,-5.6582,-5.6582,-5.6582,-5.6543,-5.5999,-5.594,-5.4917,-5.1685,-5.0937,-4.9563,-4.5002,-4.2812,-4.1429,-3.975,-3.7948,-3.6767,-3.6513,-3.646,-3.646,-8.7897,-8.8402,-9.0482,-8.9409,-8.6384,-8.8454,-8.8834,-8.8112,-8.9081,-9.0147,-9.147,-9.4299,-9.6098,-9.6869,-9.7787,-9.7597,-9.6428,-9.6543,-9.5541,-9.3824,-9.3808,-9.4214,-9.4823,-9.4857,-9.5229,-9.5905,-9.429,-9.3693,-9.3828,-9.0604,-8.8811,-8.8607,-8.6786,-8.3729,-7.9287,-7.6355,-7.3971,-7.2265,-7.6544,-8.0222,-8.3101,-8.337,-8.0574,-7.4902,-7.435,-7.1437,-6.5502,-6.4715,-6.3726,-6.1943,-6.1692,-6.1291,-6.0537,-5.8127,-5.6143,0.0,-5.298,0.0,0.0,0.0,0.0,0.0,0.0,0.0,0.0,-5.857,-5.6114,-5.0404,-5.4127,-5.4905,-5.0,-5.0879,-5.2518,-5.4196,-5.4863,-5.584,-5.7617,-5.791,-5.7949,-5.7949,-5.834,-5.8613,-5.8555,-5.8945,-5.918,-5.916,-5.914,-5.8984,-5.914,-5.8808,-5.8574,-5.8574,-5.7832,-5.7226,-5.6914,-5.6797,-5.6758,-5.6894,-5.6758,-5.6719,-5.6251,-5.6212,-5.5205,-5.2694,-5.2229,-5.1046,-4.806,-4.52,-4.2972,-4.22,-3.9715,-3.7555,-3.7128,-3.6981,-3.6981,-9.0633,-9.2479,-9.2364,-9.2174,-9.2023,-9.1276,-8.7863,-8.2944,-8.3228,-8.5337,-8.8942,-9.4117,-9.6869,-9.7754,-9.9145,-9.8941,-9.7337,-9.7909,-9.6865,-9.4518,-9.5093,-9.5466,-9.5567,-9.5601,-9.5973,-9.665,-9.6371,-9.4971,-9.2778,-9.2045,-8.9118,-8.4095,-8.2555,-7.9875,-7.6099,0.0,0.0,0.0,-7.6993,-7.9377,-8.0464,-7.8025,-7.6469,-7.5582,-7.3255,0.0,-7.0154,-6.6831,-6.5157,-6.5157,-6.4329,0.0,-6.6086,0.0,0.0,0.0,0.0,0.0,0.0,0.0,0.0,0.0,-5.9558,-5.9207,-5.9382,-6.0269,-5.9813,-5.7802,-5.7698,-5.8309,-5.9159,-5.7534,-5.6634,-5.7168,-5.7207,-5.7441,-5.7851,-5.8183,-5.8398,-5.8418,-5.8789,-5.9062,-5.9062,-5.914,-5.9199,-5.9258,-5.9481,-5.9715,-5.9707,-5.959,-5.9297,-5.8652,-5.8066,-5.7734,-5.7637,-5.7598,-5.758,-5.7716,-5.7737,-5.7558,-5.7558,-5.75,-5.7461,-5.6398,-5.6692,-5.528,-5.2019,-4.879,-4.5965,-4.3002,-4.0038,-3.7729,-3.7462,-3.7355,-3.7235,-9.2518,-9.3672,-9.3713,-9.2828,0.0,-9.0952,-8.7523,-8.2384,-8.5807,-8.8886,-9.1823,-9.5625,-9.7754,-9.8378,-9.7236,-9.6113,-9.4866,-9.2868,-9.1951,-9.2065,-9.244,-9.3903,-9.6345,-9.6345,-9.6717,-9.7428,-9.7428,-9.6658,-9.5178,-9.3217,-9.0729,-8.7576,-8.4937,-8.262,-8.0386,-8.0303,-7.9088,-7.6844,-7.8789,-8.0743,-8.2581,-8.1377,-7.9821,-7.7927,-7.5259,0.0,0.0,0.0,0.0,0.0,0.0,0.0,0.0,-6.2119,-6.1617,-6.345,-6.1793,-6.1165,-6.2245,-6.2847,-6.4354,-6.7066,-6.7568,-6.689,-6.4957,-6.6685,-6.71,-6.5091,-6.4542,-6.3582,-6.2149,-6.0809,-5.9576,-5.8482,-5.8183,-5.8262,-5.8496,-5.8711,-5.8848,-5.8887,-5.9238,-5.9492,-5.9492,-5.9619,-5.9717,-5.9765,-5.989,-6.0006,-5.9902,-5.9805,-5.9512,-5.8672,-5.8359,-5.8105,-5.791,-5.7851,-5.7793,-5.7934,-5.7874,-5.7969,-5.7859,-5.7866,-5.7851,-5.7851,-5.7851,-5.722,-5.5526,-5.2686,-5.0088,-4.7966,-4.4064,-4.1102,-4.0447,-3.8769,-3.7288,-9.4018,-9.421,-9.4751,-9.3138,-9.0257,-9.0797,-8.8912,-8.5761,-9.0445,0.0,0.0,-9.7166,-9.8599,-9.9039,-9.5804,-9.4117,-9.3345,-8.9307,-8.8664,-9.0847,-9.0735,-9.3031,-9.6988,-9.7089,-9.7428,-9.7969,-9.7867,-9.7676,-9.7236,-9.4049,-9.2231,-9.1477,-8.8501,-8.6555,-8.5881,-8.5881,-8.4265,-8.1183,-8.0883,-8.2158,-8.4937,-8.4911,-8.3251,-7.9475,-7.7518,-7.4397,-7.0253,-6.7436,-6.5057,-6.2847,-6.2195,-6.2094,-6.2471,-6.2596,-6.3776,-6.6212,-6.6664,-6.7769,-7.0003,-7.0681,-7.1786,-7.3619,-7.4247,-7.3544,-7.1158,-7.3092,-7.3621,-7.1433,-7.0416,-6.7824,-6.3439,-6.2118,-6.0836,-5.8711,-5.8711,-5.8906,-5.9238,-5.9375,-5.9414,-5.9433,-5.9726,-5.9922,-5.9902,-6.0236,-6.0295,-6.0312,-6.0566,-6.0449,-6.0019,-5.9785,-5.9473,-5.8945,-5.875,-5.8515,-5.8223,-5.8144,-5.8105,-5.8125,-5.8125,-5.808,-5.8228,-5.8236,-5.8144,-5.8164,-5.8105,-5.8066,-5.7769,-5.543,-5.3353,-5.261,-4.8277,-4.3925,-4.2585,-4.0059,-3.7582,-9.5211,-9.5903,-9.5249,-9.5134,-9.5212,-9.4559,-9.4796,-9.5329,-9.2094,-9.1177,-9.235,-9.6877,-9.9407,-10.0147,-9.9591,-9.9018,-9.8457,-9.7299,-9.6688,-9.6629,-9.6057,-9.65,-9.78,-9.7834,-9.7901,-9.7935,-9.736,-9.6213,-9.4613,-9.3499,-9.1563,-8.916,-8.8396,-8.7646,-8.6637,-8.6539,-8.627,-8.5641,-8.2469,-8.1301,-8.2259,-7.9622,-7.816,-7.8041,-7.7408,-7.5356,-7.2202,-7.0286,-6.8097,-6.5704,-6.5007,-6.5584,-6.7442,-6.797,-6.91,-7.0857,-7.1887,-7.2615,-7.2966,-7.3519,-7.3971,-7.4297,-7.4799,-7.4724,-7.3946,-7.4197,-7.4404,-7.4192,-7.0445,-6.719,-6.642,-6.2597,-5.9968,-5.914,-5.9414,-5.9648,-5.9726,-6.0019,-6.0195,-6.0215,-6.0312,-6.0351,-6.0351,-6.0332,-6.056,-6.0508,-6.0629,-6.0863,-6.043,-5.9726,-5.9433,-5.9512,-5.9316,-5.9082,-5.8965,-5.9004,-5.8965,-5.9004,-5.8984,-5.9043,-5.8956,-5.9101,-5.8984,-5.8984,-5.9004,-5.8848,-5.8555,-5.5879,-5.3453,-5.0948,-4.7227,-4.3796,-4.1076,-3.9272,-3.8344,-9.4941,-9.498,-9.548,-9.5942,-9.6289,-9.5942,-9.6806,-9.8078,-9.5551,-9.4886,-9.5884,-9.8566,-9.9995,-10.0031,-9.8048,-9.6909,-9.6544,-9.2917,-9.2388,-9.4248,-9.3698,-9.4665,-9.665,-9.7225,-9.7191,-9.6819,-9.648,-9.5878,-9.5034,-9.3749,-9.2014,-8.9874,-8.8312,-8.724,-8.6817,-8.6689,-8.6868,-8.7167,-8.5462,-8.4684,-8.4953,-8.3876,-8.3397,-8.3696,-8.2268,-8.0035,-7.7395,-7.5073,-7.2722,-7.0336,-6.9627,-6.9928,-7.1234,-7.156,-7.2163,-7.3192,-7.3745,-7.4046,-7.4046,-7.4548,-7.5,-7.5276,-7.5527,-7.5578,-7.5327,-7.5301,-7.5402,-7.5653,-7.3228,-7.0564,-6.8017,-6.5455,-6.2919,-5.9776,-5.9902,-6.0137,-6.0156,-6.0293,-6.043,-6.0469,-6.0644,-6.0781,-6.0801,-6.0996,-6.1015,-6.0879,-6.0726,-6.0668,-6.0781,-6.0273,-5.9746,-5.9551,-5.9492,-5.9531,-5.9531,-5.9726,-5.9932,-5.9862,-5.9874,-5.9824,-5.9863,-5.9863,-5.9844,-5.9863,-5.9863,-5.9687,-5.9297,-5.8283,-5.5744,-5.264,-4.9311,-4.6089,-4.3193,-4.0619,-3.8784,-9.4634,-9.4134,-9.5672,-9.6403,-9.6559,-9.673,-9.7611,-9.8772,-9.8316,-9.8631,-9.9438,-10.0209,-10.0619,-10.0215,-9.7313,-9.594,-9.5211,-9.0357,-8.9804,-9.2691,-9.1922,-9.2986,-9.5687,-9.6379,-9.6345,-9.5804,-9.5635,-9.5567,-9.5413,-9.4049,-9.2679,-9.0979,-8.8165,-8.6599,-8.6449,-8.6449,-8.6718,-8.7227,-8.7407,-8.7616,-8.7945,-8.8304,-8.8514,-8.8501,-8.6843,-8.4477,-8.1494,-7.9119,-7.6612,-7.3735,-7.3167,-7.3192,-7.372,-7.377,-7.3971,-7.4372,-7.4523,-7.4649,-7.4799,-7.5176,-7.5603,-7.603,-7.6055,-7.6055,-7.6055,-7.618,-7.623,-7.623,-7.5385,-7.3097,-6.8913,-6.747,-6.5476,-6.0679,-6.0332,-6.0566,-6.0586,-6.0742,-6.0879,-6.0918,-6.125,-6.1543,-6.1582,-6.1758,-6.1777,-6.1465,-6.1015,-6.0879,-6.0996,-6.0723,-6.0156,-5.9765,-5.9746,-5.9922,-5.998,-6.0195,-6.0403,-6.0422,-6.0305,-6.039,-6.0279,-6.0318,-6.043,-6.0371,-6.039,-6.0254,-6.0,-5.9922,-5.7893,-5.4089,-5.0989,-4.8548,-4.4002,-4.1214,-3.9159,-9.4941,-9.5018,-9.5865,-9.6711,-9.7404,-9.7527,-9.8082,-9.8885,-9.8946,-9.9438,-10.0136,-10.1017,-10.131,-10.1347,-10.0833,-10.0613,-10.0408,-9.7673,-9.6783,-9.7411,-9.5444,-9.4874,-9.5669,-9.5838,-9.5872,-9.5669,-9.5093,-9.4857,-9.4804,-9.4462,-9.3285,-9.1055,-8.8165,-8.6329,-8.5851,-8.5791,-8.5821,-8.591,-8.6449,-8.7377,-8.8484,-8.8065,-8.8065,-8.8663,-8.8501,-8.5913,-8.1089,-8.0506,-7.818,-7.4116,-7.3544,-7.377,-7.4272,-7.4347,-7.4372,-7.4448,-7.49,-7.5377,-7.5829,-7.5954,-7.5979,-7.6055,-7.608,-7.6105,-7.6105,-7.6532,-7.6808,-7.6608,-7.4467,-7.2304,-6.9111,-6.695,-6.4409,-6.0866,-6.0801,-6.1035,-6.1133,-6.1719,-6.2187,-6.2187,-6.2461,-6.2851,-6.2695,-6.2558,-6.2677,-6.2265,-6.1699,-6.1328,-6.1172,-6.084,-6.0547,-6.0371,-6.039,-6.041,-6.041,-6.041,-6.0488,-6.039,-6.041,-6.0473,-6.0534,-6.061,-6.0469,-6.0683,-6.0547,-6.0527,-6.043,-6.0143,-5.8212,-5.369,-5.1022,-4.8649,-4.2926,-4.0374,-3.9573,-9.4672,-9.4364,-9.5711,-9.7057,-9.821,-9.84,-9.8969,-9.9622,-9.8723,-9.8851,-9.9659,-10.0429,-10.1053,-10.1494,-10.1494,-10.1494,-10.1295,-9.8691,-9.7676,-9.7764,-9.5674,-9.4654,-9.4518,-9.4992,-9.4958,-9.4485,-9.418,-9.4214,-9.4331,-9.2948,-9.1042,-8.8895,-8.664,-8.5372,-8.5162,-8.5492,-8.5881,-8.627,-8.6539,-8.7137,-8.8005,-8.8215,-8.8245,-8.8125,-8.8125,-8.5662,-8.0909,-8.0433,-7.8542,-7.4141,-7.3895,-7.4322,-7.4875,-7.49,-7.505,-7.5352,-7.5578,-7.5829,-7.6055,-7.6055,-7.6055,-7.6055,-7.6356,-7.6532,-7.6557,-7.7059,-7.7486,-7.7535,-7.6474,-7.4048,-6.9765,-6.8282,-6.5815,-6.2005,-6.1426,-6.1836,-6.1855,-6.2383,-6.2754,-6.2773,-6.293,-6.3047,-6.293,-6.25,-6.2285,-6.2324,-6.1875,-6.1406,-6.1387,-6.1289,-6.1211,-6.123,-6.1387,-6.1328,-6.0996,-6.1055,-6.1133,-6.1172,-6.1191,-6.1135,-6.1174,-6.1193,-6.1191,-6.1172,-6.1133,-6.1015,-6.0859,-6.0532,-5.9052,-5.4205,-4.8949,-4.5877,-4.0991,-4.012,-3.9786,-9.4634,-9.4326,-9.5672,-9.725,-9.8788,-9.8666,-9.912,-9.9638,-9.8427,-9.8227,-9.8814,-9.9622,-10.0283,-10.087,-10.1274,-10.1384,-10.0884,-9.899,-9.783,-9.737,-9.5744,-9.4515,-9.379,-9.4112,-9.4112,-9.3706,-9.3842,-9.4332,-9.4516,-9.1499,-8.9413,-8.8037,-8.582,-8.4714,-8.4743,-8.5222,-8.5731,-8.6329,-8.6419,-8.6748,-8.7377,-8.7885,-8.7915,-8.7467,-8.7437,-8.5328,-8.1203,-8.0756,-7.8884,-7.5283,-7.4784,-7.49,-7.5427,-7.5452,-7.5653,-7.6004,-7.6055,-7.6055,-7.6055,-7.6205,-7.6281,-7.6331,-7.6783,-7.7109,-7.7185,-7.7611,-7.7988,-7.8164,-7.7403,-7.4504,-7.0625,-6.9075,-6.6697,-6.214,-6.2129,-6.2539,-6.2558,-6.2949,-6.3203,-6.3223,-6.3359,-6.334,-6.3144,-6.2637,-6.2285,-6.2363,-6.1914,-6.1445,-6.168,-6.1797,-6.1875,-6.1914,-6.2246,-6.2207,-6.1621,-6.166,-6.1855,-6.1758,-6.1699,-6.164,-6.1719,-6.1699,-6.1699,-6.1484,-6.166,-6.164,-6.1348,-6.096,-5.9337,-5.4621,-4.9122,-4.4084,-4.0899,-4.0254,-4.0094,-9.4941,-9.5057,-9.5942,-9.7288,-9.875,-9.8097,-9.829,-9.9004,-9.824,-9.7897,-9.8043,-9.8814,-9.9139,-9.9322,-10.0686,-10.1053,-10.0306,-9.9527,-9.8562,-9.7399,-9.5992,-9.4782,-9.3689,-9.3605,-9.3605,-9.3639,-9.4079,-9.4789,-9.5271,-9.1302,-8.9519,-8.9807,-8.6301,-8.4654,-8.4684,-8.4743,-8.5103,-8.5731,-8.5851,-8.612,-8.6659,-8.6778,-8.6838,-8.6778,-8.6748,-8.5833,-8.3672,-8.1703,-7.993,-7.8508,-7.624,-7.5452,-7.5929,-7.6004,-7.6004,-7.6055,-7.6055,-7.6055,-7.6155,-7.6482,-7.6783,-7.6858,-7.7235,-7.7611,-7.7536,-7.8013,-7.8189,-7.7812,-7.5833,-7.3393,-7.0572,-6.8426,-6.591,-6.2851,-6.2676,-6.293,-6.2969,-6.3301,-6.3613,-6.3652,-6.3808,-6.3808,-6.3613,-6.3281,-6.2754,-6.2519,-6.2324,-6.2187,-6.1953,-6.2129,-6.2305,-6.2422,-6.2656,-6.2832,-6.2422,-6.2305,-6.2422,-6.2324,-6.2226,-6.1836,-6.1758,-6.1719,-6.1758,-6.1797,-6.1894,-6.1894,-6.1758,-6.0338,-5.7945,-5.3576,-4.771,-4.3124,-4.102,-4.0778,-4.0401,-9.5826,-9.5903,-9.6749,-9.7442,-9.7904,-9.7793,-9.7913,-9.8078,-9.7391,-9.7126,-9.7273,-9.797,-9.808,-9.7599,-9.9255,-10.0062,-10.0086,-9.8326,-9.743,-9.7164,-9.5234,-9.4087,-9.3621,-9.3098,-9.3131,-9.3503,-9.3368,-9.3212,-9.2914,-9.0477,-8.8661,-8.7444,-8.4907,-8.3666,-8.4085,-8.4504,-8.5043,-8.5671,-8.609,-8.6449,-8.6629,-8.6689,-8.6689,-8.6689,-8.7107,-8.5668,-8.205,-8.1727,-8.0226,-7.6677,-7.5919,-7.5854,-7.603,-7.6055,-7.6055,-7.6055,-7.6055,-7.6205,-7.6507,-7.6431,-7.6507,-7.6858,-7.7059,-7.721,-7.726,-7.7662,-7.8038,-7.7757,-7.5747,-7.3108,-7.0594,-6.7806,-6.4977,-6.2654,-6.2578,-6.293,-6.2832,-6.3223,-6.3574,-6.3359,-6.3418,-6.3418,-6.3281,-6.289,-6.2656,-6.2754,-6.2558,-6.2441,-6.2558,-6.2715,-6.2793,-6.2871,-6.3144,-6.3398,-6.3262,-6.293,-6.2734,-6.2814,-6.2716,-6.2637,-6.24,-6.25,-6.25,-6.2441,-6.2422,-6.2402,-6.2324,-6.094,-5.8055,-5.3442,-4.7338,-4.3722,-4.1331,-4.1101,-4.0791,-9.6288,-9.6365,-9.6865,-9.725,-9.7443,-9.7072,-9.7272,-9.753,-9.6688,-9.6465,-9.6759,-9.7273,-9.7199,-9.6942,-9.786,-9.8778,-9.9279,-9.7498,-9.679,-9.6875,-9.4647,-9.3359,-9.3098,-9.2658,-9.2692,-9.3131,-9.2962,-9.2808,-9.2417,-9.0195,-8.8354,-8.6886,-8.4359,-8.3397,-8.4055,-8.4714,-8.5342,-8.597,-8.627,-8.6419,-8.6599,-8.6449,-8.6599,-8.7048,-8.7676,-8.6226,-8.2185,-8.2281,-8.0739,-7.7344,-7.6419,-7.6055,-7.6055,-7.6055,-7.6055,-7.608,-7.623,-7.6381,-7.6582,-7.6582,-7.6682,-7.6858,-7.7059,-7.7134,-7.7185,-7.7637,-7.8038,-7.7602,-7.4752,-7.1943,-6.9932,-6.6527,-6.3509,-6.2322,-6.2598,-6.291,-6.2656,-6.3125,-6.3281,-6.3105,-6.293,-6.291,-6.2949,-6.2637,-6.2637,-6.2969,-6.2754,-6.2754,-6.2969,-6.3164,-6.3242,-6.3281,-6.3613,-6.3848,-6.3808,-6.3613,-6.3236,-6.332,-6.3128,-6.3144,-6.3061,-6.3183,-6.3105,-6.3066,-6.3047,-6.3047,-6.2419,-6.1211,-5.7746,-5.3662,-4.9431,-4.529,-4.3223,-4.1426,-4.1182,-9.6288,-9.6288,-9.6288,-9.6788,-9.7173,-9.6047,-9.6291,-9.7132,-9.6132,-9.5988,-9.6539,-9.6722,-9.6795,-9.6722,-9.6906,-9.7236,-9.7735,-9.7015,-9.6501,-9.6126,-9.4147,-9.292,-9.2387,-9.2353,-9.2387,-9.259,-9.3233,-9.3909,-9.4125,-9.0456,-8.8148,-8.7698,-8.5078,-8.3936,-8.4684,-8.5222,-8.5881,-8.621,-8.591,-8.597,-8.6479,-8.603,-8.6299,-8.7407,-8.8155,-8.7251,-8.4619,-8.3158,-8.1453,-7.9213,-7.7082,-7.603,-7.6055,-7.6055,-7.603,-7.608,-7.6507,-7.6557,-7.6256,-7.6959,-7.7134,-7.7009,-7.731,-7.7436,-7.7536,-7.7963,-7.796,-7.674,-7.3463,-7.0055,-6.9031,-6.5117,-6.2101,-6.2207,-6.2676,-6.291,-6.291,-6.2988,-6.3027,-6.2969,-6.2734,-6.2598,-6.2812,-6.2715,-6.2656,-6.2988,-6.3086,-6.3105,-6.3242,-6.3496,-6.3652,-6.375,-6.3945,-6.414,-6.4238,-6.4277,-6.3956,-6.382,-6.3535,-6.3359,-6.3256,-6.3476,-6.3457,-6.3418,-6.3437,-6.3418,-6.2867,-6.1437,-5.8681,-5.4555,-5.0473,-4.6707,-4.3966,-4.1943,-4.1181,-9.5749,-9.6288,-9.6288,-9.6442,-9.652,-9.5667,-9.5649,-9.6044,-9.5614,-9.5621,-9.5951,-9.6465,-9.6722,-9.6685,-9.6722,-9.6832,-9.6897,-9.5282,-9.4693,-9.5011,-9.3024,-9.1874,-9.1724,-9.1677,-9.1913,-9.2489,-9.3199,-9.3673,-9.3178,-9.0033,-8.8379,-8.8175,-8.5409,-8.4209,-8.4654,-8.4923,-8.5162,-8.5252,-8.5132,-8.5132,-8.5372,-8.5581,-8.591,-8.6359,-8.7407,-8.6226,-8.2387,-8.2254,-8.0717,-7.7446,-7.6046,-7.5653,-7.5979,-7.6055,-7.5879,-7.5603,-7.6004,-7.6256,-7.613,-7.6381,-7.6733,-7.6783,-7.6733,-7.6783,-7.7059,-7.7335,-7.6851,-7.5504,-7.3652,-7.1659,-6.7813,-6.5924,-6.3644,-6.2128,-6.2305,-6.248,-6.2363,-6.2461,-6.2695,-6.2969,-6.291,-6.291,-6.2988,-6.2871,-6.3008,-6.3379,-6.3476,-6.3555,-6.3848,-6.3945,-6.4101,-6.414,-6.4297,-6.4316,-6.4316,-6.4316,-6.4277,-6.4015,-6.3926,-6.3652,-6.375,-6.3808,-6.3789,-6.3711,-6.373,-6.3633,-6.3081,-6.1603,-5.8996,-5.5587,-5.1664,-4.777,-4.4021,-4.2244,-4.1476,-9.5326,-9.5826,-9.6172,-9.6136,-9.5818,-9.5186,-9.4877,-9.488,-9.4659,-9.4777,-9.518,-9.5914,-9.6245,-9.6318,-9.6539,-9.6722,-9.6416,-9.4034,-9.3427,-9.3855,-9.1623,-9.0729,-9.1271,-9.1609,-9.2116,-9.2793,-9.3334,-9.3571,-9.3419,-8.9865,-8.8193,-8.8016,-8.5133,-8.3696,-8.4325,-8.4594,-8.4714,-8.4684,-8.4504,-8.4474,-8.4743,-8.5103,-8.5581,-8.612,-8.7137,-8.5301,-8.1514,-8.1538,-7.9913,-7.6368,-7.5101,-7.5201,-7.5678,-7.5552,-7.5377,-7.5402,-7.5728,-7.608,-7.608,-7.6306,-7.6381,-7.6507,-7.6431,-7.6507,-7.6883,-7.7134,-7.6567,-7.4656,-7.3061,-7.085,-6.6931,-6.5018,-6.3765,-6.2167,-6.2207,-6.2305,-6.2226,-6.2441,-6.2695,-6.2969,-6.3008,-6.3105,-6.3223,-6.3301,-6.3457,-6.3808,-6.3926,-6.3965,-6.4238,-6.4277,-6.4316,-6.4316,-6.4316,-6.4316,-6.4316,-6.4316,-6.4316,-6.4297,-6.4238,-6.4121,-6.414,-6.4121,-6.4101,-6.3848,-6.3769,-6.373,-6.3217,-6.2832,-6.0734,-5.6853,-5.3202,-5.0136,-4.684,-4.3041,-4.1759,-9.4903,-9.5095,-9.5865,-9.5826,-9.5189,-9.45,-9.4195,-9.4003,-9.3524,-9.3639,-9.4299,-9.507,-9.5437,-9.5621,-9.6171,-9.6502,-9.6149,-9.4034,-9.2932,-9.2435,-9.0773,-9.0087,-9.1237,-9.1947,-9.2692,-9.3402,-9.347,-9.347,-9.3183,-8.9178,-8.7492,-8.7749,-8.4789,-8.3128,-8.3786,-8.4354,-8.4534,-8.4354,-8.3936,-8.3965,-8.4474,-8.4743,-8.5222,-8.6359,-8.6978,-8.5496,-8.1745,-8.0139,-7.811,-7.4824,-7.4448,-7.4724,-7.5025,-7.4699,-7.4824,-7.5126,-7.5703,-7.5929,-7.6105,-7.6356,-7.6532,-7.6205,-7.6557,-7.6908,-7.7059,-7.7154,-7.6235,-7.3629,-7.157,-6.8963,-6.5886,-6.3705,-6.2362,-6.2305,-6.2461,-6.2617,-6.2988,-6.3047,-6.3144,-6.3164,-6.3144,-6.3262,-6.3672,-6.3711,-6.3906,-6.414,-6.4238,-6.4258,-6.4277,-6.4316,-6.4316,-6.4316,-6.4316,-6.4316,-6.4316,-6.4316,-6.4316,-6.4316,-6.4316,-6.4316,-6.4297,-6.4297,-6.4277,-6.4023,-6.3691,-6.3672,-6.3476,-6.2851,-6.179,-5.9126,-5.6199,-5.3316,-4.9186,-4.481,-4.2041,-9.3864,-9.498,-9.5249,-9.5287,-9.5104,-9.4424,-9.376,-9.3333,-9.3192,-9.3198,-9.3602,-9.4263,-9.4593,-9.4703,-9.5437,-9.5804,-9.5334,-9.3784,-9.2896,-9.2621,-9.0868,-9.0505,-9.1305,-9.2083,-9.2793,-9.3368,-9.2946,-9.2744,-9.239,-8.8463,-8.7039,-8.7821,-8.4605,-8.3038,-8.3696,-8.3906,-8.3726,-8.3337,-8.3158,-8.3128,-8.3457,-8.4295,-8.4863,-8.5252,-8.6359,-8.4708,-8.0359,-7.6714,-7.4814,-7.4127,-7.4222,-7.4473,-7.4649,-7.4799,-7.4774,-7.4868,-7.5427,-7.5829,-7.5774,-7.5929,-7.618,-7.613,-7.6632,-7.7059,-7.7486,-7.6148,-7.41,-7.157,-6.8963,-6.6134,-6.3474,-6.2184,-6.207,-6.2695,-6.2871,-6.3047,-6.3398,-6.3515,-6.3633,-6.3906,-6.3926,-6.3984,-6.4062,-6.4121,-6.416,-6.4277,-6.4316,-6.4316,-6.4316,-6.4316,-6.4316,-6.4316,-6.4316,-6.4316,-6.4316,-6.4316,-6.4316,-6.4316,-6.4316,-6.4316,-6.4297,-6.4277,-6.4277,-6.4199,-6.3594,-6.3418,-6.3301,-6.2949,-6.1603,-6.0601,-5.6305,-5.2018,-4.8572,-4.4526,-4.2799,-9.3056,-9.4018,-9.4672,-9.4666,-9.4236,-9.4114,-9.347,-9.264,-9.2533,-9.2574,-9.2758,-9.3455,-9.3786,-9.3859,-9.463,-9.518,-9.5167,-9.3354,-9.2578,-9.2656,-9.1005,-9.0674,-9.1338,-9.2083,-9.2522,-9.2556,-9.2187,-9.1951,-9.1296,-8.7945,-8.6847,-8.6809,-8.4092,-8.283,-8.3247,-8.3307,-8.3158,-8.2828,-8.2769,-8.2858,-8.3217,-8.4239,-8.4773,-8.5192,-8.5992,-8.4579,-7.9889,-7.5172,-7.2991,-7.3468,-7.372,-7.392,-7.4372,-7.4448,-7.4523,-7.4641,-7.5276,-7.5603,-7.5603,-7.5854,-7.6155,-7.6431,-7.6908,-7.7461,-7.7582,-7.5942,-7.3388,-7.0706,-6.7892,-6.479,-6.2437,-6.2031,-6.248,-6.2949,-6.334,-6.3652,-6.3926,-6.3945,-6.4062,-6.4238,-6.4316,-6.4316,-6.4316,-6.4316,-6.4316,-6.4316,-6.4316,-6.4316,-6.4316,-6.4316,-6.4316,-6.4316,-6.4316,-6.4316,-6.4316,-6.4316,-6.4316,-6.4316,-6.4316,-6.4316,-6.4219,-6.418,-6.3984,-6.3828,-6.3418,-6.3105,-6.2949,-6.2754,-6.1969,-5.971,-5.5043,-5.1775,-4.8834,-4.4668,-4.2949,-9.2402,-9.2633,-9.421,-9.4075,-9.3116,-9.367,-9.3227,-9.2055,-9.184,-9.1877,-9.2024,-9.2648,-9.2941,-9.3015,-9.3786,-9.4444,-9.4801,-9.2549,-9.2,-9.1631,-9.0897,-9.0527,-9.1068,-9.1812,-9.1913,-9.1575,-9.1295,-9.1209,-9.027,-8.759,-8.6427,-8.5999,-8.348,-8.244,-8.2739,-8.2828,-8.2769,-8.2769,-8.2769,-8.3068,-8.3576,-8.4329,-8.4958,-8.5424,-8.4875,-8.3506,-7.9513,-7.5355,-7.2966,-7.3468,-7.2991,-7.3368,-7.4121,-7.387,-7.4146,-7.5019,-7.5251,-7.5628,-7.5954,-7.6105,-7.6356,-7.6808,-7.7411,-7.7963,-7.7802,-7.5863,-7.2929,-7.0774,-6.7444,-6.4353,-6.2476,-6.2441,-6.2851,-6.3125,-6.375,-6.4219,-6.4316,-6.4316,-6.4316,-6.4316,-6.4316,-6.4316,-6.4316,-6.4316,-6.4316,-6.4316,-6.4316,-6.4316,-6.4316,-6.4316,-6.4316,-6.4316,-6.4316,-6.4316,-6.4316,-6.4316,-6.4316,-6.4316,-6.4316,-6.4277,-6.4062,-6.3926,-6.3594,-6.3301,-6.3105,-6.2832,-6.2558,-6.2324,-6.1835,-5.9778,-5.5986,-5.3733,-5.1027,-4.5404,-4.2218,-9.1864,-9.2595,-9.3557,-9.354,-9.304,-9.367,-9.3227,-9.1839,-9.1767,-9.1803,-9.184,-9.2024,-9.2097,-9.217,-9.2941,-9.3005,-9.2473,-9.1247,-9.0598,-8.9853,-9.0231,-9.0222,-9.056,-9.1169,-9.1372,-9.1135,-9.0683,-9.0446,-8.9534,-8.7207,-8.5437,-8.5532,-8.3532,-8.211,-8.2679,-8.2769,-8.2769,-8.2769,-8.2769,-8.3158,-8.3756,-8.4419,-8.5078,-8.5288,-8.2915,-8.1066,-7.9164,-7.5172,-7.298,-7.2841,-7.2891,-7.3142,-7.377,-7.4096,-7.4423,-7.5119,-7.5724,-7.5929,-7.608,-7.6406,-7.6733,-7.6984,-7.7737,-7.839,-7.8081,-7.4219,-7.1626,-6.9672,-6.5907,-6.2821,-6.201,-6.2579,-6.2793,-6.3144,-6.3769,-6.4316,-6.4316,-6.4316,-6.4316,-6.4316,-6.4316,-6.4316,-6.4316,-6.4316,-6.4316,-6.4316,-6.4316,-6.4316,-6.4316,-6.4316,-6.4316,-6.4316,-6.4316,-6.4316,-6.4316,-6.4316,-6.4316,-6.4238,-6.4219,-6.416,-6.3965,-6.3633,-6.3301,-6.3066,-6.289,-6.2598,-6.2246,-6.2051,-6.1836,-5.9372,-5.6943,-5.3974,-5.0538,-4.5654,-4.2218,-9.1479,-9.1905,-9.2411,-9.2231,-9.1838,-9.2541,-9.2327,-9.1505,-9.1657,-9.1803,-9.1803,-9.1803,-9.1803,-9.1803,-9.2207,-9.2049,-9.1283,-9.0538,-8.9879,-8.9347,-8.9512,-8.9647,-8.9715,-9.0019,-9.0256,-9.0222,-8.9918,-8.934,-8.8071,-8.6566,-8.5107,-8.4761,-8.3076,-8.253,-8.2709,-8.2769,-8.2769,-8.2858,-8.3098,-8.3547,-8.4145,-8.4778,-8.4793,-8.4106,-8.1434,-7.9339,-7.7779,-7.4645,-7.2904,-7.2791,-7.2991,-7.3393,-7.387,-7.4272,-7.4674,-7.5547,-7.5925,-7.6055,-7.618,-7.6557,-7.6984,-7.726,-7.8063,-7.8566,-7.7556,-7.372,-7.0971,-6.9229,-6.5701,-6.1719,-6.1758,-6.254,-6.2971,-6.3125,-6.3808,-6.4277,-6.4316,-6.4316,-6.4316,-6.4316,-6.4316,-6.4316,-6.4316,-6.4316,-6.4316,-6.4316,-6.4316,-6.4316,-6.4316,-6.4316,-6.4316,-6.4316,-6.4316,-6.4316,-6.4316,-6.4316,-6.4316,-6.4199,-6.4062,-6.3965,-6.3789,-6.3398,-6.2988,-6.2773,-6.2558,-6.2246,-6.1933,-6.1758,-6.1466,-6.0041,-5.7603,-5.4198,-5.0293,-4.5889,-4.3201,-9.121,-9.1177,-9.1381,-9.0965,-9.0486,-9.1194,-9.1231,-9.0811,-9.1326,-9.162,-9.1803,-9.1803,-9.1803,-9.1767,-9.1546,-9.1275,-9.0545,-8.9827,-8.8901,-8.8922,-8.9072,-8.9207,-8.9241,-8.9275,-8.9309,-8.9106,-8.9173,-8.8425,-8.7215,-8.6142,-8.5201,-8.3719,-8.3062,-8.28,-8.2739,-8.2769,-8.2769,-8.2828,-8.3337,-8.3965,-8.4594,-8.5228,-8.4846,-8.3165,-8.1082,-7.8692,-7.6577,-7.414,-7.274,-7.2765,-7.3268,-7.3845,-7.4272,-7.4598,-7.495,-7.5954,-7.603,-7.6055,-7.6205,-7.6657,-7.726,-7.7712,-7.834,-7.8842,-7.7926,-7.4265,-7.1212,-6.8584,-6.5701,-6.1719,-6.1758,-6.2363,-6.303,-6.3144,-6.3808,-6.4238,-6.4316,-6.4316,-6.4316,-6.4316,-6.4316,-6.4316,-6.4316,-6.4316,-6.4316,-6.4316,-6.4316,-6.4316,-6.4316,-6.4316,-6.4316,-6.4316,-6.4316,-6.4316,-6.4316,-6.4277,-6.4277,-6.4121,-6.3945,-6.3672,-6.3515,-6.3086,-6.2676,-6.2441,-6.2187,-6.1933,-6.1797,-6.1738,-6.1232,-6.0491,-5.7585,-5.3215,-4.9557,-4.6138,-4.418,-9.121,-9.1216,-9.133,-9.0977,-9.0411,-9.0595,-9.0609,-9.059,-9.0739,-9.1216,-9.173,-9.1803,-9.1803,-9.162,-9.0667,-8.969,-8.8919,-8.8157,-8.7879,-8.8361,-8.8801,-8.9072,-8.9106,-8.9106,-8.9106,-8.9106,-8.914,-8.8544,-8.7159,-8.6405,-8.5212,-8.4183,-8.3156,-8.2739,-8.2769,-8.2769,-8.2769,-8.2888,-8.3457,-8.4145,-8.4654,-8.5282,-8.4685,-8.2934,-8.0736,-7.8393,-7.6215,-7.3953,-7.274,-7.2791,-7.3293,-7.3845,-7.4397,-7.4824,-7.5402,-7.5879,-7.6055,-7.608,-7.6256,-7.7009,-7.7486,-7.7913,-7.8616,-7.9168,-7.8025,-7.4075,-7.0554,-6.8339,-6.5267,-6.1719,-6.1738,-6.2363,-6.2871,-6.3223,-6.3691,-6.4277,-6.4297,-6.4316,-6.4316,-6.4316,-6.4316,-6.4316,-6.4316,-6.4316,-6.4316,-6.4316,-6.4316,-6.4316,-6.4316,-6.4316,-6.4316,-6.4316,-6.4316,-6.4316,-6.4316,-6.4277,-6.4238,-6.4023,-6.3769,-6.3301,-6.3066,-6.2676,-6.2344,-6.2148,-6.1992,-6.1816,-6.1738,-6.1719,-6.1485,-6.1232,-5.6853,-5.2245,-4.9557,-4.7118,-4.3691,-9.0989,-9.0605,-9.0332,-8.983,-8.9252,-8.9246,-8.9319,-8.9525,-9.0225,-9.0812,-9.1216,-9.1583,-9.1803,-9.1657,-9.1253,-9.0231,-8.8991,-8.7431,-8.7626,-8.8429,-8.8903,-8.9106,-8.9106,-8.9106,-8.9106,-8.9207,-8.9331,-8.8346,-8.633,-8.6082,-8.4844,-8.3366,-8.283,-8.2769,-8.2769,-8.2769,-8.2769,-8.2948,-8.3696,-8.4384,-8.4833,-8.5648,-8.4608,-8.1774,-8.0102,-7.8011,-7.4829,-7.3605,-7.274,-7.2891,-7.3544,-7.4071,-7.4548,-7.5151,-7.5753,-7.6004,-7.6055,-7.6256,-7.6582,-7.7335,-7.7787,-7.8189,-7.8942,-7.9344,-7.805,-7.4313,-6.9451,-6.6134,-6.4602,-6.1719,-6.1738,-6.2442,-6.2814,-6.3066,-6.3633,-6.4043,-6.4238,-6.4277,-6.4258,-6.4258,-6.4277,-6.4277,-6.4316,-6.4316,-6.4316,-6.4316,-6.4316,-6.4316,-6.4316,-6.4316,-6.4316,-6.4219,-6.416,-6.4043,-6.4023,-6.3984,-6.3965,-6.3808,-6.3496,-6.3027,-6.2676,-6.2344,-6.2129,-6.1953,-6.1797,-6.1719,-6.1719,-6.1719,-6.1719,-6.0998,-5.6376,-5.2245,-5.0293,-4.7846,-4.418,-9.0762,-9.0028,-8.9386,-8.8728,-8.8134,-8.7992,-8.8059,-8.8463,-8.9528,-9.0298,-9.0702,-9.1253,-9.162,-9.1583,-9.1166,-9.0516,-8.9894,-8.7775,-8.7795,-8.8801,-8.9072,-8.9106,-8.9106,-8.9106,-8.9106,-8.9207,-8.9782,-8.8456,-8.6178,-8.5979,-8.4512,-8.3057,-8.271,-8.2769,-8.2769,-8.2769,-8.2769,-8.3307,-8.4055,-8.4743,-8.5312,-8.5367,-8.4058,-8.0034,-7.9164,-7.6938,-7.3418,-7.2904,-7.274,-7.3016,-7.3669,-7.4397,-7.4573,-7.5452,-7.603,-7.6055,-7.6055,-7.6431,-7.6758,-7.7436,-7.7913,-7.839,-7.9043,-7.9087,-7.6955,-7.2759,-6.7466,-6.3053,-6.1719,-6.1719,-6.1738,-6.2069,-6.254,-6.291,-6.3418,-6.3808,-6.4023,-6.4101,-6.3984,-6.4023,-6.414,-6.4219,-6.4219,-6.4316,-6.4316,-6.4316,-6.4316,-6.4316,-6.4316,-6.4316,-6.4277,-6.4101,-6.3965,-6.3769,-6.3652,-6.3555,-6.3515,-6.3418,-6.3066,-6.2598,-6.2324,-6.2051,-6.1894,-6.1816,-6.1777,-6.1719,-6.1719,-6.1719,-6.1719,-6.0022,-5.5401,-5.2421,-5.1075,-4.7523,-4.3201,-9.0762,-9.006,-8.9384,-8.872,-8.8035,-8.7409,-8.7582,-8.8169,-8.8463,-8.9344,-9.0372,-9.0702,-9.1106,-9.1068,-8.9522,-8.8947,-8.8544,-8.7738,-8.7685,-8.8903,-8.9106,-8.9106,-8.9106,-8.9106,-8.9106,-8.9275,-8.9918,-8.8449,-8.6469,-8.6358,-8.5275,-8.3189,-8.2619,-8.2769,-8.2769,-8.2769,-8.3068,-8.3636,-8.4354,-8.5252,-8.5834,-8.4654,-8.2477,-8.0083,-7.7833,-7.5695,-7.3067,-7.274,-7.274,-7.2941,-7.3845,-7.4372,-7.4598,-7.5452,-7.5954,-7.6055,-7.613,-7.6356,-7.6833,-7.7486,-7.8013,-7.8566,-7.8887,-7.7792,-7.4527,-7.0532,-6.568,-6.2377,-6.1719,-6.1719,-6.1738,-6.205,-6.252,-6.303,-6.3301,-6.3574,-6.3789,-6.375,-6.3672,-6.3613,-6.3652,-6.3926,-6.4082,-6.4219,-6.4316,-6.4316,-6.4297,-6.4277,-6.418,-6.4082,-6.4004,-6.3808,-6.3633,-6.3418,-6.3223,-6.3125,-6.3008,-6.2969,-6.2637,-6.2226,-6.2051,-6.1875,-6.1816,-6.1738,-6.1719,-6.1719,-6.1719,-6.1719,-6.1719,-5.9768,-5.6358,-5.3958,-5.2005,-4.7573,-4.2935,-9.0187,-8.9502,-8.9236,-8.844,-8.7534,-8.7095,-8.7178,-8.7582,-8.8023,-8.8573,-8.9234,-8.9748,-8.997,-8.9822,-8.8612,-8.8474,-8.8375,-8.7424,-8.7685,-8.8835,-8.9106,-8.9106,-8.9106,-8.9106,-8.9106,-8.941,-8.9778,-8.8934,-8.7147,-8.6213,-8.5571,-8.3221,-8.2769,-8.2769,-8.2769,-8.2769,-8.3128,-8.3816,-8.4714,-8.5701,-8.5883,-8.431,-8.2056,-7.9686,-7.7369,-7.5117,-7.3255,-7.274,-7.2916,-7.3242,-7.4046,-7.4573,-7.495,-7.5603,-7.6055,-7.6055,-7.6055,-7.6507,-7.7285,-7.7586,-7.8139,-7.815,-7.7485,-7.474,-7.0774,-6.7668,-6.481,-6.1932,-6.1719,-6.1719,-6.1719,-6.1991,-6.2285,-6.2754,-6.3008,-6.3262,-6.3398,-6.334,-6.3281,-6.3223,-6.3183,-6.3437,-6.373,-6.3984,-6.4004,-6.3926,-6.3926,-6.3906,-6.3711,-6.3457,-6.3418,-6.3359,-6.3183,-6.3027,-6.2812,-6.2656,-6.2441,-6.2344,-6.2226,-6.1914,-6.1875,-6.1758,-6.1719,-6.1719,-6.1719,-6.1719,-6.1719,-6.1719,-6.1719,-6.0003,-5.8059,-5.5305,-5.2401,-4.8831,-4.4961,-8.9714,-8.913,-8.8896,-8.8125,-8.7031,-8.7031,-8.7031,-8.7105,-8.7619,-8.8023,-8.8463,-8.9234,-8.942,-8.8909,-8.8661,-8.8685,-8.8572,-8.7633,-8.7998,-8.8734,-8.9106,-8.9106,-8.9106,-8.9106,-8.9207,-8.9342,-8.9801,-8.8811,-8.7178,-8.623,-8.518,-8.289,-8.2769,-8.2769,-8.2798,-8.3038,-8.3487,-8.4414,-8.5402,-8.615,-8.6062,-8.37,-8.1669,-7.9369,-7.7007,-7.4485,-7.3093,-7.274,-7.2991,-7.3544,-7.4096,-7.4649,-7.5176,-7.5703,-7.603,-7.6055,-7.6055,-7.6557,-7.7285,-7.7787,-7.834,-7.7862,-7.5615,-7.1867,-6.7444,-6.568,-6.4353,-6.1699,-6.1719,-6.1719,-6.1719,-6.1719,-6.1992,-6.2305,-6.2539,-6.2812,-6.3027,-6.291,-6.2754,-6.2598,-6.2617,-6.2812,-6.3164,-6.3613,-6.3711,-6.3574,-6.3535,-6.3496,-6.3281,-6.2988,-6.2871,-6.2851,-6.2617,-6.25,-6.2363,-6.2168,-6.1953,-6.1875,-6.1777,-6.1719,-6.1738,-6.1738,-6.1719,-6.1719,-6.1719,-6.1719,-6.1719,-6.1719,-6.1719,-6.0257,-5.8477,-5.5674,-5.2658,-4.8847,-4.6063,-8.9714,-8.9054,-8.8387,-8.7725,-8.7031,-8.7031,-8.7031,-8.7031,-8.7105,-8.7545,-8.8243,-8.953,-8.9495,-8.898,-8.8778,-8.8756,-8.8509,-8.8145,-8.8346,-8.8734,-8.9072,-8.897,-8.8937,-8.897,-8.9376,-8.9724,-8.9565,-8.8328,-8.7003,-8.5943,-8.4628,-8.3041,-8.2769,-8.2769,-8.2978,-8.3367,-8.4235,-8.5162,-8.609,-8.6321,-8.5126,-8.2759,-8.0092,-7.8776,-7.5559,-7.2904,-7.274,-7.274,-7.3067,-7.3644,-7.4146,-7.4774,-7.5352,-7.5778,-7.6055,-7.6055,-7.6055,-7.6632,-7.7385,-7.7762,-7.8086,-7.7239,-7.4289,-6.9451,-6.568,-6.3264,-6.1932,-6.1719,-6.1719,-6.1719,-6.1719,-6.1758,-6.1875,-6.207,-6.2265,-6.2324,-6.248,-6.2441,-6.2265,-6.2012,-6.207,-6.2324,-6.2461,-6.289,-6.3183,-6.3066,-6.2991,-6.2932,-6.2871,-6.2676,-6.248,-6.2324,-6.2051,-6.1914,-6.1855,-6.1758,-6.1797,-6.1797,-6.1738,-6.1719,-6.1719,-6.1719,-6.1719,-6.1719,-6.1719,-6.1719,-6.1719,-6.1719,-6.1485,-6.0979,-5.9146,-5.5543,-5.1413,-4.7276,-4.5021,-8.9352,-8.9001,-8.7878,-8.7252,-8.7031,-8.7031,-8.7031,-8.7031,-8.7031,-8.7142,-8.7512,-8.8325,-8.8067,-8.7507,-8.7887,-8.7765,-8.7123,-8.7817,-8.782,-8.8125,-8.8463,-8.8463,-8.8395,-8.8632,-8.9241,-8.9374,-8.8855,-8.7981,-8.6965,-8.5838,-8.446,-8.3311,-8.2739,-8.2769,-8.3038,-8.3756,-8.4773,-8.5551,-8.6141,-8.624,-8.4019,-8.1604,-7.8951,-7.7164,-7.4737,-7.2791,-7.274,-7.274,-7.3268,-7.3895,-7.4297,-7.49,-7.5552,-7.5929,-7.603,-7.608,-7.608,-7.6657,-7.7461,-7.7357,-7.6708,-7.3365,-7.0114,-6.6565,-6.4144,-6.2377,-6.1719,-6.1719,-6.1719,-6.1719,-6.1699,-6.1719,-6.1816,-6.1992,-6.2031,-6.1973,-6.1992,-6.2012,-6.2012,-6.1855,-6.1836,-6.1933,-6.2031,-6.2129,-6.2383,-6.2539,-6.2422,-6.2207,-6.2461,-6.2363,-6.2187,-6.207,-6.1836,-6.1758,-6.1719,-6.1719,-6.1719,-6.1719,-6.1719,-6.1719,-6.1719,-6.1719,-6.1719,-6.1719,-6.1719,-6.1719,-6.1719,-6.1719,-6.1485,-6.1232,-5.857,-5.5126,-5.0538,-4.5755,-4.4231,-8.9016,-8.8636,-8.7489,-8.7031,-8.7031,-8.7031,-8.7031,-8.7031,-8.7031,-8.7031,-8.7036,-8.7148,-8.6613,-8.602,-8.6657,-8.6611,-8.6175,-8.6797,-8.7177,-8.7482,-8.7753,-8.7719,-8.7583,-8.7888,-8.8666,-8.8855,-8.7854,-8.6921,-8.7349,-8.5539,-8.3929,-8.28,-8.2649,-8.2739,-8.3068,-8.4025,-8.5013,-8.5671,-8.6141,-8.539,-8.3122,-8.0864,-7.8502,-7.6479,-7.391,-7.2791,-7.2816,-7.2966,-7.3494,-7.4121,-7.4649,-7.5176,-7.5703,-7.6055,-7.6055,-7.6105,-7.6306,-7.6758,-7.7234,-7.6839,-7.5034,-7.1558,-6.8339,-6.5018,-6.259,-6.1719,-6.1719,-6.1719,-6.1699,-6.166,-6.1582,-6.1465,-6.1348,-6.1387,-6.1543,-6.1543,-6.168,-6.1738,-6.1777,-6.1738,-6.1758,-6.1777,-6.1816,-6.1894,-6.1992,-6.2168,-6.2012,-6.2069,-6.1953,-6.2012,-6.1894,-6.1816,-6.1758,-6.1719,-6.1719,-6.1719,-6.1719,-6.1719,-6.1719,-6.1719,-6.1719,-6.1719,-6.1719,-6.1719,-6.1719,-6.1719,-6.1719,-6.1719,-6.1719,-6.1719,-5.8005,-5.3671,-4.9918,-4.5626,-4.4279,-8.8746,-8.8046,-8.7365,-8.7031,-8.7031,-8.7031,-8.7031,-8.7031,-8.7031,-8.7031,-8.6966,-8.6673,-8.5892,-8.5198,-8.6029,-8.5652,-8.5243,-8.6181,-8.6839,-8.6771,-8.7076,-8.6974,-8.6907,-8.7177,-8.8158,-8.8813,-8.7365,-8.6241,-8.77,-8.4526,-8.2589,-8.226,-8.226,-8.2739,-8.2888,-8.4025,-8.4983,-8.5671,-8.6329,-8.4846,-8.2273,-8.0412,-7.8447,-7.5695,-7.3732,-7.2715,-7.2966,-7.3217,-7.3795,-7.4473,-7.49,-7.5402,-7.5929,-7.6055,-7.6055,-7.608,-7.6532,-7.7084,-7.7485,-7.5879,-7.3267,-7.0092,-6.6791,-6.4373,-6.2377,-6.168,-6.164,-6.1562,-6.1543,-6.1406,-6.123,-6.1055,-6.0957,-6.0996,-6.1172,-6.1367,-6.1543,-6.164,-6.1699,-6.1719,-6.1719,-6.1719,-6.1719,-6.1738,-6.1758,-6.1777,-6.1738,-6.1758,-6.1816,-6.1797,-6.1719,-6.1719,-6.1719,-6.1719,-6.1719,-6.1719,-6.1719,-6.1719,-6.1719,-6.1719,-6.1719,-6.1719,-6.1719,-6.1719,-6.1719,-6.1719,-6.1719,-6.1738,-6.0841,-5.956,-5.5966,-5.2015,-4.8445,-4.5517,-4.4132,-8.8691,-8.8046,-8.7261,-8.7031,-8.7031,-8.7031,-8.7031,-8.7031,-8.7031,-8.7031,-8.6754,-8.5873,-8.5144,-8.4898,-8.484,-8.4687,-8.4359,-8.5945,-8.667,-8.5587,-8.6298,-8.6061,-8.5993,-8.6535,-8.7583,-8.7558,-8.5915,-8.5048,-8.6715,-8.3357,-8.1719,-8.1302,-8.1871,-8.2589,-8.3247,-8.4025,-8.4534,-8.5492,-8.5595,-8.4347,-8.0927,-7.975,-7.7779,-7.43,-7.3067,-7.2891,-7.3217,-7.3544,-7.4046,-7.4774,-7.5226,-7.5527,-7.5954,-7.6055,-7.6055,-7.618,-7.6582,-7.6251,-7.5273,-7.3248,-7.0729,-6.7871,-6.5205,-6.2993,-6.1699,-6.1426,-6.1348,-6.123,-6.1113,-6.0898,-6.0664,-6.0937,-6.0996,-6.1094,-6.1289,-6.1504,-6.168,-6.168,-6.1719,-6.1719,-6.1719,-6.1719,-6.1719,-6.1719,-6.1719,-6.1719,-6.1719,-6.1719,-6.1758,-6.1758,-6.1719,-6.1719,-6.1719,-6.1719,-6.1719,-6.1719,-6.1719,-6.1719,-6.1719,-6.1719,-6.1719,-6.1719,-6.1719,-6.1719,-6.1719,-6.1719,-6.1836,-6.1465,-5.8904,-5.6483,-5.4016,-5.0342,-4.6285,-4.4664,-4.3976,-8.856,-8.7646,-8.7231,-8.7031,-8.7031,-8.7031,-8.7031,-8.7031,-8.7031,-8.7031,-8.6609,-8.515,-8.4294,-8.4246,-8.396,-8.365,-8.3375,-8.5108,-8.5892,-8.4776,-8.5554,-8.5418,-8.5351,-8.596,-8.7279,-8.7089,-8.5711,-8.4763,-8.6398,-8.2734,-8.1299,-8.1272,-8.1362,-8.214,-8.2978,-8.3666,-8.4265,-8.479,-8.4674,-8.2783,-8.0133,-7.8298,-7.6577,-7.3953,-7.2791,-7.2966,-7.3468,-7.387,-7.4272,-7.5,-7.5452,-7.5653,-7.5954,-7.6055,-7.6055,-7.6205,-7.6608,-7.5633,-7.2946,-7.1751,-6.8613,-6.4256,-6.2272,-6.1716,-6.1426,-6.1094,-6.1055,-6.0918,-6.0605,-6.0508,-6.0488,-6.082,-6.0937,-6.1035,-6.1269,-6.1484,-6.1699,-6.1719,-6.1719,-6.1719,-6.1719,-6.1719,-6.1719,-6.1719,-6.1719,-6.1719,-6.1719,-6.1719,-6.1719,-6.1719,-6.1719,-6.1719,-6.1719,-6.1719,-6.1719,-6.1719,-6.1719,-6.1719,-6.1719,-6.1719,-6.1719,-6.1719,-6.1719,-6.1719,-6.1738,-6.1816,-6.2031,-6.1226,-5.9312,-5.6612,-5.3704,-4.969,-4.4515,-4.3714,-4.3691,-8.8271,-8.7132,-8.7031,-8.7031,-8.7031,-8.7031,-8.7031,-8.7031,-8.7031,-8.6962,-8.6786,-8.4604,-8.3692,-8.3455,-8.287,-8.2641,-8.2898,-8.4297,-8.4533,-8.4674,-8.4945,-8.4742,-8.508,-8.5723,-8.7245,-8.7276,-8.6127,-8.47,-8.6305,-8.2692,-8.1091,-8.1392,-8.1242,-8.1931,-8.2739,-8.3367,-8.4025,-8.4403,-8.338,-8.1649,-7.9563,-7.7413,-7.5486,-7.3443,-7.2765,-7.3142,-7.3619,-7.4121,-7.4674,-7.5251,-7.5728,-7.5929,-7.6055,-7.6055,-7.6055,-7.6431,-7.721,-7.4152,-7.1215,-7.0122,-6.6523,-6.2428,-6.126,-6.0976,-6.0957,-6.0703,-6.0605,-6.0566,-6.039,-6.0371,-6.041,-6.0547,-6.0703,-6.0898,-6.1152,-6.1406,-6.166,-6.1719,-6.1719,-6.1719,-6.1719,-6.1719,-6.1758,-6.1738,-6.1777,-6.1777,-6.1777,-6.1797,-6.1777,-6.1719,-6.1719,-6.1719,-6.1719,-6.1719,-6.1719,-6.1738,-6.1719,-6.1719,-6.1719,-6.1719,-6.1719,-6.1738,-6.1719,-6.1719,-6.1758,-6.1933,-6.2324,-6.1488,-6.0111,-5.7124,-5.3754,-4.9875,-4.5227,-4.407,-4.3995,-8.8271,-8.6995,-8.7031,-8.7031,-8.7031,-8.7031,-8.7031,-8.7031,-8.7031,-8.6608,-8.5695,-8.4289,-8.3515,-8.3101,-8.2698,-8.2782,-8.3346,-8.4094,-8.4432,-8.464,-8.4708,-8.5012,-8.552,-8.6264,-8.7617,-8.7376,-8.6095,-8.4347,-8.4569,-8.1801,-8.0524,-8.0913,-8.1302,-8.1991,-8.2559,-8.2978,-8.3816,-8.3696,-8.2691,-8.0728,-7.8844,-7.6904,-7.4778,-7.323,-7.2791,-7.3268,-7.3971,-7.4322,-7.49,-7.5678,-7.5929,-7.6055,-7.6055,-7.6105,-7.623,-7.6959,-7.5682,-7.3155,-7.0114,-6.8042,-6.4882,-6.1229,-6.0156,-6.0351,-6.039,-6.0293,-6.0098,-6.0137,-6.0,-5.9902,-6.0117,-6.0332,-6.0605,-6.0937,-6.123,-6.1543,-6.1758,-6.1758,-6.1738,-6.1719,-6.1719,-6.1797,-6.205,-6.1836,-6.1836,-6.1836,-6.1875,-6.1933,-6.1953,-6.1953,-6.1738,-6.1738,-6.1836,-6.1855,-6.1777,-6.1758,-6.1738,-6.1719,-6.1836,-6.1894,-6.1914,-6.1914,-6.1777,-6.1875,-6.2129,-6.2441,-6.2773,-6.1669,-6.0052,-5.6629,-5.3248,-4.9592,-4.6423,-4.498,-4.4008,-8.8271,-8.7064,-8.7031,-8.7031,-8.7031,-8.7031,-8.7031,-8.7031,-8.7031,-8.632,-8.5201,-8.4088,-8.3364,-8.2976,-8.2638,-8.2777,-8.3476,-8.4196,-8.4606,-8.4674,-8.4911,-8.5317,-8.596,-8.6763,-8.7442,-8.6962,-8.5752,-8.3963,-8.3376,-8.1694,-8.0197,-8.0853,-8.1452,-8.232,-8.3008,-8.3576,-8.3347,-8.2602,-8.1206,-7.966,-7.7863,-7.5925,-7.3909,-7.3093,-7.2866,-7.3594,-7.4297,-7.4523,-7.5226,-7.5904,-7.6055,-7.6055,-7.6055,-7.6105,-7.6557,-7.6907,-7.4823,-7.2266,-6.9753,-6.6642,-6.3409,-6.0647,-5.959,-5.9687,-5.9746,-5.9687,-5.9746,-5.9785,-5.9512,-5.9375,-5.9785,-6.0176,-6.0605,-6.1035,-6.1387,-6.1758,-6.1797,-6.1797,-6.1758,-6.1719,-6.1777,-6.1875,-6.1914,-6.1953,-6.209,-6.2344,-6.2461,-6.25,-6.25,-6.248,-6.207,-6.1777,-6.1933,-6.2031,-6.1973,-6.1992,-6.207,-6.2187,-6.2363,-6.2383,-6.2265,-6.2285,-6.2363,-6.25,-6.2676,-6.2711,-6.2763,-6.1586,-5.9894,-5.6159,-5.2415,-4.8956,-4.6233,-4.4744,-4.4008,-8.8212,-8.7031,-8.7031,-8.7031,-8.7031,-8.7031,-8.7031,-8.7031,-8.7031,-8.632,-8.5045,-8.4112,-8.3473,-8.2915,-8.2649,-8.3013,-8.365,-8.4331,-8.464,-8.4674,-8.5317,-8.5723,-8.6196,-8.7169,-8.7585,-8.6349,-8.498,-8.3571,-8.2141,-8.0862,-8.0377,-8.0913,-8.1751,-8.2649,-8.3487,-8.3936,-8.3116,-8.0804,-7.8902,-7.7106,-7.5516,-7.379,-7.2213,-7.274,-7.3242,-7.3845,-7.4397,-7.4925,-7.5502,-7.5854,-7.6055,-7.6055,-7.5929,-7.5954,-7.6557,-7.5524,-7.3227,-7.0842,-6.7991,-6.5116,-6.2554,-6.027,-5.9199,-5.9297,-5.9355,-5.9375,-5.9473,-5.9531,-5.9336,-5.9551,-5.9922,-6.0254,-6.0644,-6.1113,-6.1543,-6.1894,-6.207,-6.2129,-6.2207,-6.2187,-6.2207,-6.2305,-6.2558,-6.2617,-6.2461,-6.2832,-6.3027,-6.3047,-6.3008,-6.2969,-6.2656,-6.2129,-6.2226,-6.2422,-6.2422,-6.2441,-6.2539,-6.2676,-6.2832,-6.291,-6.2575,-6.2653,-6.3008,-6.3086,-6.3144,-6.2938,-6.2484,-6.0968,-5.8558,-5.4049,-5.0787,-4.804,-4.578,-4.4522,-4.4008,-8.7836,-8.6995,-8.7031,-8.7031,-8.7031,-8.7031,-8.7031,-8.7031,-8.7031,-8.588,-8.4314,-8.4187,-8.3669,-8.271,-8.2989,-8.3486,-8.4162,-8.4365,-8.4606,-8.4877,-8.5418,-8.5858,-8.6088,-8.7429,-8.7543,-8.6612,-8.5145,-8.3086,-8.1134,-8.0604,-8.0855,-8.1631,-8.2499,-8.3427,-8.3876,-8.405,-8.2268,-7.9435,-7.7536,-7.5969,-7.4827,-7.3704,-7.2665,-7.2916,-7.3318,-7.392,-7.4448,-7.495,-7.5502,-7.5929,-7.603,-7.5854,-7.5452,-7.5452,-7.4739,-7.3145,-7.1399,-6.8829,-6.6343,-6.348,-6.0836,-5.9968,-5.9199,-5.9199,-5.9199,-5.9199,-5.9219,-5.9277,-5.9414,-5.9726,-6.0039,-6.0332,-6.0683,-6.1172,-6.164,-6.1973,-6.2305,-6.2441,-6.2578,-6.2617,-6.2637,-6.2832,-6.3066,-6.3144,-6.3008,-6.3125,-6.3398,-6.3496,-6.3457,-6.3418,-6.3379,-6.2969,-6.2793,-6.2871,-6.2871,-6.291,-6.3008,-6.3066,-6.3203,-6.3042,-6.312,-6.312,-6.3379,-6.3496,-6.3373,-6.2822,-6.1702,-6.0078,-5.6901,-5.2623,-4.9593,-4.6797,-4.5532,-4.4008,-4.4008,-8.7683,-8.6995,-8.7031,-8.7031,-8.7031,-8.7031,-8.7031,-8.7031,-8.7031,-8.5731,-8.3897,-8.4227,-8.3833,-8.2615,-8.3152,-8.393,-8.4539,-8.4606,-8.4606,-8.4843,-8.5418,-8.596,-8.673,-8.7115,-8.6257,-8.529,-8.3461,-8.1507,-8.0248,-8.0825,-8.1631,-8.229,-8.3247,-8.3995,-8.417,-8.3391,-8.1395,-7.8592,-7.6826,-7.5328,-7.4287,-7.2758,-7.259,-7.2866,-7.3644,-7.4197,-7.4649,-7.5101,-7.5327,-7.5477,-7.5402,-7.5201,-7.5,-7.5151,-7.4689,-7.3236,-7.0864,-6.7496,-6.5021,-6.2411,-5.9677,-5.9277,-5.9199,-5.9199,-5.9199,-5.9199,-5.9199,-5.9238,-5.9238,-5.9492,-5.9922,-6.0254,-6.0664,-6.1133,-6.1504,-6.1855,-6.209,-6.2285,-6.2402,-6.25,-6.2598,-6.2871,-6.3144,-6.3457,-6.3418,-6.3691,-6.3926,-6.3906,-6.3887,-6.3808,-6.3789,-6.3711,-6.3457,-6.334,-6.332,-6.3379,-6.3476,-6.3535,-6.3574,-6.373,-6.3587,-6.373,-6.373,-6.3828,-6.3423,-6.2265,-6.1136,-5.8683,-5.5394,-5.0849,-4.8329,-4.6042,-4.4771,-4.4008,-4.4008,-8.7554,-8.6995,-8.7031,-8.7031,-8.7031,-8.7031,-8.7105,-8.7109,-8.6932,-8.5833,-8.4237,-8.4564,-8.3772,-8.309,-8.3321,-8.3998,-8.4471,-8.4573,-8.4606,-8.4877,-8.5621,-8.6027,-8.6119,-8.6081,-8.5074,-8.3478,-8.1463,-8.075,-8.0105,-8.1153,-8.2226,-8.2918,-8.3606,-8.4414,-8.4387,-8.2927,-8.0519,-7.8583,-7.662,-7.4312,-7.2772,-7.161,-7.2414,-7.3318,-7.4121,-7.4674,-7.505,-7.5226,-7.5226,-7.5,-7.4774,-7.4448,-7.4523,-7.4749,-7.37,-7.2421,-6.9687,-6.7442,-6.5262,-6.1744,-5.9908,-5.9199,-5.9199,-5.9199,-5.9199,-5.9199,-5.9199,-5.9199,-5.9199,-5.9433,-5.9863,-6.0215,-6.0644,-6.1152,-6.1504,-6.1738,-6.1933,-6.2187,-6.2363,-6.248,-6.2734,-6.2969,-6.3359,-6.3691,-6.3906,-6.4199,-6.4316,-6.4316,-6.4258,-6.414,-6.4062,-6.4023,-6.3887,-6.3808,-6.3769,-6.3769,-6.3848,-6.3926,-6.3984,-6.418,-6.4258,-6.4082,-6.4023,-6.416,-6.3489,-6.2192,-5.9409,-5.64,-5.2878,-4.9076,-4.7058,-4.5021,-4.4771,-4.4008,-4.4008,-8.7132,-8.7031,-8.7031,-8.7031,-8.7031,-8.7031,-8.7362,-8.7735,-8.6936,-8.6065,-8.5426,-8.4996,-8.4102,-8.2509,-8.3862,-8.4539,-8.4539,-8.4606,-8.4606,-8.4776,-8.5824,-8.6163,-8.6119,-8.578,-8.4277,-8.2347,-8.0669,-8.0418,-8.0734,-8.1866,-8.2669,-8.2978,-8.4085,-8.4499,-8.4246,-8.2532,-8.0443,-7.8659,-7.6183,-7.3612,-7.3164,-7.2565,-7.2841,-7.3544,-7.4121,-7.4674,-7.5075,-7.5226,-7.5226,-7.495,-7.4347,-7.3895,-7.4021,-7.396,-7.2888,-7.0852,-6.8304,-6.5945,-6.3314,-6.0738,-5.9403,-5.9199,-5.9199,-5.9199,-5.9199,-5.9199,-5.9199,-5.9199,-5.9297,-5.9668,-6.0039,-6.0273,-6.0644,-6.1348,-6.1836,-6.1816,-6.1875,-6.2324,-6.2676,-6.2851,-6.3086,-6.3476,-6.3926,-6.4101,-6.4062,-6.4277,-6.4316,-6.4316,-6.4316,-6.4316,-6.4316,-6.4258,-6.418,-6.4238,-6.418,-6.4101,-6.414,-6.4258,-6.4316,-6.4316,-6.4316,-6.4316,-6.4316,-6.4316,-6.3284,-6.1985,-5.8701,-5.489,-5.1105,-4.7564,-4.5794,-4.4272,-4.4008,-4.4008,-4.4008]}]]